<?xml version="1.0" encoding="UTF-8" standalone="no" ?>
<gpx xmlns="http://www.topografix.com/GPX/1/1" xmlns:xsi="http://www.w3.org/2001/XMLSchema-instance" xsi:schemaLocation="http://www.topografix.com/GPX/1/1 http://www.topografix.com/GPX/1/1/gpx.xsd" version="1.1" creator="VisuGPX - https://www.visugpx.com">
  <metadata>
    <name>Mercredi 25 février 26</name>
  </metadata>
  <trk>
    <name><![CDATA[mercredi 25 février 2026]]></name>
    <extensions>
      <line xmlns="http://www.topografix.com/GPX/gpx_style/0/2">
        <width>7</width>
      </line>
    </extensions>
    <trkseg>
      <trkpt lat="43.38688" lon="-1.66316">
        <ele>2</ele>
        <time>2026-02-23T04:49:56.000Z</time>
      </trkpt>
      <trkpt lat="43.38688" lon="-1.66326">
        <ele>2</ele>
        <time>2026-02-23T04:49:57.000Z</time>
      </trkpt>
      <trkpt lat="43.38682" lon="-1.66334">
        <ele>1</ele>
        <time>2026-02-23T04:49:59.000Z</time>
      </trkpt>
      <trkpt lat="43.38674" lon="-1.66334">
        <ele>4</ele>
        <time>2026-02-23T04:50:00.000Z</time>
      </trkpt>
      <trkpt lat="43.3867" lon="-1.66331">
        <ele>4</ele>
        <time>2026-02-23T04:50:01.000Z</time>
      </trkpt>
      <trkpt lat="43.38668" lon="-1.66327">
        <ele>4</ele>
        <time>2026-02-23T04:50:02.000Z</time>
      </trkpt>
      <trkpt lat="43.38667" lon="-1.66317">
        <ele>1</ele>
        <time>2026-02-23T04:50:03.000Z</time>
      </trkpt>
      <trkpt lat="43.38655" lon="-1.66312">
        <ele>1</ele>
        <time>2026-02-23T04:50:05.000Z</time>
      </trkpt>
      <trkpt lat="43.38635" lon="-1.66244">
        <ele>4</ele>
        <time>2026-02-23T04:50:15.000Z</time>
      </trkpt>
      <trkpt lat="43.38627" lon="-1.66231">
        <ele>4</ele>
        <time>2026-02-23T04:50:17.000Z</time>
      </trkpt>
      <trkpt lat="43.38616" lon="-1.66222">
        <ele>4</ele>
        <time>2026-02-23T04:50:19.000Z</time>
      </trkpt>
      <trkpt lat="43.38612" lon="-1.66219">
        <ele>4</ele>
        <time>2026-02-23T04:50:20.000Z</time>
      </trkpt>
      <trkpt lat="43.38605" lon="-1.66219">
        <ele>4</ele>
        <time>2026-02-23T04:50:21.000Z</time>
      </trkpt>
      <trkpt lat="43.38599" lon="-1.66217">
        <ele>4</ele>
        <time>2026-02-23T04:50:22.000Z</time>
      </trkpt>
      <trkpt lat="43.38594" lon="-1.66211">
        <ele>4</ele>
        <time>2026-02-23T04:50:23.000Z</time>
      </trkpt>
      <trkpt lat="43.3859" lon="-1.66203">
        <ele>4</ele>
        <time>2026-02-23T04:50:25.000Z</time>
      </trkpt>
      <trkpt lat="43.38589" lon="-1.66194">
        <ele>4</ele>
        <time>2026-02-23T04:50:26.000Z</time>
      </trkpt>
      <trkpt lat="43.3859" lon="-1.66186">
        <ele>4</ele>
        <time>2026-02-23T04:50:27.000Z</time>
      </trkpt>
      <trkpt lat="43.38593" lon="-1.66178">
        <ele>4</ele>
        <time>2026-02-23T04:50:28.000Z</time>
      </trkpt>
      <trkpt lat="43.38603" lon="-1.6617">
        <ele>5</ele>
        <time>2026-02-23T04:50:30.000Z</time>
      </trkpt>
      <trkpt lat="43.3861" lon="-1.66135">
        <ele>6</ele>
        <time>2026-02-23T04:50:35.000Z</time>
      </trkpt>
      <trkpt lat="43.3861" lon="-1.66067">
        <ele>6</ele>
        <time>2026-02-23T04:50:44.000Z</time>
      </trkpt>
      <trkpt lat="43.38613" lon="-1.66037">
        <ele>6</ele>
        <time>2026-02-23T04:50:48.000Z</time>
      </trkpt>
      <trkpt lat="43.38618" lon="-1.66019">
        <ele>5</ele>
        <time>2026-02-23T04:50:50.000Z</time>
      </trkpt>
      <trkpt lat="43.38738" lon="-1.65672">
        <ele>9</ele>
        <time>2026-02-23T04:51:40.000Z</time>
      </trkpt>
      <trkpt lat="43.38716" lon="-1.65656">
        <ele>8</ele>
        <time>2026-02-23T04:51:44.000Z</time>
      </trkpt>
      <trkpt lat="43.38712" lon="-1.65655">
        <ele>8</ele>
        <time>2026-02-23T04:51:45.000Z</time>
      </trkpt>
      <trkpt lat="43.38702" lon="-1.6566">
        <ele>8</ele>
        <time>2026-02-23T04:51:47.000Z</time>
      </trkpt>
      <trkpt lat="43.38671" lon="-1.65626">
        <ele>6</ele>
        <time>2026-02-23T04:51:54.000Z</time>
      </trkpt>
      <trkpt lat="43.38622" lon="-1.65556">
        <ele>4</ele>
        <time>2026-02-23T04:52:06.000Z</time>
      </trkpt>
      <trkpt lat="43.38571" lon="-1.65489">
        <ele>4</ele>
        <time>2026-02-23T04:52:19.000Z</time>
      </trkpt>
      <trkpt lat="43.38484" lon="-1.65364">
        <ele>4</ele>
        <time>2026-02-23T04:52:41.000Z</time>
      </trkpt>
      <trkpt lat="43.38464" lon="-1.65325">
        <ele>6</ele>
        <time>2026-02-23T04:52:48.000Z</time>
      </trkpt>
      <trkpt lat="43.38456" lon="-1.65314">
        <ele>8</ele>
        <time>2026-02-23T04:52:50.000Z</time>
      </trkpt>
      <trkpt lat="43.38444" lon="-1.65302">
        <ele>10</ele>
        <time>2026-02-23T04:52:52.000Z</time>
      </trkpt>
      <trkpt lat="43.38417" lon="-1.65289">
        <ele>12</ele>
        <time>2026-02-23T04:52:57.000Z</time>
      </trkpt>
      <trkpt lat="43.38412" lon="-1.65283">
        <ele>13</ele>
        <time>2026-02-23T04:52:58.000Z</time>
      </trkpt>
      <trkpt lat="43.38402" lon="-1.65279">
        <ele>13</ele>
        <time>2026-02-23T04:53:00.000Z</time>
      </trkpt>
      <trkpt lat="43.38384" lon="-1.65266">
        <ele>13</ele>
        <time>2026-02-23T04:53:04.000Z</time>
      </trkpt>
      <trkpt lat="43.38366" lon="-1.65246">
        <ele>13</ele>
        <time>2026-02-23T04:53:08.000Z</time>
      </trkpt>
      <trkpt lat="43.38344" lon="-1.65206">
        <ele>12</ele>
        <time>2026-02-23T04:53:15.000Z</time>
      </trkpt>
      <trkpt lat="43.3833" lon="-1.6517">
        <ele>12</ele>
        <time>2026-02-23T04:53:20.000Z</time>
      </trkpt>
      <trkpt lat="43.38258" lon="-1.64969">
        <ele>8</ele>
        <time>2026-02-23T04:53:49.000Z</time>
      </trkpt>
      <trkpt lat="43.3825" lon="-1.64928">
        <ele>8</ele>
        <time>2026-02-23T04:53:54.000Z</time>
      </trkpt>
      <trkpt lat="43.38253" lon="-1.64877">
        <ele>9</ele>
        <time>2026-02-23T04:54:01.000Z</time>
      </trkpt>
      <trkpt lat="43.38279" lon="-1.6461">
        <ele>7</ele>
        <time>2026-02-23T04:54:36.000Z</time>
      </trkpt>
      <trkpt lat="43.38278" lon="-1.64507">
        <ele>10</ele>
        <time>2026-02-23T04:54:49.000Z</time>
      </trkpt>
      <trkpt lat="43.38272" lon="-1.64424">
        <ele>8</ele>
        <time>2026-02-23T04:55:00.000Z</time>
      </trkpt>
      <trkpt lat="43.38264" lon="-1.64383">
        <ele>7</ele>
        <time>2026-02-23T04:55:05.000Z</time>
      </trkpt>
      <trkpt lat="43.3825" lon="-1.64341">
        <ele>5</ele>
        <time>2026-02-23T04:55:11.000Z</time>
      </trkpt>
      <trkpt lat="43.38232" lon="-1.64309">
        <ele>5</ele>
        <time>2026-02-23T04:55:17.000Z</time>
      </trkpt>
      <trkpt lat="43.38212" lon="-1.64283">
        <ele>5</ele>
        <time>2026-02-23T04:55:21.000Z</time>
      </trkpt>
      <trkpt lat="43.38155" lon="-1.6423">
        <ele>6</ele>
        <time>2026-02-23T04:55:34.000Z</time>
      </trkpt>
      <trkpt lat="43.3812" lon="-1.64193">
        <ele>6</ele>
        <time>2026-02-23T04:55:42.000Z</time>
      </trkpt>
      <trkpt lat="43.38056" lon="-1.64058">
        <ele>9</ele>
        <time>2026-02-23T04:56:02.000Z</time>
      </trkpt>
      <trkpt lat="43.37906" lon="-1.63917">
        <ele>6</ele>
        <time>2026-02-23T04:56:35.000Z</time>
      </trkpt>
      <trkpt lat="43.37776" lon="-1.63786">
        <ele>8</ele>
        <time>2026-02-23T04:57:03.000Z</time>
      </trkpt>
      <trkpt lat="43.37759" lon="-1.63774">
        <ele>8</ele>
        <time>2026-02-23T04:57:07.000Z</time>
      </trkpt>
      <trkpt lat="43.37738" lon="-1.63772">
        <ele>8</ele>
        <time>2026-02-23T04:57:11.000Z</time>
      </trkpt>
      <trkpt lat="43.37719" lon="-1.63773">
        <ele>8</ele>
        <time>2026-02-23T04:57:14.000Z</time>
      </trkpt>
      <trkpt lat="43.37719" lon="-1.63773">
        <ele>8</ele>
        <time>2026-02-23T04:57:14.000Z</time>
      </trkpt>
      <trkpt lat="43.37642" lon="-1.63776">
        <ele>6</ele>
        <time>2026-02-23T04:57:28.000Z</time>
      </trkpt>
      <trkpt lat="43.37604" lon="-1.63785">
        <ele>6</ele>
        <time>2026-02-23T04:57:34.000Z</time>
      </trkpt>
      <trkpt lat="43.37541" lon="-1.63786">
        <ele>5</ele>
        <time>2026-02-23T04:57:46.000Z</time>
      </trkpt>
      <trkpt lat="43.37526" lon="-1.63781">
        <ele>5</ele>
        <time>2026-02-23T04:57:48.000Z</time>
      </trkpt>
      <trkpt lat="43.37517" lon="-1.6379">
        <ele>4</ele>
        <time>2026-02-23T04:57:50.000Z</time>
      </trkpt>
      <trkpt lat="43.3751" lon="-1.63791">
        <ele>4</ele>
        <time>2026-02-23T04:57:52.000Z</time>
      </trkpt>
      <trkpt lat="43.37445" lon="-1.63794">
        <ele>4</ele>
        <time>2026-02-23T04:58:03.000Z</time>
      </trkpt>
      <trkpt lat="43.37409" lon="-1.63788">
        <ele>4</ele>
        <time>2026-02-23T04:58:10.000Z</time>
      </trkpt>
      <trkpt lat="43.37111" lon="-1.63806">
        <ele>5</ele>
        <time>2026-02-23T04:59:03.000Z</time>
      </trkpt>
      <trkpt lat="43.37085" lon="-1.63801">
        <ele>6</ele>
        <time>2026-02-23T04:59:07.000Z</time>
      </trkpt>
      <trkpt lat="43.37063" lon="-1.63793">
        <ele>6</ele>
        <time>2026-02-23T04:59:11.000Z</time>
      </trkpt>
      <trkpt lat="43.36745" lon="-1.63592">
        <ele>7</ele>
        <time>2026-02-23T05:00:14.000Z</time>
      </trkpt>
      <trkpt lat="43.36707" lon="-1.63575">
        <ele>8</ele>
        <time>2026-02-23T05:00:21.000Z</time>
      </trkpt>
      <trkpt lat="43.36679" lon="-1.63572">
        <ele>8</ele>
        <time>2026-02-23T05:00:26.000Z</time>
      </trkpt>
      <trkpt lat="43.36639" lon="-1.63578">
        <ele>7</ele>
        <time>2026-02-23T05:00:33.000Z</time>
      </trkpt>
      <trkpt lat="43.36317" lon="-1.63673">
        <ele>7</ele>
        <time>2026-02-23T05:01:32.000Z</time>
      </trkpt>
      <trkpt lat="43.36273" lon="-1.63671">
        <ele>6</ele>
        <time>2026-02-23T05:01:39.000Z</time>
      </trkpt>
      <trkpt lat="43.36233" lon="-1.63654">
        <ele>6</ele>
        <time>2026-02-23T05:01:47.000Z</time>
      </trkpt>
      <trkpt lat="43.36111" lon="-1.63609">
        <ele>5</ele>
        <time>2026-02-23T05:02:09.000Z</time>
      </trkpt>
      <trkpt lat="43.36075" lon="-1.63589">
        <ele>5</ele>
        <time>2026-02-23T05:02:16.000Z</time>
      </trkpt>
      <trkpt lat="43.36061" lon="-1.63577">
        <ele>5</ele>
        <time>2026-02-23T05:02:19.000Z</time>
      </trkpt>
      <trkpt lat="43.36042" lon="-1.63555">
        <ele>6</ele>
        <time>2026-02-23T05:02:24.000Z</time>
      </trkpt>
      <trkpt lat="43.36029" lon="-1.63532">
        <ele>6</ele>
        <time>2026-02-23T05:02:27.000Z</time>
      </trkpt>
      <trkpt lat="43.36011" lon="-1.63495">
        <ele>6</ele>
        <time>2026-02-23T05:02:33.000Z</time>
      </trkpt>
      <trkpt lat="43.35991" lon="-1.63443">
        <ele>8</ele>
        <time>2026-02-23T05:02:41.000Z</time>
      </trkpt>
      <trkpt lat="43.35932" lon="-1.63351">
        <ele>9</ele>
        <time>2026-02-23T05:02:57.000Z</time>
      </trkpt>
      <trkpt lat="43.35827" lon="-1.63249">
        <ele>8</ele>
        <time>2026-02-23T05:03:19.000Z</time>
      </trkpt>
      <trkpt lat="43.35789" lon="-1.63219">
        <ele>9</ele>
        <time>2026-02-23T05:03:27.000Z</time>
      </trkpt>
      <trkpt lat="43.35749" lon="-1.63192">
        <ele>7</ele>
        <time>2026-02-23T05:03:35.000Z</time>
      </trkpt>
      <trkpt lat="43.35679" lon="-1.63165">
        <ele>6</ele>
        <time>2026-02-23T05:03:48.000Z</time>
      </trkpt>
      <trkpt lat="43.35667" lon="-1.63163">
        <ele>6</ele>
        <time>2026-02-23T05:03:50.000Z</time>
      </trkpt>
      <trkpt lat="43.35663" lon="-1.63166">
        <ele>6</ele>
        <time>2026-02-23T05:03:51.000Z</time>
      </trkpt>
      <trkpt lat="43.35657" lon="-1.63166">
        <ele>6</ele>
        <time>2026-02-23T05:03:52.000Z</time>
      </trkpt>
      <trkpt lat="43.35638" lon="-1.63154">
        <ele>6</ele>
        <time>2026-02-23T05:03:56.000Z</time>
      </trkpt>
      <trkpt lat="43.35403" lon="-1.63082">
        <ele>7</ele>
        <time>2026-02-23T05:04:39.000Z</time>
      </trkpt>
      <trkpt lat="43.35365" lon="-1.63059">
        <ele>7</ele>
        <time>2026-02-23T05:04:46.000Z</time>
      </trkpt>
      <trkpt lat="43.35332" lon="-1.63028">
        <ele>7</ele>
        <time>2026-02-23T05:04:53.000Z</time>
      </trkpt>
      <trkpt lat="43.35291" lon="-1.62977">
        <ele>6</ele>
        <time>2026-02-23T05:05:03.000Z</time>
      </trkpt>
      <trkpt lat="43.35279" lon="-1.62957">
        <ele>6</ele>
        <time>2026-02-23T05:05:06.000Z</time>
      </trkpt>
      <trkpt lat="43.35258" lon="-1.62906">
        <ele>6</ele>
        <time>2026-02-23T05:05:14.000Z</time>
      </trkpt>
      <trkpt lat="43.35207" lon="-1.62759">
        <ele>8</ele>
        <time>2026-02-23T05:05:35.000Z</time>
      </trkpt>
      <trkpt lat="43.35115" lon="-1.62529">
        <ele>11</ele>
        <time>2026-02-23T05:06:09.000Z</time>
      </trkpt>
      <trkpt lat="43.3511" lon="-1.62496">
        <ele>11</ele>
        <time>2026-02-23T05:06:13.000Z</time>
      </trkpt>
      <trkpt lat="43.35104" lon="-1.62447">
        <ele>11</ele>
        <time>2026-02-23T05:06:20.000Z</time>
      </trkpt>
      <trkpt lat="43.35104" lon="-1.62406">
        <ele>11</ele>
        <time>2026-02-23T05:06:25.000Z</time>
      </trkpt>
      <trkpt lat="43.35111" lon="-1.62332">
        <ele>11</ele>
        <time>2026-02-23T05:06:35.000Z</time>
      </trkpt>
      <trkpt lat="43.35116" lon="-1.62311">
        <ele>11</ele>
        <time>2026-02-23T05:06:38.000Z</time>
      </trkpt>
      <trkpt lat="43.35127" lon="-1.62289">
        <ele>11</ele>
        <time>2026-02-23T05:06:41.000Z</time>
      </trkpt>
      <trkpt lat="43.35181" lon="-1.62184">
        <ele>11</ele>
        <time>2026-02-23T05:06:58.000Z</time>
      </trkpt>
      <trkpt lat="43.35201" lon="-1.62156">
        <ele>12</ele>
        <time>2026-02-23T05:07:03.000Z</time>
      </trkpt>
      <trkpt lat="43.3523" lon="-1.62131">
        <ele>13</ele>
        <time>2026-02-23T05:07:09.000Z</time>
      </trkpt>
      <trkpt lat="43.35298" lon="-1.62102">
        <ele>17</ele>
        <time>2026-02-23T05:07:22.000Z</time>
      </trkpt>
      <trkpt lat="43.35384" lon="-1.6207">
        <ele>21</ele>
        <time>2026-02-23T05:07:37.000Z</time>
      </trkpt>
      <trkpt lat="43.35406" lon="-1.62059">
        <ele>21</ele>
        <time>2026-02-23T05:07:42.000Z</time>
      </trkpt>
      <trkpt lat="43.35449" lon="-1.62032">
        <ele>20</ele>
        <time>2026-02-23T05:07:50.000Z</time>
      </trkpt>
      <trkpt lat="43.35486" lon="-1.62001">
        <ele>18</ele>
        <time>2026-02-23T05:07:58.000Z</time>
      </trkpt>
      <trkpt lat="43.35515" lon="-1.61963">
        <ele>18</ele>
        <time>2026-02-23T05:08:05.000Z</time>
      </trkpt>
      <trkpt lat="43.35787" lon="-1.61535">
        <ele>14</ele>
        <time>2026-02-23T05:09:18.000Z</time>
      </trkpt>
      <trkpt lat="43.35815" lon="-1.61503">
        <ele>12</ele>
        <time>2026-02-23T05:09:25.000Z</time>
      </trkpt>
      <trkpt lat="43.35913" lon="-1.61419">
        <ele>16</ele>
        <time>2026-02-23T05:09:45.000Z</time>
      </trkpt>
      <trkpt lat="43.35934" lon="-1.61396">
        <ele>16</ele>
        <time>2026-02-23T05:09:50.000Z</time>
      </trkpt>
      <trkpt lat="43.36026" lon="-1.61276">
        <ele>11</ele>
        <time>2026-02-23T05:10:13.000Z</time>
      </trkpt>
      <trkpt lat="43.36042" lon="-1.61253">
        <ele>11</ele>
        <time>2026-02-23T05:10:17.000Z</time>
      </trkpt>
      <trkpt lat="43.36058" lon="-1.61224">
        <ele>11</ele>
        <time>2026-02-23T05:10:22.000Z</time>
      </trkpt>
      <trkpt lat="43.36075" lon="-1.61188">
        <ele>12</ele>
        <time>2026-02-23T05:10:27.000Z</time>
      </trkpt>
      <trkpt lat="43.36091" lon="-1.61139">
        <ele>13</ele>
        <time>2026-02-23T05:10:34.000Z</time>
      </trkpt>
      <trkpt lat="43.361" lon="-1.61078">
        <ele>15</ele>
        <time>2026-02-23T05:10:42.000Z</time>
      </trkpt>
      <trkpt lat="43.36105" lon="-1.61018">
        <ele>17</ele>
        <time>2026-02-23T05:10:50.000Z</time>
      </trkpt>
      <trkpt lat="43.36113" lon="-1.60838">
        <ele>16</ele>
        <time>2026-02-23T05:11:13.000Z</time>
      </trkpt>
      <trkpt lat="43.36112" lon="-1.6083">
        <ele>16</ele>
        <time>2026-02-23T05:11:14.000Z</time>
      </trkpt>
      <trkpt lat="43.36119" lon="-1.6075">
        <ele>18</ele>
        <time>2026-02-23T05:11:25.000Z</time>
      </trkpt>
      <trkpt lat="43.36118" lon="-1.607">
        <ele>18</ele>
        <time>2026-02-23T05:11:31.000Z</time>
      </trkpt>
      <trkpt lat="43.36104" lon="-1.60586">
        <ele>18</ele>
        <time>2026-02-23T05:11:46.000Z</time>
      </trkpt>
      <trkpt lat="43.36102" lon="-1.60521">
        <ele>17</ele>
        <time>2026-02-23T05:11:55.000Z</time>
      </trkpt>
      <trkpt lat="43.36109" lon="-1.60457">
        <ele>16</ele>
        <time>2026-02-23T05:12:03.000Z</time>
      </trkpt>
      <trkpt lat="43.36125" lon="-1.6041">
        <ele>15</ele>
        <time>2026-02-23T05:12:10.000Z</time>
      </trkpt>
      <trkpt lat="43.36152" lon="-1.60365">
        <ele>14</ele>
        <time>2026-02-23T05:12:17.000Z</time>
      </trkpt>
      <trkpt lat="43.36173" lon="-1.60338">
        <ele>13</ele>
        <time>2026-02-23T05:12:22.000Z</time>
      </trkpt>
      <trkpt lat="43.36203" lon="-1.60308">
        <ele>15</ele>
        <time>2026-02-23T05:12:29.000Z</time>
      </trkpt>
      <trkpt lat="43.36265" lon="-1.60257">
        <ele>19</ele>
        <time>2026-02-23T05:12:42.000Z</time>
      </trkpt>
      <trkpt lat="43.36299" lon="-1.60225">
        <ele>21</ele>
        <time>2026-02-23T05:12:49.000Z</time>
      </trkpt>
      <trkpt lat="43.36326" lon="-1.60185">
        <ele>18</ele>
        <time>2026-02-23T05:12:56.000Z</time>
      </trkpt>
      <trkpt lat="43.36345" lon="-1.6014">
        <ele>16</ele>
        <time>2026-02-23T05:13:03.000Z</time>
      </trkpt>
      <trkpt lat="43.36369" lon="-1.60073">
        <ele>15</ele>
        <time>2026-02-23T05:13:13.000Z</time>
      </trkpt>
      <trkpt lat="43.36392" lon="-1.60032">
        <ele>14</ele>
        <time>2026-02-23T05:13:19.000Z</time>
      </trkpt>
      <trkpt lat="43.36426" lon="-1.59985">
        <ele>13</ele>
        <time>2026-02-23T05:13:28.000Z</time>
      </trkpt>
      <trkpt lat="43.36476" lon="-1.5994">
        <ele>14</ele>
        <time>2026-02-23T05:13:38.000Z</time>
      </trkpt>
      <trkpt lat="43.36533" lon="-1.59897">
        <ele>16</ele>
        <time>2026-02-23T05:13:50.000Z</time>
      </trkpt>
      <trkpt lat="43.36549" lon="-1.59873">
        <ele>17</ele>
        <time>2026-02-23T05:13:54.000Z</time>
      </trkpt>
      <trkpt lat="43.36562" lon="-1.59843">
        <ele>18</ele>
        <time>2026-02-23T05:13:59.000Z</time>
      </trkpt>
      <trkpt lat="43.36567" lon="-1.59809">
        <ele>18</ele>
        <time>2026-02-23T05:14:03.000Z</time>
      </trkpt>
      <trkpt lat="43.36588" lon="-1.59546">
        <ele>11</ele>
        <time>2026-02-23T05:14:37.000Z</time>
      </trkpt>
      <trkpt lat="43.36592" lon="-1.59482">
        <ele>9</ele>
        <time>2026-02-23T05:14:46.000Z</time>
      </trkpt>
      <trkpt lat="43.36589" lon="-1.5943">
        <ele>9</ele>
        <time>2026-02-23T05:14:53.000Z</time>
      </trkpt>
      <trkpt lat="43.36581" lon="-1.59376">
        <ele>9</ele>
        <time>2026-02-23T05:15:00.000Z</time>
      </trkpt>
      <trkpt lat="43.36482" lon="-1.59044">
        <ele>9</ele>
        <time>2026-02-23T05:15:46.000Z</time>
      </trkpt>
      <trkpt lat="43.3646" lon="-1.58976">
        <ele>11</ele>
        <time>2026-02-23T05:15:56.000Z</time>
      </trkpt>
      <trkpt lat="43.36444" lon="-1.58941">
        <ele>12</ele>
        <time>2026-02-23T05:16:01.000Z</time>
      </trkpt>
      <trkpt lat="43.36427" lon="-1.58913">
        <ele>13</ele>
        <time>2026-02-23T05:16:06.000Z</time>
      </trkpt>
      <trkpt lat="43.36402" lon="-1.58885">
        <ele>17</ele>
        <time>2026-02-23T05:16:12.000Z</time>
      </trkpt>
      <trkpt lat="43.36308" lon="-1.58801">
        <ele>19</ele>
        <time>2026-02-23T05:16:31.000Z</time>
      </trkpt>
      <trkpt lat="43.3628" lon="-1.58766">
        <ele>18</ele>
        <time>2026-02-23T05:16:38.000Z</time>
      </trkpt>
      <trkpt lat="43.36257" lon="-1.58723">
        <ele>14</ele>
        <time>2026-02-23T05:16:45.000Z</time>
      </trkpt>
      <trkpt lat="43.36164" lon="-1.58429">
        <ele>12</ele>
        <time>2026-02-23T05:17:27.000Z</time>
      </trkpt>
      <trkpt lat="43.36139" lon="-1.58363">
        <ele>12</ele>
        <time>2026-02-23T05:17:36.000Z</time>
      </trkpt>
      <trkpt lat="43.36129" lon="-1.58341">
        <ele>12</ele>
        <time>2026-02-23T05:17:40.000Z</time>
      </trkpt>
      <trkpt lat="43.36109" lon="-1.58303">
        <ele>12</ele>
        <time>2026-02-23T05:17:46.000Z</time>
      </trkpt>
      <trkpt lat="43.35894" lon="-1.57993">
        <ele>11</ele>
        <time>2026-02-23T05:18:41.000Z</time>
      </trkpt>
      <trkpt lat="43.35861" lon="-1.57931">
        <ele>12</ele>
        <time>2026-02-23T05:18:51.000Z</time>
      </trkpt>
      <trkpt lat="43.35838" lon="-1.57872">
        <ele>12</ele>
        <time>2026-02-23T05:19:00.000Z</time>
      </trkpt>
      <trkpt lat="43.35807" lon="-1.5772">
        <ele>12</ele>
        <time>2026-02-23T05:19:20.000Z</time>
      </trkpt>
      <trkpt lat="43.35782" lon="-1.57586">
        <ele>13</ele>
        <time>2026-02-23T05:19:38.000Z</time>
      </trkpt>
      <trkpt lat="43.35779" lon="-1.57525">
        <ele>13</ele>
        <time>2026-02-23T05:19:46.000Z</time>
      </trkpt>
      <trkpt lat="43.35775" lon="-1.57481">
        <ele>13</ele>
        <time>2026-02-23T05:19:52.000Z</time>
      </trkpt>
      <trkpt lat="43.3577" lon="-1.57475">
        <ele>13</ele>
        <time>2026-02-23T05:19:53.000Z</time>
      </trkpt>
      <trkpt lat="43.35768" lon="-1.57467">
        <ele>13</ele>
        <time>2026-02-23T05:19:54.000Z</time>
      </trkpt>
      <trkpt lat="43.35771" lon="-1.57459">
        <ele>13</ele>
        <time>2026-02-23T05:19:55.000Z</time>
      </trkpt>
      <trkpt lat="43.35763" lon="-1.57418">
        <ele>13</ele>
        <time>2026-02-23T05:20:01.000Z</time>
      </trkpt>
      <trkpt lat="43.35745" lon="-1.57225">
        <ele>14</ele>
        <time>2026-02-23T05:20:26.000Z</time>
      </trkpt>
      <trkpt lat="43.3574" lon="-1.57189">
        <ele>15</ele>
        <time>2026-02-23T05:20:30.000Z</time>
      </trkpt>
      <trkpt lat="43.35733" lon="-1.5716">
        <ele>15</ele>
        <time>2026-02-23T05:20:34.000Z</time>
      </trkpt>
      <trkpt lat="43.35723" lon="-1.5713">
        <ele>15</ele>
        <time>2026-02-23T05:20:39.000Z</time>
      </trkpt>
      <trkpt lat="43.35625" lon="-1.56922">
        <ele>17</ele>
        <time>2026-02-23T05:21:11.000Z</time>
      </trkpt>
      <trkpt lat="43.35608" lon="-1.56895">
        <ele>17</ele>
        <time>2026-02-23T05:21:15.000Z</time>
      </trkpt>
      <trkpt lat="43.35589" lon="-1.56852">
        <ele>17</ele>
        <time>2026-02-23T05:21:22.000Z</time>
      </trkpt>
      <trkpt lat="43.35585" lon="-1.56824">
        <ele>17</ele>
        <time>2026-02-23T05:21:26.000Z</time>
      </trkpt>
      <trkpt lat="43.35585" lon="-1.56811">
        <ele>17</ele>
        <time>2026-02-23T05:21:27.000Z</time>
      </trkpt>
      <trkpt lat="43.3559" lon="-1.56791">
        <ele>17</ele>
        <time>2026-02-23T05:21:30.000Z</time>
      </trkpt>
      <trkpt lat="43.35617" lon="-1.56692">
        <ele>19</ele>
        <time>2026-02-23T05:21:44.000Z</time>
      </trkpt>
      <trkpt lat="43.35622" lon="-1.56658">
        <ele>19</ele>
        <time>2026-02-23T05:21:48.000Z</time>
      </trkpt>
      <trkpt lat="43.35622" lon="-1.56604">
        <ele>19</ele>
        <time>2026-02-23T05:21:55.000Z</time>
      </trkpt>
      <trkpt lat="43.3562" lon="-1.56603">
        <ele>19</ele>
        <time>2026-02-23T05:21:56.000Z</time>
      </trkpt>
      <trkpt lat="43.35617" lon="-1.56596">
        <ele>19</ele>
        <time>2026-02-23T05:21:57.000Z</time>
      </trkpt>
      <trkpt lat="43.35618" lon="-1.56593">
        <ele>19</ele>
        <time>2026-02-23T05:21:57.000Z</time>
      </trkpt>
      <trkpt lat="43.35623" lon="-1.56587">
        <ele>19</ele>
        <time>2026-02-23T05:21:58.000Z</time>
      </trkpt>
      <trkpt lat="43.35615" lon="-1.56214">
        <ele>19</ele>
        <time>2026-02-23T05:22:46.000Z</time>
      </trkpt>
      <trkpt lat="43.35617" lon="-1.5617">
        <ele>19</ele>
        <time>2026-02-23T05:22:52.000Z</time>
      </trkpt>
      <trkpt lat="43.35625" lon="-1.56126">
        <ele>18</ele>
        <time>2026-02-23T05:22:58.000Z</time>
      </trkpt>
      <trkpt lat="43.35635" lon="-1.56106">
        <ele>18</ele>
        <time>2026-02-23T05:23:01.000Z</time>
      </trkpt>
      <trkpt lat="43.35652" lon="-1.56086">
        <ele>18</ele>
        <time>2026-02-23T05:23:05.000Z</time>
      </trkpt>
      <trkpt lat="43.35627" lon="-1.56036">
        <ele>16</ele>
        <time>2026-02-23T05:23:13.000Z</time>
      </trkpt>
      <trkpt lat="43.35597" lon="-1.55988">
        <ele>15</ele>
        <time>2026-02-23T05:23:21.000Z</time>
      </trkpt>
      <trkpt lat="43.35594" lon="-1.55961">
        <ele>15</ele>
        <time>2026-02-23T05:23:25.000Z</time>
      </trkpt>
      <trkpt lat="43.35601" lon="-1.5592">
        <ele>14</ele>
        <time>2026-02-23T05:23:30.000Z</time>
      </trkpt>
      <trkpt lat="43.35596" lon="-1.55849">
        <ele>15</ele>
        <time>2026-02-23T05:23:39.000Z</time>
      </trkpt>
      <trkpt lat="43.35588" lon="-1.55806">
        <ele>15</ele>
        <time>2026-02-23T05:23:45.000Z</time>
      </trkpt>
      <trkpt lat="43.35585" lon="-1.55759">
        <ele>16</ele>
        <time>2026-02-23T05:23:51.000Z</time>
      </trkpt>
      <trkpt lat="43.35586" lon="-1.5563">
        <ele>16</ele>
        <time>2026-02-23T05:24:08.000Z</time>
      </trkpt>
      <trkpt lat="43.35582" lon="-1.55451">
        <ele>15</ele>
        <time>2026-02-23T05:24:31.000Z</time>
      </trkpt>
      <trkpt lat="43.3558" lon="-1.55434">
        <ele>15</ele>
        <time>2026-02-23T05:24:33.000Z</time>
      </trkpt>
      <trkpt lat="43.35578" lon="-1.55426">
        <ele>16</ele>
        <time>2026-02-23T05:24:34.000Z</time>
      </trkpt>
      <trkpt lat="43.35573" lon="-1.5542">
        <ele>16</ele>
        <time>2026-02-23T05:24:36.000Z</time>
      </trkpt>
      <trkpt lat="43.3557" lon="-1.55421">
        <ele>16</ele>
        <time>2026-02-23T05:24:36.000Z</time>
      </trkpt>
      <trkpt lat="43.35564" lon="-1.5542">
        <ele>16</ele>
        <time>2026-02-23T05:24:37.000Z</time>
      </trkpt>
      <trkpt lat="43.35559" lon="-1.55414">
        <ele>16</ele>
        <time>2026-02-23T05:24:38.000Z</time>
      </trkpt>
      <trkpt lat="43.35558" lon="-1.55406">
        <ele>16</ele>
        <time>2026-02-23T05:24:39.000Z</time>
      </trkpt>
      <trkpt lat="43.3556" lon="-1.55398">
        <ele>16</ele>
        <time>2026-02-23T05:24:41.000Z</time>
      </trkpt>
      <trkpt lat="43.35563" lon="-1.55395">
        <ele>16</ele>
        <time>2026-02-23T05:24:41.000Z</time>
      </trkpt>
      <trkpt lat="43.3556" lon="-1.55389">
        <ele>16</ele>
        <time>2026-02-23T05:24:42.000Z</time>
      </trkpt>
      <trkpt lat="43.3554" lon="-1.55371">
        <ele>16</ele>
        <time>2026-02-23T05:24:46.000Z</time>
      </trkpt>
      <trkpt lat="43.35523" lon="-1.55364">
        <ele>16</ele>
        <time>2026-02-23T05:24:50.000Z</time>
      </trkpt>
      <trkpt lat="43.35511" lon="-1.55362">
        <ele>16</ele>
        <time>2026-02-23T05:24:52.000Z</time>
      </trkpt>
      <trkpt lat="43.35382" lon="-1.55367">
        <ele>16</ele>
        <time>2026-02-23T05:25:15.000Z</time>
      </trkpt>
      <trkpt lat="43.35382" lon="-1.55367">
        <ele>16</ele>
        <time>2026-02-23T05:25:15.000Z</time>
      </trkpt>
      <trkpt lat="43.35366" lon="-1.55368">
        <ele>16</ele>
        <time>2026-02-23T05:25:18.000Z</time>
      </trkpt>
      <trkpt lat="43.35339" lon="-1.55359">
        <ele>17</ele>
        <time>2026-02-23T05:25:22.000Z</time>
      </trkpt>
      <trkpt lat="43.35318" lon="-1.5535">
        <ele>17</ele>
        <time>2026-02-23T05:25:26.000Z</time>
      </trkpt>
      <trkpt lat="43.35303" lon="-1.55338">
        <ele>17</ele>
        <time>2026-02-23T05:25:29.000Z</time>
      </trkpt>
      <trkpt lat="43.35287" lon="-1.55317">
        <ele>17</ele>
        <time>2026-02-23T05:25:33.000Z</time>
      </trkpt>
      <trkpt lat="43.35223" lon="-1.55216">
        <ele>16</ele>
        <time>2026-02-23T05:25:51.000Z</time>
      </trkpt>
      <trkpt lat="43.35136" lon="-1.55045">
        <ele>17</ele>
        <time>2026-02-23T05:26:18.000Z</time>
      </trkpt>
      <trkpt lat="43.35118" lon="-1.55005">
        <ele>18</ele>
        <time>2026-02-23T05:26:24.000Z</time>
      </trkpt>
      <trkpt lat="43.35115" lon="-1.54994">
        <ele>18</ele>
        <time>2026-02-23T05:26:25.000Z</time>
      </trkpt>
      <trkpt lat="43.35105" lon="-1.54993">
        <ele>18</ele>
        <time>2026-02-23T05:26:27.000Z</time>
      </trkpt>
      <trkpt lat="43.35098" lon="-1.54989">
        <ele>18</ele>
        <time>2026-02-23T05:26:28.000Z</time>
      </trkpt>
      <trkpt lat="43.35093" lon="-1.54979">
        <ele>18</ele>
        <time>2026-02-23T05:26:30.000Z</time>
      </trkpt>
      <trkpt lat="43.35089" lon="-1.54964">
        <ele>19</ele>
        <time>2026-02-23T05:26:32.000Z</time>
      </trkpt>
      <trkpt lat="43.35092" lon="-1.5495">
        <ele>19</ele>
        <time>2026-02-23T05:26:34.000Z</time>
      </trkpt>
      <trkpt lat="43.35085" lon="-1.5492">
        <ele>20</ele>
        <time>2026-02-23T05:26:38.000Z</time>
      </trkpt>
      <trkpt lat="43.35076" lon="-1.54912">
        <ele>20</ele>
        <time>2026-02-23T05:26:40.000Z</time>
      </trkpt>
      <trkpt lat="43.34941" lon="-1.54841">
        <ele>23</ele>
        <time>2026-02-23T05:27:06.000Z</time>
      </trkpt>
      <trkpt lat="43.34909" lon="-1.54821">
        <ele>24</ele>
        <time>2026-02-23T05:27:12.000Z</time>
      </trkpt>
      <trkpt lat="43.34888" lon="-1.548">
        <ele>25</ele>
        <time>2026-02-23T05:27:17.000Z</time>
      </trkpt>
      <trkpt lat="43.34869" lon="-1.54775">
        <ele>25</ele>
        <time>2026-02-23T05:27:21.000Z</time>
      </trkpt>
      <trkpt lat="43.347" lon="-1.54509">
        <ele>28</ele>
        <time>2026-02-23T05:28:07.000Z</time>
      </trkpt>
      <trkpt lat="43.34688" lon="-1.54483">
        <ele>28</ele>
        <time>2026-02-23T05:28:11.000Z</time>
      </trkpt>
      <trkpt lat="43.34681" lon="-1.54451">
        <ele>30</ele>
        <time>2026-02-23T05:28:15.000Z</time>
      </trkpt>
      <trkpt lat="43.34676" lon="-1.54412">
        <ele>31</ele>
        <time>2026-02-23T05:28:20.000Z</time>
      </trkpt>
      <trkpt lat="43.34674" lon="-1.54364">
        <ele>32</ele>
        <time>2026-02-23T05:28:27.000Z</time>
      </trkpt>
      <trkpt lat="43.34673" lon="-1.54279">
        <ele>35</ele>
        <time>2026-02-23T05:28:38.000Z</time>
      </trkpt>
      <trkpt lat="43.34669" lon="-1.5425">
        <ele>35</ele>
        <time>2026-02-23T05:28:41.000Z</time>
      </trkpt>
      <trkpt lat="43.34661" lon="-1.5421">
        <ele>37</ele>
        <time>2026-02-23T05:28:47.000Z</time>
      </trkpt>
      <trkpt lat="43.3465" lon="-1.54178">
        <ele>38</ele>
        <time>2026-02-23T05:28:51.000Z</time>
      </trkpt>
      <trkpt lat="43.34639" lon="-1.54155">
        <ele>37</ele>
        <time>2026-02-23T05:28:55.000Z</time>
      </trkpt>
      <trkpt lat="43.3459" lon="-1.54058">
        <ele>34</ele>
        <time>2026-02-23T05:29:10.000Z</time>
      </trkpt>
      <trkpt lat="43.34579" lon="-1.54025">
        <ele>34</ele>
        <time>2026-02-23T05:29:15.000Z</time>
      </trkpt>
      <trkpt lat="43.34572" lon="-1.53997">
        <ele>34</ele>
        <time>2026-02-23T05:29:19.000Z</time>
      </trkpt>
      <trkpt lat="43.34568" lon="-1.53959">
        <ele>34</ele>
        <time>2026-02-23T05:29:24.000Z</time>
      </trkpt>
      <trkpt lat="43.34568" lon="-1.53909">
        <ele>35</ele>
        <time>2026-02-23T05:29:30.000Z</time>
      </trkpt>
      <trkpt lat="43.34564" lon="-1.53862">
        <ele>37</ele>
        <time>2026-02-23T05:29:36.000Z</time>
      </trkpt>
      <trkpt lat="43.34557" lon="-1.53827">
        <ele>38</ele>
        <time>2026-02-23T05:29:41.000Z</time>
      </trkpt>
      <trkpt lat="43.34531" lon="-1.53721">
        <ele>38</ele>
        <time>2026-02-23T05:29:55.000Z</time>
      </trkpt>
      <trkpt lat="43.34523" lon="-1.53674">
        <ele>39</ele>
        <time>2026-02-23T05:30:02.000Z</time>
      </trkpt>
      <trkpt lat="43.34488" lon="-1.53413">
        <ele>43</ele>
        <time>2026-02-23T05:30:36.000Z</time>
      </trkpt>
      <trkpt lat="43.34461" lon="-1.53096">
        <ele>41</ele>
        <time>2026-02-23T05:31:17.000Z</time>
      </trkpt>
      <trkpt lat="43.34451" lon="-1.53016">
        <ele>38</ele>
        <time>2026-02-23T05:31:28.000Z</time>
      </trkpt>
      <trkpt lat="43.34439" lon="-1.5296">
        <ele>36</ele>
        <time>2026-02-23T05:31:35.000Z</time>
      </trkpt>
      <trkpt lat="43.34431" lon="-1.52938">
        <ele>36</ele>
        <time>2026-02-23T05:31:39.000Z</time>
      </trkpt>
      <trkpt lat="43.34359" lon="-1.52813">
        <ele>35</ele>
        <time>2026-02-23T05:31:59.000Z</time>
      </trkpt>
      <trkpt lat="43.34344" lon="-1.52803">
        <ele>36</ele>
        <time>2026-02-23T05:32:02.000Z</time>
      </trkpt>
      <trkpt lat="43.34338" lon="-1.52805">
        <ele>36</ele>
        <time>2026-02-23T05:32:03.000Z</time>
      </trkpt>
      <trkpt lat="43.3433" lon="-1.52804">
        <ele>36</ele>
        <time>2026-02-23T05:32:05.000Z</time>
      </trkpt>
      <trkpt lat="43.34326" lon="-1.528">
        <ele>36</ele>
        <time>2026-02-23T05:32:06.000Z</time>
      </trkpt>
      <trkpt lat="43.3432" lon="-1.52789">
        <ele>36</ele>
        <time>2026-02-23T05:32:07.000Z</time>
      </trkpt>
      <trkpt lat="43.3432" lon="-1.52774">
        <ele>36</ele>
        <time>2026-02-23T05:32:09.000Z</time>
      </trkpt>
      <trkpt lat="43.34322" lon="-1.52767">
        <ele>36</ele>
        <time>2026-02-23T05:32:10.000Z</time>
      </trkpt>
      <trkpt lat="43.34321" lon="-1.52745">
        <ele>36</ele>
        <time>2026-02-23T05:32:13.000Z</time>
      </trkpt>
      <trkpt lat="43.34244" lon="-1.52614">
        <ele>41</ele>
        <time>2026-02-23T05:32:35.000Z</time>
      </trkpt>
      <trkpt lat="43.34166" lon="-1.52489">
        <ele>41</ele>
        <time>2026-02-23T05:32:56.000Z</time>
      </trkpt>
      <trkpt lat="43.34149" lon="-1.52453">
        <ele>42</ele>
        <time>2026-02-23T05:33:02.000Z</time>
      </trkpt>
      <trkpt lat="43.33834" lon="-1.51711">
        <ele>44</ele>
        <time>2026-02-23T05:34:53.000Z</time>
      </trkpt>
      <trkpt lat="43.33753" lon="-1.51514">
        <ele>47</ele>
        <time>2026-02-23T05:35:22.000Z</time>
      </trkpt>
      <trkpt lat="43.33643" lon="-1.51157">
        <ele>52</ele>
        <time>2026-02-23T05:36:12.000Z</time>
      </trkpt>
      <trkpt lat="43.33637" lon="-1.51133">
        <ele>52</ele>
        <time>2026-02-23T05:36:16.000Z</time>
      </trkpt>
      <trkpt lat="43.3363" lon="-1.51094">
        <ele>53</ele>
        <time>2026-02-23T05:36:21.000Z</time>
      </trkpt>
      <trkpt lat="43.33589" lon="-1.5077">
        <ele>60</ele>
        <time>2026-02-23T05:37:04.000Z</time>
      </trkpt>
      <trkpt lat="43.33586" lon="-1.50738">
        <ele>62</ele>
        <time>2026-02-23T05:37:08.000Z</time>
      </trkpt>
      <trkpt lat="43.33588" lon="-1.50703">
        <ele>65</ele>
        <time>2026-02-23T05:37:12.000Z</time>
      </trkpt>
      <trkpt lat="43.33594" lon="-1.50663">
        <ele>70</ele>
        <time>2026-02-23T05:37:18.000Z</time>
      </trkpt>
      <trkpt lat="43.33612" lon="-1.5057">
        <ele>76</ele>
        <time>2026-02-23T05:37:30.000Z</time>
      </trkpt>
      <trkpt lat="43.33612" lon="-1.50548">
        <ele>76</ele>
        <time>2026-02-23T05:37:33.000Z</time>
      </trkpt>
      <trkpt lat="43.33599" lon="-1.50474">
        <ele>76</ele>
        <time>2026-02-23T05:37:43.000Z</time>
      </trkpt>
      <trkpt lat="43.33579" lon="-1.50425">
        <ele>74</ele>
        <time>2026-02-23T05:37:50.000Z</time>
      </trkpt>
      <trkpt lat="43.33551" lon="-1.50375">
        <ele>76</ele>
        <time>2026-02-23T05:37:58.000Z</time>
      </trkpt>
      <trkpt lat="43.33498" lon="-1.50311">
        <ele>75</ele>
        <time>2026-02-23T05:38:11.000Z</time>
      </trkpt>
      <trkpt lat="43.33479" lon="-1.50283">
        <ele>76</ele>
        <time>2026-02-23T05:38:16.000Z</time>
      </trkpt>
      <trkpt lat="43.3346" lon="-1.50244">
        <ele>77</ele>
        <time>2026-02-23T05:38:22.000Z</time>
      </trkpt>
      <trkpt lat="43.33329" lon="-1.4987">
        <ele>89</ele>
        <time>2026-02-23T05:39:15.000Z</time>
      </trkpt>
      <trkpt lat="43.3332" lon="-1.49838">
        <ele>92</ele>
        <time>2026-02-23T05:39:20.000Z</time>
      </trkpt>
      <trkpt lat="43.33313" lon="-1.49796">
        <ele>93</ele>
        <time>2026-02-23T05:39:25.000Z</time>
      </trkpt>
      <trkpt lat="43.33312" lon="-1.49747">
        <ele>94</ele>
        <time>2026-02-23T05:39:32.000Z</time>
      </trkpt>
      <trkpt lat="43.33314" lon="-1.49693">
        <ele>96</ele>
        <time>2026-02-23T05:39:39.000Z</time>
      </trkpt>
      <trkpt lat="43.33336" lon="-1.49514">
        <ele>105</ele>
        <time>2026-02-23T05:40:02.000Z</time>
      </trkpt>
      <trkpt lat="43.33338" lon="-1.49433">
        <ele>104</ele>
        <time>2026-02-23T05:40:13.000Z</time>
      </trkpt>
      <trkpt lat="43.33337" lon="-1.49388">
        <ele>105</ele>
        <time>2026-02-23T05:40:19.000Z</time>
      </trkpt>
      <trkpt lat="43.33314" lon="-1.49049">
        <ele>120</ele>
        <time>2026-02-23T05:41:03.000Z</time>
      </trkpt>
      <trkpt lat="43.33309" lon="-1.49012">
        <ele>122</ele>
        <time>2026-02-23T05:41:08.000Z</time>
      </trkpt>
      <trkpt lat="43.33302" lon="-1.48981">
        <ele>124</ele>
        <time>2026-02-23T05:41:12.000Z</time>
      </trkpt>
      <trkpt lat="43.33295" lon="-1.48965">
        <ele>124</ele>
        <time>2026-02-23T05:41:14.000Z</time>
      </trkpt>
      <trkpt lat="43.33284" lon="-1.48952">
        <ele>125</ele>
        <time>2026-02-23T05:41:17.000Z</time>
      </trkpt>
      <trkpt lat="43.33277" lon="-1.4895">
        <ele>125</ele>
        <time>2026-02-23T05:41:18.000Z</time>
      </trkpt>
      <trkpt lat="43.33273" lon="-1.48944">
        <ele>125</ele>
        <time>2026-02-23T05:41:19.000Z</time>
      </trkpt>
      <trkpt lat="43.33273" lon="-1.48939">
        <ele>124</ele>
        <time>2026-02-23T05:41:20.000Z</time>
      </trkpt>
      <trkpt lat="43.3328" lon="-1.48912">
        <ele>123</ele>
        <time>2026-02-23T05:41:23.000Z</time>
      </trkpt>
      <trkpt lat="43.33285" lon="-1.48866">
        <ele>122</ele>
        <time>2026-02-23T05:41:29.000Z</time>
      </trkpt>
      <trkpt lat="43.33295" lon="-1.48832">
        <ele>122</ele>
        <time>2026-02-23T05:41:34.000Z</time>
      </trkpt>
      <trkpt lat="43.33319" lon="-1.48776">
        <ele>119</ele>
        <time>2026-02-23T05:41:43.000Z</time>
      </trkpt>
      <trkpt lat="43.33342" lon="-1.48739">
        <ele>117</ele>
        <time>2026-02-23T05:41:49.000Z</time>
      </trkpt>
      <trkpt lat="43.33404" lon="-1.48666">
        <ele>110</ele>
        <time>2026-02-23T05:42:03.000Z</time>
      </trkpt>
      <trkpt lat="43.33421" lon="-1.48634">
        <ele>110</ele>
        <time>2026-02-23T05:42:09.000Z</time>
      </trkpt>
      <trkpt lat="43.33433" lon="-1.48601">
        <ele>110</ele>
        <time>2026-02-23T05:42:13.000Z</time>
      </trkpt>
      <trkpt lat="43.33449" lon="-1.48502">
        <ele>106</ele>
        <time>2026-02-23T05:42:26.000Z</time>
      </trkpt>
      <trkpt lat="43.33462" lon="-1.48461">
        <ele>105</ele>
        <time>2026-02-23T05:42:32.000Z</time>
      </trkpt>
      <trkpt lat="43.33482" lon="-1.48415">
        <ele>102</ele>
        <time>2026-02-23T05:42:39.000Z</time>
      </trkpt>
      <trkpt lat="43.33536" lon="-1.48318">
        <ele>98</ele>
        <time>2026-02-23T05:42:55.000Z</time>
      </trkpt>
      <trkpt lat="43.3355" lon="-1.48289">
        <ele>98</ele>
        <time>2026-02-23T05:42:59.000Z</time>
      </trkpt>
      <trkpt lat="43.33558" lon="-1.48261">
        <ele>97</ele>
        <time>2026-02-23T05:43:03.000Z</time>
      </trkpt>
      <trkpt lat="43.33573" lon="-1.48192">
        <ele>94</ele>
        <time>2026-02-23T05:43:13.000Z</time>
      </trkpt>
      <trkpt lat="43.33599" lon="-1.47994">
        <ele>84</ele>
        <time>2026-02-23T05:43:39.000Z</time>
      </trkpt>
      <trkpt lat="43.33623" lon="-1.47825">
        <ele>74</ele>
        <time>2026-02-23T05:44:01.000Z</time>
      </trkpt>
      <trkpt lat="43.3363" lon="-1.47802">
        <ele>74</ele>
        <time>2026-02-23T05:44:04.000Z</time>
      </trkpt>
      <trkpt lat="43.33645" lon="-1.47772">
        <ele>72</ele>
        <time>2026-02-23T05:44:09.000Z</time>
      </trkpt>
      <trkpt lat="43.33662" lon="-1.47753">
        <ele>71</ele>
        <time>2026-02-23T05:44:13.000Z</time>
      </trkpt>
      <trkpt lat="43.33678" lon="-1.4774">
        <ele>70</ele>
        <time>2026-02-23T05:44:16.000Z</time>
      </trkpt>
      <trkpt lat="43.33696" lon="-1.47733">
        <ele>69</ele>
        <time>2026-02-23T05:44:19.000Z</time>
      </trkpt>
      <trkpt lat="43.33717" lon="-1.47729">
        <ele>68</ele>
        <time>2026-02-23T05:44:23.000Z</time>
      </trkpt>
      <trkpt lat="43.33747" lon="-1.47734">
        <ele>67</ele>
        <time>2026-02-23T05:44:29.000Z</time>
      </trkpt>
      <trkpt lat="43.33815" lon="-1.47753">
        <ele>66</ele>
        <time>2026-02-23T05:44:41.000Z</time>
      </trkpt>
      <trkpt lat="43.33845" lon="-1.47758">
        <ele>65</ele>
        <time>2026-02-23T05:44:46.000Z</time>
      </trkpt>
      <trkpt lat="43.33885" lon="-1.47757">
        <ele>65</ele>
        <time>2026-02-23T05:44:53.000Z</time>
      </trkpt>
      <trkpt lat="43.33921" lon="-1.47742">
        <ele>65</ele>
        <time>2026-02-23T05:45:00.000Z</time>
      </trkpt>
      <trkpt lat="43.33946" lon="-1.47725">
        <ele>67</ele>
        <time>2026-02-23T05:45:05.000Z</time>
      </trkpt>
      <trkpt lat="43.33969" lon="-1.47701">
        <ele>68</ele>
        <time>2026-02-23T05:45:10.000Z</time>
      </trkpt>
      <trkpt lat="43.3401" lon="-1.47651">
        <ele>67</ele>
        <time>2026-02-23T05:45:20.000Z</time>
      </trkpt>
      <trkpt lat="43.34041" lon="-1.47607">
        <ele>68</ele>
        <time>2026-02-23T05:45:28.000Z</time>
      </trkpt>
      <trkpt lat="43.34071" lon="-1.47543">
        <ele>66</ele>
        <time>2026-02-23T05:45:38.000Z</time>
      </trkpt>
      <trkpt lat="43.34069" lon="-1.47537">
        <ele>66</ele>
        <time>2026-02-23T05:45:39.000Z</time>
      </trkpt>
      <trkpt lat="43.34068" lon="-1.4753">
        <ele>66</ele>
        <time>2026-02-23T05:45:40.000Z</time>
      </trkpt>
      <trkpt lat="43.34073" lon="-1.47521">
        <ele>65</ele>
        <time>2026-02-23T05:45:41.000Z</time>
      </trkpt>
      <trkpt lat="43.34079" lon="-1.47519">
        <ele>65</ele>
        <time>2026-02-23T05:45:42.000Z</time>
      </trkpt>
      <trkpt lat="43.34083" lon="-1.47484">
        <ele>63</ele>
        <time>2026-02-23T05:45:47.000Z</time>
      </trkpt>
      <trkpt lat="43.34084" lon="-1.47441">
        <ele>64</ele>
        <time>2026-02-23T05:45:52.000Z</time>
      </trkpt>
      <trkpt lat="43.34079" lon="-1.47422">
        <ele>66</ele>
        <time>2026-02-23T05:45:55.000Z</time>
      </trkpt>
      <trkpt lat="43.34069" lon="-1.47329">
        <ele>67</ele>
        <time>2026-02-23T05:46:07.000Z</time>
      </trkpt>
      <trkpt lat="43.34071" lon="-1.47314">
        <ele>66</ele>
        <time>2026-02-23T05:46:09.000Z</time>
      </trkpt>
      <trkpt lat="43.34068" lon="-1.473">
        <ele>66</ele>
        <time>2026-02-23T05:46:11.000Z</time>
      </trkpt>
      <trkpt lat="43.34063" lon="-1.4729">
        <ele>66</ele>
        <time>2026-02-23T05:46:13.000Z</time>
      </trkpt>
      <trkpt lat="43.34062" lon="-1.4728">
        <ele>66</ele>
        <time>2026-02-23T05:46:14.000Z</time>
      </trkpt>
      <trkpt lat="43.34064" lon="-1.47274">
        <ele>65</ele>
        <time>2026-02-23T05:46:15.000Z</time>
      </trkpt>
      <trkpt lat="43.34068" lon="-1.47268">
        <ele>65</ele>
        <time>2026-02-23T05:46:16.000Z</time>
      </trkpt>
      <trkpt lat="43.34048" lon="-1.47218">
        <ele>65</ele>
        <time>2026-02-23T05:46:23.000Z</time>
      </trkpt>
      <trkpt lat="43.33978" lon="-1.47069">
        <ele>64</ele>
        <time>2026-02-23T05:46:46.000Z</time>
      </trkpt>
      <trkpt lat="43.33956" lon="-1.47037">
        <ele>63</ele>
        <time>2026-02-23T05:46:52.000Z</time>
      </trkpt>
      <trkpt lat="43.33897" lon="-1.46973">
        <ele>64</ele>
        <time>2026-02-23T05:47:05.000Z</time>
      </trkpt>
      <trkpt lat="43.33876" lon="-1.46955">
        <ele>65</ele>
        <time>2026-02-23T05:47:10.000Z</time>
      </trkpt>
      <trkpt lat="43.33788" lon="-1.46898">
        <ele>67</ele>
        <time>2026-02-23T05:47:27.000Z</time>
      </trkpt>
      <trkpt lat="43.33764" lon="-1.46877">
        <ele>67</ele>
        <time>2026-02-23T05:47:32.000Z</time>
      </trkpt>
      <trkpt lat="43.33745" lon="-1.46855">
        <ele>67</ele>
        <time>2026-02-23T05:47:36.000Z</time>
      </trkpt>
      <trkpt lat="43.33724" lon="-1.46816">
        <ele>67</ele>
        <time>2026-02-23T05:47:43.000Z</time>
      </trkpt>
      <trkpt lat="43.33713" lon="-1.46788">
        <ele>67</ele>
        <time>2026-02-23T05:47:47.000Z</time>
      </trkpt>
      <trkpt lat="43.33702" lon="-1.46745">
        <ele>66</ele>
        <time>2026-02-23T05:47:53.000Z</time>
      </trkpt>
      <trkpt lat="43.33697" lon="-1.46717">
        <ele>66</ele>
        <time>2026-02-23T05:47:56.000Z</time>
      </trkpt>
      <trkpt lat="43.33695" lon="-1.46682">
        <ele>65</ele>
        <time>2026-02-23T05:48:01.000Z</time>
      </trkpt>
      <trkpt lat="43.33699" lon="-1.46592">
        <ele>64</ele>
        <time>2026-02-23T05:48:13.000Z</time>
      </trkpt>
      <trkpt lat="43.33698" lon="-1.46555">
        <ele>64</ele>
        <time>2026-02-23T05:48:17.000Z</time>
      </trkpt>
      <trkpt lat="43.33649" lon="-1.46259">
        <ele>56</ele>
        <time>2026-02-23T05:48:57.000Z</time>
      </trkpt>
      <trkpt lat="43.33643" lon="-1.46236">
        <ele>56</ele>
        <time>2026-02-23T05:49:00.000Z</time>
      </trkpt>
      <trkpt lat="43.33643" lon="-1.46236">
        <ele>56</ele>
        <time>2026-02-23T05:49:00.000Z</time>
      </trkpt>
      <trkpt lat="43.33637" lon="-1.46212">
        <ele>56</ele>
        <time>2026-02-23T05:49:03.000Z</time>
      </trkpt>
      <trkpt lat="43.33623" lon="-1.46179">
        <ele>56</ele>
        <time>2026-02-23T05:49:08.000Z</time>
      </trkpt>
      <trkpt lat="43.33583" lon="-1.46106">
        <ele>57</ele>
        <time>2026-02-23T05:49:20.000Z</time>
      </trkpt>
      <trkpt lat="43.3356" lon="-1.46033">
        <ele>57</ele>
        <time>2026-02-23T05:49:30.000Z</time>
      </trkpt>
      <trkpt lat="43.33548" lon="-1.45974">
        <ele>60</ele>
        <time>2026-02-23T05:49:38.000Z</time>
      </trkpt>
      <trkpt lat="43.33546" lon="-1.45945">
        <ele>63</ele>
        <time>2026-02-23T05:49:42.000Z</time>
      </trkpt>
      <trkpt lat="43.33548" lon="-1.45918">
        <ele>65</ele>
        <time>2026-02-23T05:49:45.000Z</time>
      </trkpt>
      <trkpt lat="43.33552" lon="-1.45905">
        <ele>66</ele>
        <time>2026-02-23T05:49:47.000Z</time>
      </trkpt>
      <trkpt lat="43.33563" lon="-1.4588">
        <ele>67</ele>
        <time>2026-02-23T05:49:51.000Z</time>
      </trkpt>
      <trkpt lat="43.33753" lon="-1.45595">
        <ele>62</ele>
        <time>2026-02-23T05:50:41.000Z</time>
      </trkpt>
      <trkpt lat="43.33794" lon="-1.4552">
        <ele>62</ele>
        <time>2026-02-23T05:50:53.000Z</time>
      </trkpt>
      <trkpt lat="43.33809" lon="-1.45477">
        <ele>61</ele>
        <time>2026-02-23T05:50:59.000Z</time>
      </trkpt>
      <trkpt lat="43.33826" lon="-1.45431">
        <ele>60</ele>
        <time>2026-02-23T05:51:06.000Z</time>
      </trkpt>
      <trkpt lat="43.33844" lon="-1.45396">
        <ele>59</ele>
        <time>2026-02-23T05:51:12.000Z</time>
      </trkpt>
      <trkpt lat="43.33865" lon="-1.45371">
        <ele>60</ele>
        <time>2026-02-23T05:51:16.000Z</time>
      </trkpt>
      <trkpt lat="43.33927" lon="-1.45306">
        <ele>61</ele>
        <time>2026-02-23T05:51:30.000Z</time>
      </trkpt>
      <trkpt lat="43.33956" lon="-1.45278">
        <ele>60</ele>
        <time>2026-02-23T05:51:37.000Z</time>
      </trkpt>
      <trkpt lat="43.3397" lon="-1.45259">
        <ele>60</ele>
        <time>2026-02-23T05:51:40.000Z</time>
      </trkpt>
      <trkpt lat="43.3398" lon="-1.45239">
        <ele>60</ele>
        <time>2026-02-23T05:51:43.000Z</time>
      </trkpt>
      <trkpt lat="43.33984" lon="-1.45223">
        <ele>60</ele>
        <time>2026-02-23T05:51:45.000Z</time>
      </trkpt>
      <trkpt lat="43.33987" lon="-1.45203">
        <ele>60</ele>
        <time>2026-02-23T05:51:48.000Z</time>
      </trkpt>
      <trkpt lat="43.3399" lon="-1.45194">
        <ele>60</ele>
        <time>2026-02-23T05:51:49.000Z</time>
      </trkpt>
      <trkpt lat="43.33992" lon="-1.45165">
        <ele>61</ele>
        <time>2026-02-23T05:51:53.000Z</time>
      </trkpt>
      <trkpt lat="43.3399" lon="-1.45161">
        <ele>61</ele>
        <time>2026-02-23T05:51:54.000Z</time>
      </trkpt>
      <trkpt lat="43.33989" lon="-1.45151">
        <ele>62</ele>
        <time>2026-02-23T05:51:55.000Z</time>
      </trkpt>
      <trkpt lat="43.3399" lon="-1.45146">
        <ele>62</ele>
        <time>2026-02-23T05:51:56.000Z</time>
      </trkpt>
      <trkpt lat="43.33985" lon="-1.45121">
        <ele>63</ele>
        <time>2026-02-23T05:51:59.000Z</time>
      </trkpt>
      <trkpt lat="43.33862" lon="-1.44914">
        <ele>72</ele>
        <time>2026-02-23T05:52:34.000Z</time>
      </trkpt>
      <trkpt lat="43.33847" lon="-1.44878">
        <ele>73</ele>
        <time>2026-02-23T05:52:39.000Z</time>
      </trkpt>
      <trkpt lat="43.33841" lon="-1.44857">
        <ele>73</ele>
        <time>2026-02-23T05:52:42.000Z</time>
      </trkpt>
      <trkpt lat="43.33839" lon="-1.44829">
        <ele>73</ele>
        <time>2026-02-23T05:52:46.000Z</time>
      </trkpt>
      <trkpt lat="43.33837" lon="-1.44703">
        <ele>78</ele>
        <time>2026-02-23T05:53:02.000Z</time>
      </trkpt>
      <trkpt lat="43.33829" lon="-1.44675">
        <ele>79</ele>
        <time>2026-02-23T05:53:06.000Z</time>
      </trkpt>
      <trkpt lat="43.33824" lon="-1.44665">
        <ele>79</ele>
        <time>2026-02-23T05:53:07.000Z</time>
      </trkpt>
      <trkpt lat="43.33824" lon="-1.44657">
        <ele>79</ele>
        <time>2026-02-23T05:53:08.000Z</time>
      </trkpt>
      <trkpt lat="43.33828" lon="-1.44651">
        <ele>79</ele>
        <time>2026-02-23T05:53:10.000Z</time>
      </trkpt>
      <trkpt lat="43.33832" lon="-1.44648">
        <ele>79</ele>
        <time>2026-02-23T05:53:10.000Z</time>
      </trkpt>
      <trkpt lat="43.33839" lon="-1.44624">
        <ele>79</ele>
        <time>2026-02-23T05:53:14.000Z</time>
      </trkpt>
      <trkpt lat="43.33843" lon="-1.44602">
        <ele>78</ele>
        <time>2026-02-23T05:53:17.000Z</time>
      </trkpt>
      <trkpt lat="43.3385" lon="-1.4458">
        <ele>78</ele>
        <time>2026-02-23T05:53:20.000Z</time>
      </trkpt>
      <trkpt lat="43.33864" lon="-1.44556">
        <ele>75</ele>
        <time>2026-02-23T05:53:24.000Z</time>
      </trkpt>
      <trkpt lat="43.33877" lon="-1.44545">
        <ele>73</ele>
        <time>2026-02-23T05:53:26.000Z</time>
      </trkpt>
      <trkpt lat="43.33928" lon="-1.44514">
        <ele>67</ele>
        <time>2026-02-23T05:53:36.000Z</time>
      </trkpt>
      <trkpt lat="43.33937" lon="-1.44503">
        <ele>66</ele>
        <time>2026-02-23T05:53:38.000Z</time>
      </trkpt>
      <trkpt lat="43.33946" lon="-1.44486">
        <ele>65</ele>
        <time>2026-02-23T05:53:41.000Z</time>
      </trkpt>
      <trkpt lat="43.33967" lon="-1.44417">
        <ele>61</ele>
        <time>2026-02-23T05:53:51.000Z</time>
      </trkpt>
      <trkpt lat="43.33979" lon="-1.44395">
        <ele>62</ele>
        <time>2026-02-23T05:53:54.000Z</time>
      </trkpt>
      <trkpt lat="43.34003" lon="-1.44369">
        <ele>62</ele>
        <time>2026-02-23T05:54:00.000Z</time>
      </trkpt>
      <trkpt lat="43.34022" lon="-1.44356">
        <ele>62</ele>
        <time>2026-02-23T05:54:04.000Z</time>
      </trkpt>
      <trkpt lat="43.34072" lon="-1.44336">
        <ele>63</ele>
        <time>2026-02-23T05:54:13.000Z</time>
      </trkpt>
      <trkpt lat="43.3407" lon="-1.44328">
        <ele>63</ele>
        <time>2026-02-23T05:54:14.000Z</time>
      </trkpt>
      <trkpt lat="43.34053" lon="-1.44312">
        <ele>64</ele>
        <time>2026-02-23T05:54:18.000Z</time>
      </trkpt>
      <trkpt lat="43.34044" lon="-1.44307">
        <ele>65</ele>
        <time>2026-02-23T05:54:19.000Z</time>
      </trkpt>
      <trkpt lat="43.34007" lon="-1.44316">
        <ele>64</ele>
        <time>2026-02-23T05:54:26.000Z</time>
      </trkpt>
      <trkpt lat="43.33916" lon="-1.44299">
        <ele>65</ele>
        <time>2026-02-23T05:54:42.000Z</time>
      </trkpt>
      <trkpt lat="43.33906" lon="-1.44287">
        <ele>66</ele>
        <time>2026-02-23T05:54:45.000Z</time>
      </trkpt>
      <trkpt lat="43.33884" lon="-1.44253">
        <ele>69</ele>
        <time>2026-02-23T05:54:51.000Z</time>
      </trkpt>
      <trkpt lat="43.33853" lon="-1.44238">
        <ele>73</ele>
        <time>2026-02-23T05:54:57.000Z</time>
      </trkpt>
      <trkpt lat="43.33827" lon="-1.44209">
        <ele>77</ele>
        <time>2026-02-23T05:55:02.000Z</time>
      </trkpt>
      <trkpt lat="43.33801" lon="-1.44169">
        <ele>81</ele>
        <time>2026-02-23T05:55:09.000Z</time>
      </trkpt>
      <trkpt lat="43.33779" lon="-1.44119">
        <ele>87</ele>
        <time>2026-02-23T05:55:17.000Z</time>
      </trkpt>
      <trkpt lat="43.33771" lon="-1.44084">
        <ele>90</ele>
        <time>2026-02-23T05:55:22.000Z</time>
      </trkpt>
      <trkpt lat="43.33757" lon="-1.44053">
        <ele>93</ele>
        <time>2026-02-23T05:55:26.000Z</time>
      </trkpt>
      <trkpt lat="43.33676" lon="-1.43926">
        <ele>108</ele>
        <time>2026-02-23T05:55:48.000Z</time>
      </trkpt>
      <trkpt lat="43.33606" lon="-1.43783">
        <ele>122</ele>
        <time>2026-02-23T05:56:11.000Z</time>
      </trkpt>
      <trkpt lat="43.33573" lon="-1.437">
        <ele>134</ele>
        <time>2026-02-23T05:56:23.000Z</time>
      </trkpt>
      <trkpt lat="43.33545" lon="-1.4365">
        <ele>140</ele>
        <time>2026-02-23T05:56:31.000Z</time>
      </trkpt>
      <trkpt lat="43.33527" lon="-1.43645">
        <ele>141</ele>
        <time>2026-02-23T05:56:34.000Z</time>
      </trkpt>
      <trkpt lat="43.33506" lon="-1.43644">
        <ele>143</ele>
        <time>2026-02-23T05:56:38.000Z</time>
      </trkpt>
      <trkpt lat="43.33453" lon="-1.4368">
        <ele>150</ele>
        <time>2026-02-23T05:56:49.000Z</time>
      </trkpt>
      <trkpt lat="43.33429" lon="-1.43687">
        <ele>154</ele>
        <time>2026-02-23T05:56:53.000Z</time>
      </trkpt>
      <trkpt lat="43.3335" lon="-1.43702">
        <ele>161</ele>
        <time>2026-02-23T05:57:07.000Z</time>
      </trkpt>
      <trkpt lat="43.33327" lon="-1.43697">
        <ele>165</ele>
        <time>2026-02-23T05:57:11.000Z</time>
      </trkpt>
      <trkpt lat="43.33316" lon="-1.43677">
        <ele>170</ele>
        <time>2026-02-23T05:57:15.000Z</time>
      </trkpt>
      <trkpt lat="43.33284" lon="-1.43528">
        <ele>187</ele>
        <time>2026-02-23T05:57:35.000Z</time>
      </trkpt>
      <trkpt lat="43.33289" lon="-1.43498">
        <ele>188</ele>
        <time>2026-02-23T05:57:39.000Z</time>
      </trkpt>
      <trkpt lat="43.33307" lon="-1.43439">
        <ele>189</ele>
        <time>2026-02-23T05:57:47.000Z</time>
      </trkpt>
      <trkpt lat="43.33333" lon="-1.43378">
        <ele>193</ele>
        <time>2026-02-23T05:57:56.000Z</time>
      </trkpt>
      <trkpt lat="43.33364" lon="-1.43364">
        <ele>189</ele>
        <time>2026-02-23T05:58:02.000Z</time>
      </trkpt>
      <trkpt lat="43.33364" lon="-1.43307">
        <ele>193</ele>
        <time>2026-02-23T05:58:09.000Z</time>
      </trkpt>
      <trkpt lat="43.33362" lon="-1.43275">
        <ele>194</ele>
        <time>2026-02-23T05:58:13.000Z</time>
      </trkpt>
      <trkpt lat="43.33345" lon="-1.43178">
        <ele>199</ele>
        <time>2026-02-23T05:58:26.000Z</time>
      </trkpt>
      <trkpt lat="43.33335" lon="-1.43098">
        <ele>198</ele>
        <time>2026-02-23T05:58:37.000Z</time>
      </trkpt>
      <trkpt lat="43.33305" lon="-1.43008">
        <ele>191</ele>
        <time>2026-02-23T05:58:50.000Z</time>
      </trkpt>
      <trkpt lat="43.33295" lon="-1.42972">
        <ele>188</ele>
        <time>2026-02-23T05:58:55.000Z</time>
      </trkpt>
      <trkpt lat="43.33287" lon="-1.42923">
        <ele>184</ele>
        <time>2026-02-23T05:59:01.000Z</time>
      </trkpt>
      <trkpt lat="43.33287" lon="-1.42902">
        <ele>181</ele>
        <time>2026-02-23T05:59:04.000Z</time>
      </trkpt>
      <trkpt lat="43.33299" lon="-1.42857">
        <ele>175</ele>
        <time>2026-02-23T05:59:10.000Z</time>
      </trkpt>
      <trkpt lat="43.33339" lon="-1.42815">
        <ele>174</ele>
        <time>2026-02-23T05:59:19.000Z</time>
      </trkpt>
      <trkpt lat="43.33349" lon="-1.42795">
        <ele>172</ele>
        <time>2026-02-23T05:59:22.000Z</time>
      </trkpt>
      <trkpt lat="43.3337" lon="-1.42766">
        <ele>171</ele>
        <time>2026-02-23T05:59:27.000Z</time>
      </trkpt>
      <trkpt lat="43.33391" lon="-1.42752">
        <ele>172</ele>
        <time>2026-02-23T05:59:32.000Z</time>
      </trkpt>
      <trkpt lat="43.33401" lon="-1.42739">
        <ele>173</ele>
        <time>2026-02-23T05:59:34.000Z</time>
      </trkpt>
      <trkpt lat="43.3341" lon="-1.42716">
        <ele>174</ele>
        <time>2026-02-23T05:59:37.000Z</time>
      </trkpt>
      <trkpt lat="43.33424" lon="-1.42665">
        <ele>176</ele>
        <time>2026-02-23T05:59:44.000Z</time>
      </trkpt>
      <trkpt lat="43.33426" lon="-1.4265">
        <ele>176</ele>
        <time>2026-02-23T05:59:46.000Z</time>
      </trkpt>
      <trkpt lat="43.3351" lon="-1.42624">
        <ele>184</ele>
        <time>2026-02-23T06:00:02.000Z</time>
      </trkpt>
      <trkpt lat="43.33555" lon="-1.42522">
        <ele>182</ele>
        <time>2026-02-23T06:00:17.000Z</time>
      </trkpt>
      <trkpt lat="43.33579" lon="-1.42479">
        <ele>181</ele>
        <time>2026-02-23T06:00:24.000Z</time>
      </trkpt>
      <trkpt lat="43.33584" lon="-1.42463">
        <ele>180</ele>
        <time>2026-02-23T06:00:26.000Z</time>
      </trkpt>
      <trkpt lat="43.3359" lon="-1.42419">
        <ele>177</ele>
        <time>2026-02-23T06:00:32.000Z</time>
      </trkpt>
      <trkpt lat="43.3358" lon="-1.4237">
        <ele>176</ele>
        <time>2026-02-23T06:00:39.000Z</time>
      </trkpt>
      <trkpt lat="43.3358" lon="-1.42342">
        <ele>175</ele>
        <time>2026-02-23T06:00:42.000Z</time>
      </trkpt>
      <trkpt lat="43.33577" lon="-1.42301">
        <ele>173</ele>
        <time>2026-02-23T06:00:48.000Z</time>
      </trkpt>
      <trkpt lat="43.33582" lon="-1.42233">
        <ele>172</ele>
        <time>2026-02-23T06:00:57.000Z</time>
      </trkpt>
      <trkpt lat="43.33582" lon="-1.4219">
        <ele>171</ele>
        <time>2026-02-23T06:01:02.000Z</time>
      </trkpt>
      <trkpt lat="43.33573" lon="-1.4213">
        <ele>169</ele>
        <time>2026-02-23T06:01:10.000Z</time>
      </trkpt>
      <trkpt lat="43.33571" lon="-1.4203">
        <ele>165</ele>
        <time>2026-02-23T06:01:23.000Z</time>
      </trkpt>
      <trkpt lat="43.33598" lon="-1.41857">
        <ele>156</ele>
        <time>2026-02-23T06:01:46.000Z</time>
      </trkpt>
      <trkpt lat="43.33622" lon="-1.41741">
        <ele>146</ele>
        <time>2026-02-23T06:02:02.000Z</time>
      </trkpt>
      <trkpt lat="43.33619" lon="-1.41721">
        <ele>142</ele>
        <time>2026-02-23T06:02:04.000Z</time>
      </trkpt>
      <trkpt lat="43.33605" lon="-1.4171">
        <ele>138</ele>
        <time>2026-02-23T06:02:07.000Z</time>
      </trkpt>
      <trkpt lat="43.335" lon="-1.41733">
        <ele>124</ele>
        <time>2026-02-23T06:02:26.000Z</time>
      </trkpt>
      <trkpt lat="43.33489" lon="-1.41727">
        <ele>121</ele>
        <time>2026-02-23T06:02:28.000Z</time>
      </trkpt>
      <trkpt lat="43.33483" lon="-1.41715">
        <ele>118</ele>
        <time>2026-02-23T06:02:30.000Z</time>
      </trkpt>
      <trkpt lat="43.33485" lon="-1.4159">
        <ele>107</ele>
        <time>2026-02-23T06:02:46.000Z</time>
      </trkpt>
      <trkpt lat="43.33481" lon="-1.41574">
        <ele>106</ele>
        <time>2026-02-23T06:02:48.000Z</time>
      </trkpt>
      <trkpt lat="43.33443" lon="-1.41503">
        <ele>99</ele>
        <time>2026-02-23T06:03:00.000Z</time>
      </trkpt>
      <trkpt lat="43.33403" lon="-1.41417">
        <ele>93</ele>
        <time>2026-02-23T06:03:13.000Z</time>
      </trkpt>
      <trkpt lat="43.33356" lon="-1.413">
        <ele>93</ele>
        <time>2026-02-23T06:03:30.000Z</time>
      </trkpt>
      <trkpt lat="43.33345" lon="-1.41281">
        <ele>93</ele>
        <time>2026-02-23T06:03:33.000Z</time>
      </trkpt>
      <trkpt lat="43.33295" lon="-1.41213">
        <ele>93</ele>
        <time>2026-02-23T06:03:46.000Z</time>
      </trkpt>
      <trkpt lat="43.33276" lon="-1.41193">
        <ele>93</ele>
        <time>2026-02-23T06:03:50.000Z</time>
      </trkpt>
      <trkpt lat="43.33281" lon="-1.41252">
        <ele>94</ele>
        <time>2026-02-23T06:03:58.000Z</time>
      </trkpt>
      <trkpt lat="43.33273" lon="-1.41277">
        <ele>93</ele>
        <time>2026-02-23T06:04:01.000Z</time>
      </trkpt>
      <trkpt lat="43.33237" lon="-1.41327">
        <ele>89</ele>
        <time>2026-02-23T06:04:11.000Z</time>
      </trkpt>
      <trkpt lat="43.33232" lon="-1.41344">
        <ele>88</ele>
        <time>2026-02-23T06:04:13.000Z</time>
      </trkpt>
      <trkpt lat="43.33232" lon="-1.41344">
        <ele>88</ele>
        <time>2026-02-23T06:04:13.000Z</time>
      </trkpt>
      <trkpt lat="43.33237" lon="-1.41327">
        <ele>89</ele>
        <time>2026-02-23T06:04:15.000Z</time>
      </trkpt>
      <trkpt lat="43.33273" lon="-1.41277">
        <ele>93</ele>
        <time>2026-02-23T06:04:24.000Z</time>
      </trkpt>
      <trkpt lat="43.33281" lon="-1.41252">
        <ele>94</ele>
        <time>2026-02-23T06:04:28.000Z</time>
      </trkpt>
      <trkpt lat="43.33266" lon="-1.4109">
        <ele>90</ele>
        <time>2026-02-23T06:04:49.000Z</time>
      </trkpt>
      <trkpt lat="43.33265" lon="-1.41034">
        <ele>89</ele>
        <time>2026-02-23T06:04:56.000Z</time>
      </trkpt>
      <trkpt lat="43.33263" lon="-1.40961">
        <ele>87</ele>
        <time>2026-02-23T06:05:06.000Z</time>
      </trkpt>
      <trkpt lat="43.33264" lon="-1.40931">
        <ele>87</ele>
        <time>2026-02-23T06:05:10.000Z</time>
      </trkpt>
      <trkpt lat="43.33276" lon="-1.40868">
        <ele>84</ele>
        <time>2026-02-23T06:05:18.000Z</time>
      </trkpt>
      <trkpt lat="43.33294" lon="-1.40858">
        <ele>82</ele>
        <time>2026-02-23T06:05:22.000Z</time>
      </trkpt>
      <trkpt lat="43.33323" lon="-1.40802">
        <ele>80</ele>
        <time>2026-02-23T06:05:30.000Z</time>
      </trkpt>
      <trkpt lat="43.33365" lon="-1.40735">
        <ele>80</ele>
        <time>2026-02-23T06:05:42.000Z</time>
      </trkpt>
      <trkpt lat="43.33382" lon="-1.40719">
        <ele>80</ele>
        <time>2026-02-23T06:05:46.000Z</time>
      </trkpt>
      <trkpt lat="43.33419" lon="-1.40691">
        <ele>80</ele>
        <time>2026-02-23T06:05:53.000Z</time>
      </trkpt>
      <trkpt lat="43.33462" lon="-1.40677">
        <ele>80</ele>
        <time>2026-02-23T06:06:01.000Z</time>
      </trkpt>
      <trkpt lat="43.33497" lon="-1.40675">
        <ele>80</ele>
        <time>2026-02-23T06:06:07.000Z</time>
      </trkpt>
      <trkpt lat="43.33512" lon="-1.40669">
        <ele>80</ele>
        <time>2026-02-23T06:06:10.000Z</time>
      </trkpt>
      <trkpt lat="43.33528" lon="-1.40661">
        <ele>81</ele>
        <time>2026-02-23T06:06:13.000Z</time>
      </trkpt>
      <trkpt lat="43.33544" lon="-1.40644">
        <ele>81</ele>
        <time>2026-02-23T06:06:17.000Z</time>
      </trkpt>
      <trkpt lat="43.33593" lon="-1.40586">
        <ele>81</ele>
        <time>2026-02-23T06:06:28.000Z</time>
      </trkpt>
      <trkpt lat="43.33605" lon="-1.40542">
        <ele>82</ele>
        <time>2026-02-23T06:06:34.000Z</time>
      </trkpt>
      <trkpt lat="43.33632" lon="-1.40374">
        <ele>81</ele>
        <time>2026-02-23T06:06:56.000Z</time>
      </trkpt>
      <trkpt lat="43.33626" lon="-1.40366">
        <ele>81</ele>
        <time>2026-02-23T06:06:58.000Z</time>
      </trkpt>
      <trkpt lat="43.33624" lon="-1.40353">
        <ele>81</ele>
        <time>2026-02-23T06:07:00.000Z</time>
      </trkpt>
      <trkpt lat="43.33626" lon="-1.40341">
        <ele>81</ele>
        <time>2026-02-23T06:07:01.000Z</time>
      </trkpt>
      <trkpt lat="43.33634" lon="-1.40331">
        <ele>82</ele>
        <time>2026-02-23T06:07:03.000Z</time>
      </trkpt>
      <trkpt lat="43.33644" lon="-1.40329">
        <ele>82</ele>
        <time>2026-02-23T06:07:05.000Z</time>
      </trkpt>
      <trkpt lat="43.33652" lon="-1.40334">
        <ele>82</ele>
        <time>2026-02-23T06:07:06.000Z</time>
      </trkpt>
      <trkpt lat="43.33657" lon="-1.40341">
        <ele>82</ele>
        <time>2026-02-23T06:07:08.000Z</time>
      </trkpt>
      <trkpt lat="43.33659" lon="-1.40352">
        <ele>82</ele>
        <time>2026-02-23T06:07:09.000Z</time>
      </trkpt>
      <trkpt lat="43.33738" lon="-1.40345">
        <ele>82</ele>
        <time>2026-02-23T06:07:23.000Z</time>
      </trkpt>
      <trkpt lat="43.33783" lon="-1.40333">
        <ele>81</ele>
        <time>2026-02-23T06:07:31.000Z</time>
      </trkpt>
      <trkpt lat="43.3381" lon="-1.4032">
        <ele>80</ele>
        <time>2026-02-23T06:07:37.000Z</time>
      </trkpt>
      <trkpt lat="43.33873" lon="-1.40272">
        <ele>80</ele>
        <time>2026-02-23T06:07:49.000Z</time>
      </trkpt>
      <trkpt lat="43.33935" lon="-1.40228">
        <ele>79</ele>
        <time>2026-02-23T06:08:02.000Z</time>
      </trkpt>
      <trkpt lat="43.3401" lon="-1.40188">
        <ele>79</ele>
        <time>2026-02-23T06:08:16.000Z</time>
      </trkpt>
      <trkpt lat="43.34056" lon="-1.40182">
        <ele>82</ele>
        <time>2026-02-23T06:08:24.000Z</time>
      </trkpt>
      <trkpt lat="43.34088" lon="-1.40183">
        <ele>84</ele>
        <time>2026-02-23T06:08:30.000Z</time>
      </trkpt>
      <trkpt lat="43.3411" lon="-1.40189">
        <ele>85</ele>
        <time>2026-02-23T06:08:34.000Z</time>
      </trkpt>
      <trkpt lat="43.34141" lon="-1.40202">
        <ele>86</ele>
        <time>2026-02-23T06:08:40.000Z</time>
      </trkpt>
      <trkpt lat="43.34216" lon="-1.40242">
        <ele>87</ele>
        <time>2026-02-23T06:08:54.000Z</time>
      </trkpt>
      <trkpt lat="43.34258" lon="-1.4025">
        <ele>86</ele>
        <time>2026-02-23T06:09:02.000Z</time>
      </trkpt>
      <trkpt lat="43.34284" lon="-1.40246">
        <ele>86</ele>
        <time>2026-02-23T06:09:06.000Z</time>
      </trkpt>
      <trkpt lat="43.34396" lon="-1.4022">
        <ele>86</ele>
        <time>2026-02-23T06:09:26.000Z</time>
      </trkpt>
      <trkpt lat="43.34463" lon="-1.40204">
        <ele>86</ele>
        <time>2026-02-23T06:09:39.000Z</time>
      </trkpt>
      <trkpt lat="43.34462" lon="-1.40189">
        <ele>86</ele>
        <time>2026-02-23T06:09:41.000Z</time>
      </trkpt>
      <trkpt lat="43.34465" lon="-1.40179">
        <ele>86</ele>
        <time>2026-02-23T06:09:42.000Z</time>
      </trkpt>
      <trkpt lat="43.3447" lon="-1.40171">
        <ele>86</ele>
        <time>2026-02-23T06:09:43.000Z</time>
      </trkpt>
      <trkpt lat="43.34477" lon="-1.40165">
        <ele>86</ele>
        <time>2026-02-23T06:09:45.000Z</time>
      </trkpt>
      <trkpt lat="43.34485" lon="-1.40162">
        <ele>86</ele>
        <time>2026-02-23T06:09:46.000Z</time>
      </trkpt>
      <trkpt lat="43.34493" lon="-1.40164">
        <ele>86</ele>
        <time>2026-02-23T06:09:48.000Z</time>
      </trkpt>
      <trkpt lat="43.34509" lon="-1.40133">
        <ele>88</ele>
        <time>2026-02-23T06:09:53.000Z</time>
      </trkpt>
      <trkpt lat="43.34519" lon="-1.40125">
        <ele>88</ele>
        <time>2026-02-23T06:09:55.000Z</time>
      </trkpt>
      <trkpt lat="43.34519" lon="-1.40125">
        <ele>88</ele>
        <time>2026-02-23T06:09:55.000Z</time>
      </trkpt>
      <trkpt lat="43.3464" lon="-1.40019">
        <ele>87</ele>
        <time>2026-02-23T06:10:20.000Z</time>
      </trkpt>
      <trkpt lat="43.34669" lon="-1.39996">
        <ele>86</ele>
        <time>2026-02-23T06:10:26.000Z</time>
      </trkpt>
      <trkpt lat="43.3476" lon="-1.39959">
        <ele>90</ele>
        <time>2026-02-23T06:10:43.000Z</time>
      </trkpt>
      <trkpt lat="43.34937" lon="-1.39916">
        <ele>99</ele>
        <time>2026-02-23T06:11:15.000Z</time>
      </trkpt>
      <trkpt lat="43.35188" lon="-1.3984">
        <ele>74</ele>
        <time>2026-02-23T06:12:01.000Z</time>
      </trkpt>
      <trkpt lat="43.35229" lon="-1.39831">
        <ele>70</ele>
        <time>2026-02-23T06:12:08.000Z</time>
      </trkpt>
      <trkpt lat="43.35261" lon="-1.39831">
        <ele>68</ele>
        <time>2026-02-23T06:12:14.000Z</time>
      </trkpt>
      <trkpt lat="43.35263" lon="-1.39825">
        <ele>68</ele>
        <time>2026-02-23T06:12:15.000Z</time>
      </trkpt>
      <trkpt lat="43.35271" lon="-1.3982">
        <ele>68</ele>
        <time>2026-02-23T06:12:16.000Z</time>
      </trkpt>
      <trkpt lat="43.35274" lon="-1.39821">
        <ele>68</ele>
        <time>2026-02-23T06:12:17.000Z</time>
      </trkpt>
      <trkpt lat="43.3528" lon="-1.39827">
        <ele>68</ele>
        <time>2026-02-23T06:12:18.000Z</time>
      </trkpt>
      <trkpt lat="43.35281" lon="-1.39838">
        <ele>68</ele>
        <time>2026-02-23T06:12:20.000Z</time>
      </trkpt>
      <trkpt lat="43.35298" lon="-1.39849">
        <ele>68</ele>
        <time>2026-02-23T06:12:23.000Z</time>
      </trkpt>
      <trkpt lat="43.35318" lon="-1.39849">
        <ele>68</ele>
        <time>2026-02-23T06:12:26.000Z</time>
      </trkpt>
      <trkpt lat="43.35397" lon="-1.39871">
        <ele>69</ele>
        <time>2026-02-23T06:12:41.000Z</time>
      </trkpt>
      <trkpt lat="43.35407" lon="-1.39872">
        <ele>69</ele>
        <time>2026-02-23T06:12:43.000Z</time>
      </trkpt>
      <trkpt lat="43.35441" lon="-1.39884">
        <ele>70</ele>
        <time>2026-02-23T06:12:49.000Z</time>
      </trkpt>
      <trkpt lat="43.3552" lon="-1.39904">
        <ele>73</ele>
        <time>2026-02-23T06:13:03.000Z</time>
      </trkpt>
      <trkpt lat="43.35608" lon="-1.39923">
        <ele>74</ele>
        <time>2026-02-23T06:13:19.000Z</time>
      </trkpt>
      <trkpt lat="43.35632" lon="-1.39926">
        <ele>73</ele>
        <time>2026-02-23T06:13:23.000Z</time>
      </trkpt>
      <trkpt lat="43.35647" lon="-1.39925">
        <ele>73</ele>
        <time>2026-02-23T06:13:26.000Z</time>
      </trkpt>
      <trkpt lat="43.35736" lon="-1.399">
        <ele>71</ele>
        <time>2026-02-23T06:13:42.000Z</time>
      </trkpt>
      <trkpt lat="43.35868" lon="-1.39876">
        <ele>71</ele>
        <time>2026-02-23T06:14:06.000Z</time>
      </trkpt>
      <trkpt lat="43.35889" lon="-1.39877">
        <ele>72</ele>
        <time>2026-02-23T06:14:10.000Z</time>
      </trkpt>
      <trkpt lat="43.35978" lon="-1.39893">
        <ele>71</ele>
        <time>2026-02-23T06:14:25.000Z</time>
      </trkpt>
      <trkpt lat="43.35981" lon="-1.39882">
        <ele>71</ele>
        <time>2026-02-23T06:14:27.000Z</time>
      </trkpt>
      <trkpt lat="43.35987" lon="-1.39879">
        <ele>70</ele>
        <time>2026-02-23T06:14:28.000Z</time>
      </trkpt>
      <trkpt lat="43.35993" lon="-1.39881">
        <ele>70</ele>
        <time>2026-02-23T06:14:29.000Z</time>
      </trkpt>
      <trkpt lat="43.35997" lon="-1.39888">
        <ele>70</ele>
        <time>2026-02-23T06:14:30.000Z</time>
      </trkpt>
      <trkpt lat="43.35998" lon="-1.39896">
        <ele>71</ele>
        <time>2026-02-23T06:14:31.000Z</time>
      </trkpt>
      <trkpt lat="43.35995" lon="-1.39903">
        <ele>71</ele>
        <time>2026-02-23T06:14:32.000Z</time>
      </trkpt>
      <trkpt lat="43.3602" lon="-1.39929">
        <ele>70</ele>
        <time>2026-02-23T06:14:38.000Z</time>
      </trkpt>
      <trkpt lat="43.36047" lon="-1.39978">
        <ele>70</ele>
        <time>2026-02-23T06:14:46.000Z</time>
      </trkpt>
      <trkpt lat="43.3605" lon="-1.39976">
        <ele>70</ele>
        <time>2026-02-23T06:14:47.000Z</time>
      </trkpt>
      <trkpt lat="43.36057" lon="-1.39978">
        <ele>70</ele>
        <time>2026-02-23T06:14:48.000Z</time>
      </trkpt>
      <trkpt lat="43.36059" lon="-1.39981">
        <ele>70</ele>
        <time>2026-02-23T06:14:48.000Z</time>
      </trkpt>
      <trkpt lat="43.36063" lon="-1.39978">
        <ele>70</ele>
        <time>2026-02-23T06:14:49.000Z</time>
      </trkpt>
      <trkpt lat="43.36063" lon="-1.39978">
        <ele>70</ele>
        <time>2026-02-23T06:14:49.000Z</time>
      </trkpt>
      <trkpt lat="43.36074" lon="-1.39957">
        <ele>69</ele>
        <time>2026-02-23T06:14:53.000Z</time>
      </trkpt>
      <trkpt lat="43.36101" lon="-1.39965">
        <ele>68</ele>
        <time>2026-02-23T06:14:57.000Z</time>
      </trkpt>
      <trkpt lat="43.36134" lon="-1.39978">
        <ele>65</ele>
        <time>2026-02-23T06:15:04.000Z</time>
      </trkpt>
      <trkpt lat="43.36148" lon="-1.39992">
        <ele>65</ele>
        <time>2026-02-23T06:15:07.000Z</time>
      </trkpt>
      <trkpt lat="43.36171" lon="-1.39979">
        <ele>62</ele>
        <time>2026-02-23T06:15:11.000Z</time>
      </trkpt>
      <trkpt lat="43.36197" lon="-1.39973">
        <ele>58</ele>
        <time>2026-02-23T06:15:16.000Z</time>
      </trkpt>
      <trkpt lat="43.36208" lon="-1.39965">
        <ele>55</ele>
        <time>2026-02-23T06:15:18.000Z</time>
      </trkpt>
      <trkpt lat="43.3622" lon="-1.39944">
        <ele>53</ele>
        <time>2026-02-23T06:15:21.000Z</time>
      </trkpt>
      <trkpt lat="43.36232" lon="-1.3993">
        <ele>50</ele>
        <time>2026-02-23T06:15:24.000Z</time>
      </trkpt>
      <trkpt lat="43.3624" lon="-1.39859">
        <ele>47</ele>
        <time>2026-02-23T06:15:34.000Z</time>
      </trkpt>
      <trkpt lat="43.36255" lon="-1.39841">
        <ele>43</ele>
        <time>2026-02-23T06:15:37.000Z</time>
      </trkpt>
      <trkpt lat="43.36275" lon="-1.39788">
        <ele>37</ele>
        <time>2026-02-23T06:15:45.000Z</time>
      </trkpt>
      <trkpt lat="43.3628" lon="-1.39746">
        <ele>35</ele>
        <time>2026-02-23T06:15:50.000Z</time>
      </trkpt>
      <trkpt lat="43.363" lon="-1.39763">
        <ele>28</ele>
        <time>2026-02-23T06:15:55.000Z</time>
      </trkpt>
      <trkpt lat="43.36325" lon="-1.39773">
        <ele>20</ele>
        <time>2026-02-23T06:15:59.000Z</time>
      </trkpt>
      <trkpt lat="43.36341" lon="-1.39776">
        <ele>17</ele>
        <time>2026-02-23T06:16:02.000Z</time>
      </trkpt>
      <trkpt lat="43.36365" lon="-1.39772">
        <ele>18</ele>
        <time>2026-02-23T06:16:06.000Z</time>
      </trkpt>
      <trkpt lat="43.36385" lon="-1.39768">
        <ele>18</ele>
        <time>2026-02-23T06:16:10.000Z</time>
      </trkpt>
      <trkpt lat="43.36502" lon="-1.39707">
        <ele>21</ele>
        <time>2026-02-23T06:16:32.000Z</time>
      </trkpt>
      <trkpt lat="43.36521" lon="-1.397">
        <ele>21</ele>
        <time>2026-02-23T06:16:36.000Z</time>
      </trkpt>
      <trkpt lat="43.36564" lon="-1.39768">
        <ele>21</ele>
        <time>2026-02-23T06:16:47.000Z</time>
      </trkpt>
      <trkpt lat="43.36715" lon="-1.40019">
        <ele>20</ele>
        <time>2026-02-23T06:17:29.000Z</time>
      </trkpt>
      <trkpt lat="43.3677" lon="-1.40064">
        <ele>20</ele>
        <time>2026-02-23T06:17:41.000Z</time>
      </trkpt>
      <trkpt lat="43.36785" lon="-1.40067">
        <ele>20</ele>
        <time>2026-02-23T06:17:44.000Z</time>
      </trkpt>
      <trkpt lat="43.36795" lon="-1.40065">
        <ele>21</ele>
        <time>2026-02-23T06:17:45.000Z</time>
      </trkpt>
      <trkpt lat="43.36809" lon="-1.40046">
        <ele>21</ele>
        <time>2026-02-23T06:17:49.000Z</time>
      </trkpt>
      <trkpt lat="43.36844" lon="-1.40099">
        <ele>21</ele>
        <time>2026-02-23T06:17:58.000Z</time>
      </trkpt>
      <trkpt lat="43.3689" lon="-1.40134">
        <ele>20</ele>
        <time>2026-02-23T06:18:07.000Z</time>
      </trkpt>
      <trkpt lat="43.36908" lon="-1.40144">
        <ele>20</ele>
        <time>2026-02-23T06:18:11.000Z</time>
      </trkpt>
      <trkpt lat="43.36917" lon="-1.40145">
        <ele>20</ele>
        <time>2026-02-23T06:18:13.000Z</time>
      </trkpt>
      <trkpt lat="43.36978" lon="-1.40107">
        <ele>22</ele>
        <time>2026-02-23T06:18:24.000Z</time>
      </trkpt>
      <trkpt lat="43.37007" lon="-1.40175">
        <ele>22</ele>
        <time>2026-02-23T06:18:35.000Z</time>
      </trkpt>
      <trkpt lat="43.37015" lon="-1.40189">
        <ele>22</ele>
        <time>2026-02-23T06:18:37.000Z</time>
      </trkpt>
      <trkpt lat="43.37033" lon="-1.40183">
        <ele>22</ele>
        <time>2026-02-23T06:18:40.000Z</time>
      </trkpt>
      <trkpt lat="43.37061" lon="-1.40162">
        <ele>22</ele>
        <time>2026-02-23T06:18:46.000Z</time>
      </trkpt>
      <trkpt lat="43.37069" lon="-1.40152">
        <ele>22</ele>
        <time>2026-02-23T06:18:48.000Z</time>
      </trkpt>
      <trkpt lat="43.37073" lon="-1.40138">
        <ele>22</ele>
        <time>2026-02-23T06:18:50.000Z</time>
      </trkpt>
      <trkpt lat="43.37086" lon="-1.40164">
        <ele>22</ele>
        <time>2026-02-23T06:18:54.000Z</time>
      </trkpt>
      <trkpt lat="43.37086" lon="-1.40164">
        <ele>22</ele>
        <time>2026-02-23T06:18:54.000Z</time>
      </trkpt>
      <trkpt lat="43.37102" lon="-1.40193">
        <ele>24</ele>
        <time>2026-02-23T06:18:59.000Z</time>
      </trkpt>
      <trkpt lat="43.37121" lon="-1.40238">
        <ele>25</ele>
        <time>2026-02-23T06:19:05.000Z</time>
      </trkpt>
      <trkpt lat="43.37147" lon="-1.40289">
        <ele>23</ele>
        <time>2026-02-23T06:19:13.000Z</time>
      </trkpt>
      <trkpt lat="43.37168" lon="-1.40348">
        <ele>19</ele>
        <time>2026-02-23T06:19:22.000Z</time>
      </trkpt>
      <trkpt lat="43.37196" lon="-1.40399">
        <ele>21</ele>
        <time>2026-02-23T06:19:30.000Z</time>
      </trkpt>
      <trkpt lat="43.37204" lon="-1.40422">
        <ele>21</ele>
        <time>2026-02-23T06:19:33.000Z</time>
      </trkpt>
      <trkpt lat="43.37227" lon="-1.40465">
        <ele>24</ele>
        <time>2026-02-23T06:19:40.000Z</time>
      </trkpt>
      <trkpt lat="43.37233" lon="-1.40483">
        <ele>25</ele>
        <time>2026-02-23T06:19:43.000Z</time>
      </trkpt>
      <trkpt lat="43.37244" lon="-1.40571">
        <ele>25</ele>
        <time>2026-02-23T06:19:54.000Z</time>
      </trkpt>
      <trkpt lat="43.37249" lon="-1.40691">
        <ele>21</ele>
        <time>2026-02-23T06:20:10.000Z</time>
      </trkpt>
      <trkpt lat="43.37245" lon="-1.4072">
        <ele>20</ele>
        <time>2026-02-23T06:20:14.000Z</time>
      </trkpt>
      <trkpt lat="43.37262" lon="-1.40792">
        <ele>20</ele>
        <time>2026-02-23T06:20:24.000Z</time>
      </trkpt>
      <trkpt lat="43.37282" lon="-1.40864">
        <ele>20</ele>
        <time>2026-02-23T06:20:34.000Z</time>
      </trkpt>
      <trkpt lat="43.37289" lon="-1.40884">
        <ele>21</ele>
        <time>2026-02-23T06:20:36.000Z</time>
      </trkpt>
      <trkpt lat="43.37318" lon="-1.4092">
        <ele>24</ele>
        <time>2026-02-23T06:20:43.000Z</time>
      </trkpt>
      <trkpt lat="43.37332" lon="-1.40956">
        <ele>24</ele>
        <time>2026-02-23T06:20:49.000Z</time>
      </trkpt>
      <trkpt lat="43.37354" lon="-1.40994">
        <ele>30</ele>
        <time>2026-02-23T06:20:55.000Z</time>
      </trkpt>
      <trkpt lat="43.37358" lon="-1.41045">
        <ele>28</ele>
        <time>2026-02-23T06:21:02.000Z</time>
      </trkpt>
      <trkpt lat="43.37365" lon="-1.41054">
        <ele>30</ele>
        <time>2026-02-23T06:21:03.000Z</time>
      </trkpt>
      <trkpt lat="43.3738" lon="-1.41086">
        <ele>33</ele>
        <time>2026-02-23T06:21:08.000Z</time>
      </trkpt>
      <trkpt lat="43.37384" lon="-1.41102">
        <ele>35</ele>
        <time>2026-02-23T06:21:10.000Z</time>
      </trkpt>
      <trkpt lat="43.37374" lon="-1.41224">
        <ele>36</ele>
        <time>2026-02-23T06:21:26.000Z</time>
      </trkpt>
      <trkpt lat="43.37359" lon="-1.41354">
        <ele>33</ele>
        <time>2026-02-23T06:21:43.000Z</time>
      </trkpt>
      <trkpt lat="43.37366" lon="-1.41428">
        <ele>36</ele>
        <time>2026-02-23T06:21:53.000Z</time>
      </trkpt>
      <trkpt lat="43.37366" lon="-1.41498">
        <ele>34</ele>
        <time>2026-02-23T06:22:02.000Z</time>
      </trkpt>
      <trkpt lat="43.37365" lon="-1.41583">
        <ele>36</ele>
        <time>2026-02-23T06:22:13.000Z</time>
      </trkpt>
      <trkpt lat="43.37357" lon="-1.41628">
        <ele>32</ele>
        <time>2026-02-23T06:22:19.000Z</time>
      </trkpt>
      <trkpt lat="43.37359" lon="-1.41663">
        <ele>32</ele>
        <time>2026-02-23T06:22:24.000Z</time>
      </trkpt>
      <trkpt lat="43.37359" lon="-1.41705">
        <ele>30</ele>
        <time>2026-02-23T06:22:29.000Z</time>
      </trkpt>
      <trkpt lat="43.37366" lon="-1.41744">
        <ele>29</ele>
        <time>2026-02-23T06:22:34.000Z</time>
      </trkpt>
      <trkpt lat="43.37377" lon="-1.4179">
        <ele>31</ele>
        <time>2026-02-23T06:22:40.000Z</time>
      </trkpt>
      <trkpt lat="43.37388" lon="-1.41884">
        <ele>32</ele>
        <time>2026-02-23T06:22:53.000Z</time>
      </trkpt>
      <trkpt lat="43.37397" lon="-1.41931">
        <ele>33</ele>
        <time>2026-02-23T06:22:59.000Z</time>
      </trkpt>
      <trkpt lat="43.37409" lon="-1.41972">
        <ele>34</ele>
        <time>2026-02-23T06:23:05.000Z</time>
      </trkpt>
      <trkpt lat="43.37413" lon="-1.41997">
        <ele>34</ele>
        <time>2026-02-23T06:23:08.000Z</time>
      </trkpt>
      <trkpt lat="43.3741" lon="-1.42038">
        <ele>31</ele>
        <time>2026-02-23T06:23:13.000Z</time>
      </trkpt>
      <trkpt lat="43.3741" lon="-1.42066">
        <ele>30</ele>
        <time>2026-02-23T06:23:17.000Z</time>
      </trkpt>
      <trkpt lat="43.37417" lon="-1.4219">
        <ele>24</ele>
        <time>2026-02-23T06:23:33.000Z</time>
      </trkpt>
      <trkpt lat="43.37454" lon="-1.42346">
        <ele>20</ele>
        <time>2026-02-23T06:23:54.000Z</time>
      </trkpt>
      <trkpt lat="43.37458" lon="-1.42354">
        <ele>20</ele>
        <time>2026-02-23T06:23:56.000Z</time>
      </trkpt>
      <trkpt lat="43.37462" lon="-1.42353">
        <ele>20</ele>
        <time>2026-02-23T06:23:56.000Z</time>
      </trkpt>
      <trkpt lat="43.37466" lon="-1.42359">
        <ele>20</ele>
        <time>2026-02-23T06:23:57.000Z</time>
      </trkpt>
      <trkpt lat="43.3751" lon="-1.42368">
        <ele>25</ele>
        <time>2026-02-23T06:24:05.000Z</time>
      </trkpt>
      <trkpt lat="43.3756" lon="-1.42386">
        <ele>32</ele>
        <time>2026-02-23T06:24:14.000Z</time>
      </trkpt>
      <trkpt lat="43.37591" lon="-1.42414">
        <ele>35</ele>
        <time>2026-02-23T06:24:21.000Z</time>
      </trkpt>
      <trkpt lat="43.37597" lon="-1.42429">
        <ele>34</ele>
        <time>2026-02-23T06:24:23.000Z</time>
      </trkpt>
      <trkpt lat="43.37618" lon="-1.42457">
        <ele>34</ele>
        <time>2026-02-23T06:24:28.000Z</time>
      </trkpt>
      <trkpt lat="43.37654" lon="-1.42497">
        <ele>34</ele>
        <time>2026-02-23T06:24:37.000Z</time>
      </trkpt>
      <trkpt lat="43.37695" lon="-1.42531">
        <ele>31</ele>
        <time>2026-02-23T06:24:45.000Z</time>
      </trkpt>
      <trkpt lat="43.37743" lon="-1.42576">
        <ele>28</ele>
        <time>2026-02-23T06:24:56.000Z</time>
      </trkpt>
      <trkpt lat="43.37836" lon="-1.42624">
        <ele>23</ele>
        <time>2026-02-23T06:25:13.000Z</time>
      </trkpt>
      <trkpt lat="43.37856" lon="-1.42625">
        <ele>22</ele>
        <time>2026-02-23T06:25:17.000Z</time>
      </trkpt>
      <trkpt lat="43.37891" lon="-1.4262">
        <ele>22</ele>
        <time>2026-02-23T06:25:23.000Z</time>
      </trkpt>
      <trkpt lat="43.37912" lon="-1.42623">
        <ele>21</ele>
        <time>2026-02-23T06:25:27.000Z</time>
      </trkpt>
      <trkpt lat="43.37933" lon="-1.42614">
        <ele>24</ele>
        <time>2026-02-23T06:25:31.000Z</time>
      </trkpt>
      <trkpt lat="43.37974" lon="-1.42587">
        <ele>28</ele>
        <time>2026-02-23T06:25:39.000Z</time>
      </trkpt>
      <trkpt lat="43.3806" lon="-1.42558">
        <ele>42</ele>
        <time>2026-02-23T06:25:55.000Z</time>
      </trkpt>
      <trkpt lat="43.38087" lon="-1.42531">
        <ele>46</ele>
        <time>2026-02-23T06:26:00.000Z</time>
      </trkpt>
      <trkpt lat="43.38059" lon="-1.42544">
        <ele>43</ele>
        <time>2026-02-23T06:26:06.000Z</time>
      </trkpt>
      <trkpt lat="43.38047" lon="-1.42547">
        <ele>42</ele>
        <time>2026-02-23T06:26:08.000Z</time>
      </trkpt>
      <trkpt lat="43.38008" lon="-1.42545">
        <ele>39</ele>
        <time>2026-02-23T06:26:15.000Z</time>
      </trkpt>
      <trkpt lat="43.38008" lon="-1.42545">
        <ele>39</ele>
        <time>2026-02-23T06:26:15.000Z</time>
      </trkpt>
      <trkpt lat="43.38047" lon="-1.42547">
        <ele>42</ele>
        <time>2026-02-23T06:26:22.000Z</time>
      </trkpt>
      <trkpt lat="43.38059" lon="-1.42544">
        <ele>43</ele>
        <time>2026-02-23T06:26:24.000Z</time>
      </trkpt>
      <trkpt lat="43.38087" lon="-1.42531">
        <ele>46</ele>
        <time>2026-02-23T06:26:29.000Z</time>
      </trkpt>
      <trkpt lat="43.3812" lon="-1.42482">
        <ele>48</ele>
        <time>2026-02-23T06:26:38.000Z</time>
      </trkpt>
      <trkpt lat="43.38131" lon="-1.42471">
        <ele>48</ele>
        <time>2026-02-23T06:26:40.000Z</time>
      </trkpt>
      <trkpt lat="43.38142" lon="-1.42483">
        <ele>46</ele>
        <time>2026-02-23T06:26:43.000Z</time>
      </trkpt>
      <trkpt lat="43.38145" lon="-1.42501">
        <ele>44</ele>
        <time>2026-02-23T06:26:45.000Z</time>
      </trkpt>
      <trkpt lat="43.3814" lon="-1.42517">
        <ele>46</ele>
        <time>2026-02-23T06:26:47.000Z</time>
      </trkpt>
      <trkpt lat="43.38118" lon="-1.42573">
        <ele>49</ele>
        <time>2026-02-23T06:26:56.000Z</time>
      </trkpt>
      <trkpt lat="43.38085" lon="-1.42628">
        <ele>46</ele>
        <time>2026-02-23T06:27:05.000Z</time>
      </trkpt>
      <trkpt lat="43.38082" lon="-1.42642">
        <ele>46</ele>
        <time>2026-02-23T06:27:07.000Z</time>
      </trkpt>
      <trkpt lat="43.38082" lon="-1.42659">
        <ele>47</ele>
        <time>2026-02-23T06:27:09.000Z</time>
      </trkpt>
      <trkpt lat="43.38088" lon="-1.42675">
        <ele>47</ele>
        <time>2026-02-23T06:27:11.000Z</time>
      </trkpt>
      <trkpt lat="43.38102" lon="-1.42691">
        <ele>47</ele>
        <time>2026-02-23T06:27:15.000Z</time>
      </trkpt>
      <trkpt lat="43.38138" lon="-1.42718">
        <ele>50</ele>
        <time>2026-02-23T06:27:22.000Z</time>
      </trkpt>
      <trkpt lat="43.38189" lon="-1.42732">
        <ele>54</ele>
        <time>2026-02-23T06:27:31.000Z</time>
      </trkpt>
      <trkpt lat="43.38223" lon="-1.42707">
        <ele>57</ele>
        <time>2026-02-23T06:27:38.000Z</time>
      </trkpt>
      <trkpt lat="43.38231" lon="-1.42683">
        <ele>60</ele>
        <time>2026-02-23T06:27:41.000Z</time>
      </trkpt>
      <trkpt lat="43.38232" lon="-1.42646">
        <ele>62</ele>
        <time>2026-02-23T06:27:46.000Z</time>
      </trkpt>
      <trkpt lat="43.38227" lon="-1.42614">
        <ele>61</ele>
        <time>2026-02-23T06:27:50.000Z</time>
      </trkpt>
      <trkpt lat="43.3824" lon="-1.42574">
        <ele>61</ele>
        <time>2026-02-23T06:27:56.000Z</time>
      </trkpt>
      <trkpt lat="43.38306" lon="-1.42505">
        <ele>64</ele>
        <time>2026-02-23T06:28:11.000Z</time>
      </trkpt>
      <trkpt lat="43.38365" lon="-1.42522">
        <ele>66</ele>
        <time>2026-02-23T06:28:22.000Z</time>
      </trkpt>
      <trkpt lat="43.38434" lon="-1.42582">
        <ele>68</ele>
        <time>2026-02-23T06:28:36.000Z</time>
      </trkpt>
      <trkpt lat="43.38468" lon="-1.42671">
        <ele>68</ele>
        <time>2026-02-23T06:28:49.000Z</time>
      </trkpt>
      <trkpt lat="43.38492" lon="-1.42756">
        <ele>66</ele>
        <time>2026-02-23T06:29:01.000Z</time>
      </trkpt>
      <trkpt lat="43.38572" lon="-1.42715">
        <ele>73</ele>
        <time>2026-02-23T06:29:16.000Z</time>
      </trkpt>
      <trkpt lat="43.38595" lon="-1.42729">
        <ele>72</ele>
        <time>2026-02-23T06:29:21.000Z</time>
      </trkpt>
      <trkpt lat="43.38635" lon="-1.42721">
        <ele>70</ele>
        <time>2026-02-23T06:29:28.000Z</time>
      </trkpt>
      <trkpt lat="43.3867" lon="-1.42684">
        <ele>71</ele>
        <time>2026-02-23T06:29:36.000Z</time>
      </trkpt>
      <trkpt lat="43.38696" lon="-1.42633">
        <ele>73</ele>
        <time>2026-02-23T06:29:44.000Z</time>
      </trkpt>
      <trkpt lat="43.38725" lon="-1.42586">
        <ele>73</ele>
        <time>2026-02-23T06:29:52.000Z</time>
      </trkpt>
      <trkpt lat="43.38747" lon="-1.42573">
        <ele>72</ele>
        <time>2026-02-23T06:29:56.000Z</time>
      </trkpt>
      <trkpt lat="43.38761" lon="-1.42582">
        <ele>72</ele>
        <time>2026-02-23T06:29:59.000Z</time>
      </trkpt>
      <trkpt lat="43.38783" lon="-1.42646">
        <ele>71</ele>
        <time>2026-02-23T06:30:08.000Z</time>
      </trkpt>
      <trkpt lat="43.38798" lon="-1.42705">
        <ele>68</ele>
        <time>2026-02-23T06:30:16.000Z</time>
      </trkpt>
      <trkpt lat="43.38815" lon="-1.42751">
        <ele>66</ele>
        <time>2026-02-23T06:30:23.000Z</time>
      </trkpt>
      <trkpt lat="43.38819" lon="-1.42753">
        <ele>66</ele>
        <time>2026-02-23T06:30:23.000Z</time>
      </trkpt>
      <trkpt lat="43.38815" lon="-1.42814">
        <ele>66</ele>
        <time>2026-02-23T06:30:31.000Z</time>
      </trkpt>
      <trkpt lat="43.38816" lon="-1.4285">
        <ele>65</ele>
        <time>2026-02-23T06:30:36.000Z</time>
      </trkpt>
      <trkpt lat="43.38819" lon="-1.42881">
        <ele>65</ele>
        <time>2026-02-23T06:30:40.000Z</time>
      </trkpt>
      <trkpt lat="43.38825" lon="-1.42883">
        <ele>65</ele>
        <time>2026-02-23T06:30:41.000Z</time>
      </trkpt>
      <trkpt lat="43.38828" lon="-1.42891">
        <ele>65</ele>
        <time>2026-02-23T06:30:42.000Z</time>
      </trkpt>
      <trkpt lat="43.38826" lon="-1.42897">
        <ele>64</ele>
        <time>2026-02-23T06:30:43.000Z</time>
      </trkpt>
      <trkpt lat="43.3882" lon="-1.42901">
        <ele>64</ele>
        <time>2026-02-23T06:30:44.000Z</time>
      </trkpt>
      <trkpt lat="43.38821" lon="-1.42915">
        <ele>64</ele>
        <time>2026-02-23T06:30:46.000Z</time>
      </trkpt>
      <trkpt lat="43.38818" lon="-1.42932">
        <ele>63</ele>
        <time>2026-02-23T06:30:48.000Z</time>
      </trkpt>
      <trkpt lat="43.38814" lon="-1.42978">
        <ele>62</ele>
        <time>2026-02-23T06:30:54.000Z</time>
      </trkpt>
      <trkpt lat="43.38798" lon="-1.43039">
        <ele>62</ele>
        <time>2026-02-23T06:31:03.000Z</time>
      </trkpt>
      <trkpt lat="43.38838" lon="-1.43048">
        <ele>62</ele>
        <time>2026-02-23T06:31:10.000Z</time>
      </trkpt>
      <trkpt lat="43.38899" lon="-1.4308">
        <ele>62</ele>
        <time>2026-02-23T06:31:21.000Z</time>
      </trkpt>
      <trkpt lat="43.39147" lon="-1.43145">
        <ele>59</ele>
        <time>2026-02-23T06:32:06.000Z</time>
      </trkpt>
      <trkpt lat="43.39182" lon="-1.4316">
        <ele>58</ele>
        <time>2026-02-23T06:32:13.000Z</time>
      </trkpt>
      <trkpt lat="43.39277" lon="-1.43223">
        <ele>58</ele>
        <time>2026-02-23T06:32:32.000Z</time>
      </trkpt>
      <trkpt lat="43.39361" lon="-1.43294">
        <ele>59</ele>
        <time>2026-02-23T06:32:49.000Z</time>
      </trkpt>
      <trkpt lat="43.39421" lon="-1.43323">
        <ele>60</ele>
        <time>2026-02-23T06:33:01.000Z</time>
      </trkpt>
      <trkpt lat="43.39467" lon="-1.43363">
        <ele>60</ele>
        <time>2026-02-23T06:33:10.000Z</time>
      </trkpt>
      <trkpt lat="43.39558" lon="-1.43447">
        <ele>59</ele>
        <time>2026-02-23T06:33:30.000Z</time>
      </trkpt>
      <trkpt lat="43.39623" lon="-1.43491">
        <ele>58</ele>
        <time>2026-02-23T06:33:43.000Z</time>
      </trkpt>
      <trkpt lat="43.39659" lon="-1.43519">
        <ele>58</ele>
        <time>2026-02-23T06:33:50.000Z</time>
      </trkpt>
      <trkpt lat="43.39737" lon="-1.43613">
        <ele>58</ele>
        <time>2026-02-23T06:34:08.000Z</time>
      </trkpt>
      <trkpt lat="43.39785" lon="-1.43675">
        <ele>58</ele>
        <time>2026-02-23T06:34:20.000Z</time>
      </trkpt>
      <trkpt lat="43.39829" lon="-1.43718">
        <ele>56</ele>
        <time>2026-02-23T06:34:30.000Z</time>
      </trkpt>
      <trkpt lat="43.3985" lon="-1.43751">
        <ele>57</ele>
        <time>2026-02-23T06:34:35.000Z</time>
      </trkpt>
      <trkpt lat="43.39864" lon="-1.438">
        <ele>57</ele>
        <time>2026-02-23T06:34:42.000Z</time>
      </trkpt>
      <trkpt lat="43.39883" lon="-1.43832">
        <ele>57</ele>
        <time>2026-02-23T06:34:48.000Z</time>
      </trkpt>
      <trkpt lat="43.39998" lon="-1.43964">
        <ele>55</ele>
        <time>2026-02-23T06:35:14.000Z</time>
      </trkpt>
      <trkpt lat="43.40068" lon="-1.43992">
        <ele>55</ele>
        <time>2026-02-23T06:35:27.000Z</time>
      </trkpt>
      <trkpt lat="43.4011" lon="-1.44054">
        <ele>54</ele>
        <time>2026-02-23T06:35:38.000Z</time>
      </trkpt>
      <trkpt lat="43.40268" lon="-1.44215">
        <ele>54</ele>
        <time>2026-02-23T06:36:13.000Z</time>
      </trkpt>
      <trkpt lat="43.40289" lon="-1.44243">
        <ele>54</ele>
        <time>2026-02-23T06:36:18.000Z</time>
      </trkpt>
      <trkpt lat="43.40363" lon="-1.44378">
        <ele>47</ele>
        <time>2026-02-23T06:36:40.000Z</time>
      </trkpt>
      <trkpt lat="43.40477" lon="-1.44549">
        <ele>47</ele>
        <time>2026-02-23T06:37:10.000Z</time>
      </trkpt>
      <trkpt lat="43.40505" lon="-1.44619">
        <ele>47</ele>
        <time>2026-02-23T06:37:20.000Z</time>
      </trkpt>
      <trkpt lat="43.4052" lon="-1.44662">
        <ele>45</ele>
        <time>2026-02-23T06:37:27.000Z</time>
      </trkpt>
      <trkpt lat="43.40553" lon="-1.44714">
        <ele>45</ele>
        <time>2026-02-23T06:37:36.000Z</time>
      </trkpt>
      <trkpt lat="43.40576" lon="-1.44767">
        <ele>44</ele>
        <time>2026-02-23T06:37:44.000Z</time>
      </trkpt>
      <trkpt lat="43.40593" lon="-1.44799">
        <ele>38</ele>
        <time>2026-02-23T06:37:49.000Z</time>
      </trkpt>
      <trkpt lat="43.40666" lon="-1.44882">
        <ele>22</ele>
        <time>2026-02-23T06:38:06.000Z</time>
      </trkpt>
      <trkpt lat="43.4072" lon="-1.44937">
        <ele>14</ele>
        <time>2026-02-23T06:38:17.000Z</time>
      </trkpt>
      <trkpt lat="43.40729" lon="-1.44957">
        <ele>13</ele>
        <time>2026-02-23T06:38:21.000Z</time>
      </trkpt>
      <trkpt lat="43.40738" lon="-1.44963">
        <ele>12</ele>
        <time>2026-02-23T06:38:22.000Z</time>
      </trkpt>
      <trkpt lat="43.40761" lon="-1.44968">
        <ele>11</ele>
        <time>2026-02-23T06:38:26.000Z</time>
      </trkpt>
      <trkpt lat="43.4081" lon="-1.44971">
        <ele>10</ele>
        <time>2026-02-23T06:38:35.000Z</time>
      </trkpt>
      <trkpt lat="43.40839" lon="-1.4502">
        <ele>9</ele>
        <time>2026-02-23T06:38:43.000Z</time>
      </trkpt>
      <trkpt lat="43.40855" lon="-1.45034">
        <ele>8</ele>
        <time>2026-02-23T06:38:47.000Z</time>
      </trkpt>
      <trkpt lat="43.40956" lon="-1.45074">
        <ele>6</ele>
        <time>2026-02-23T06:39:05.000Z</time>
      </trkpt>
      <trkpt lat="43.41087" lon="-1.4505">
        <ele>10</ele>
        <time>2026-02-23T06:39:29.000Z</time>
      </trkpt>
      <trkpt lat="43.41248" lon="-1.45206">
        <ele>12</ele>
        <time>2026-02-23T06:40:04.000Z</time>
      </trkpt>
      <trkpt lat="43.4126" lon="-1.45211">
        <ele>12</ele>
        <time>2026-02-23T06:40:06.000Z</time>
      </trkpt>
      <trkpt lat="43.41354" lon="-1.45164">
        <ele>15</ele>
        <time>2026-02-23T06:40:24.000Z</time>
      </trkpt>
      <trkpt lat="43.41371" lon="-1.45169">
        <ele>14</ele>
        <time>2026-02-23T06:40:27.000Z</time>
      </trkpt>
      <trkpt lat="43.4139" lon="-1.45181">
        <ele>13</ele>
        <time>2026-02-23T06:40:31.000Z</time>
      </trkpt>
      <trkpt lat="43.4143" lon="-1.45185">
        <ele>14</ele>
        <time>2026-02-23T06:40:38.000Z</time>
      </trkpt>
      <trkpt lat="43.41447" lon="-1.45192">
        <ele>15</ele>
        <time>2026-02-23T06:40:41.000Z</time>
      </trkpt>
      <trkpt lat="43.41517" lon="-1.45262">
        <ele>14</ele>
        <time>2026-02-23T06:40:56.000Z</time>
      </trkpt>
      <trkpt lat="43.42011" lon="-1.45445">
        <ele>17</ele>
        <time>2026-02-23T06:42:28.000Z</time>
      </trkpt>
      <trkpt lat="43.4203" lon="-1.45458">
        <ele>17</ele>
        <time>2026-02-23T06:42:31.000Z</time>
      </trkpt>
      <trkpt lat="43.42051" lon="-1.455">
        <ele>15</ele>
        <time>2026-02-23T06:42:38.000Z</time>
      </trkpt>
      <trkpt lat="43.4208" lon="-1.45552">
        <ele>14</ele>
        <time>2026-02-23T06:42:46.000Z</time>
      </trkpt>
      <trkpt lat="43.42118" lon="-1.45601">
        <ele>11</ele>
        <time>2026-02-23T06:42:56.000Z</time>
      </trkpt>
      <trkpt lat="43.42149" lon="-1.45613">
        <ele>11</ele>
        <time>2026-02-23T06:43:01.000Z</time>
      </trkpt>
      <trkpt lat="43.42149" lon="-1.45613">
        <ele>11</ele>
        <time>2026-02-23T06:43:01.000Z</time>
      </trkpt>
      <trkpt lat="43.42153" lon="-1.45615">
        <ele>11</ele>
        <time>2026-02-23T06:43:02.000Z</time>
      </trkpt>
      <trkpt lat="43.42193" lon="-1.45608">
        <ele>11</ele>
        <time>2026-02-23T06:43:09.000Z</time>
      </trkpt>
      <trkpt lat="43.42209" lon="-1.456">
        <ele>10</ele>
        <time>2026-02-23T06:43:12.000Z</time>
      </trkpt>
      <trkpt lat="43.42261" lon="-1.45548">
        <ele>13</ele>
        <time>2026-02-23T06:43:24.000Z</time>
      </trkpt>
      <trkpt lat="43.42278" lon="-1.45527">
        <ele>13</ele>
        <time>2026-02-23T06:43:28.000Z</time>
      </trkpt>
      <trkpt lat="43.42307" lon="-1.45431">
        <ele>13</ele>
        <time>2026-02-23T06:43:41.000Z</time>
      </trkpt>
      <trkpt lat="43.42324" lon="-1.45413">
        <ele>10</ele>
        <time>2026-02-23T06:43:45.000Z</time>
      </trkpt>
      <trkpt lat="43.42388" lon="-1.45397">
        <ele>12</ele>
        <time>2026-02-23T06:43:57.000Z</time>
      </trkpt>
      <trkpt lat="43.42455" lon="-1.45389">
        <ele>12</ele>
        <time>2026-02-23T06:44:09.000Z</time>
      </trkpt>
      <trkpt lat="43.42488" lon="-1.45383">
        <ele>12</ele>
        <time>2026-02-23T06:44:15.000Z</time>
      </trkpt>
      <trkpt lat="43.42593" lon="-1.45327">
        <ele>10</ele>
        <time>2026-02-23T06:44:35.000Z</time>
      </trkpt>
      <trkpt lat="43.42666" lon="-1.45261">
        <ele>13</ele>
        <time>2026-02-23T06:44:50.000Z</time>
      </trkpt>
      <trkpt lat="43.42692" lon="-1.45246">
        <ele>15</ele>
        <time>2026-02-23T06:44:55.000Z</time>
      </trkpt>
      <trkpt lat="43.42707" lon="-1.45242">
        <ele>15</ele>
        <time>2026-02-23T06:44:58.000Z</time>
      </trkpt>
      <trkpt lat="43.42723" lon="-1.45247">
        <ele>14</ele>
        <time>2026-02-23T06:45:01.000Z</time>
      </trkpt>
      <trkpt lat="43.42778" lon="-1.45307">
        <ele>12</ele>
        <time>2026-02-23T06:45:13.000Z</time>
      </trkpt>
      <trkpt lat="43.42851" lon="-1.45395">
        <ele>12</ele>
        <time>2026-02-23T06:45:30.000Z</time>
      </trkpt>
      <trkpt lat="43.42867" lon="-1.4541">
        <ele>11</ele>
        <time>2026-02-23T06:45:34.000Z</time>
      </trkpt>
      <trkpt lat="43.42892" lon="-1.45428">
        <ele>11</ele>
        <time>2026-02-23T06:45:39.000Z</time>
      </trkpt>
      <trkpt lat="43.42999" lon="-1.45498">
        <ele>8</ele>
        <time>2026-02-23T06:46:00.000Z</time>
      </trkpt>
      <trkpt lat="43.43036" lon="-1.45507">
        <ele>7</ele>
        <time>2026-02-23T06:46:07.000Z</time>
      </trkpt>
      <trkpt lat="43.43057" lon="-1.45504">
        <ele>7</ele>
        <time>2026-02-23T06:46:10.000Z</time>
      </trkpt>
      <trkpt lat="43.4309" lon="-1.45507">
        <ele>6</ele>
        <time>2026-02-23T06:46:16.000Z</time>
      </trkpt>
      <trkpt lat="43.431" lon="-1.45511">
        <ele>6</ele>
        <time>2026-02-23T06:46:18.000Z</time>
      </trkpt>
      <trkpt lat="43.431" lon="-1.45511">
        <ele>6</ele>
        <time>2026-02-23T06:46:18.000Z</time>
      </trkpt>
      <trkpt lat="43.43158" lon="-1.4553">
        <ele>7</ele>
        <time>2026-02-23T06:46:29.000Z</time>
      </trkpt>
      <trkpt lat="43.43158" lon="-1.4554">
        <ele>6</ele>
        <time>2026-02-23T06:46:30.000Z</time>
      </trkpt>
      <trkpt lat="43.43167" lon="-1.45564">
        <ele>6</ele>
        <time>2026-02-23T06:46:34.000Z</time>
      </trkpt>
      <trkpt lat="43.43176" lon="-1.45571">
        <ele>6</ele>
        <time>2026-02-23T06:46:35.000Z</time>
      </trkpt>
      <trkpt lat="43.43191" lon="-1.45578">
        <ele>7</ele>
        <time>2026-02-23T06:46:38.000Z</time>
      </trkpt>
      <trkpt lat="43.43208" lon="-1.45592">
        <ele>8</ele>
        <time>2026-02-23T06:46:42.000Z</time>
      </trkpt>
      <trkpt lat="43.43221" lon="-1.45612">
        <ele>7</ele>
        <time>2026-02-23T06:46:45.000Z</time>
      </trkpt>
      <trkpt lat="43.43242" lon="-1.4563">
        <ele>7</ele>
        <time>2026-02-23T06:46:50.000Z</time>
      </trkpt>
      <trkpt lat="43.43253" lon="-1.45651">
        <ele>6</ele>
        <time>2026-02-23T06:46:53.000Z</time>
      </trkpt>
      <trkpt lat="43.43264" lon="-1.45669">
        <ele>5</ele>
        <time>2026-02-23T06:46:56.000Z</time>
      </trkpt>
      <trkpt lat="43.43277" lon="-1.45674">
        <ele>5</ele>
        <time>2026-02-23T06:46:58.000Z</time>
      </trkpt>
      <trkpt lat="43.43305" lon="-1.45675">
        <ele>6</ele>
        <time>2026-02-23T06:47:03.000Z</time>
      </trkpt>
      <trkpt lat="43.4332" lon="-1.4568">
        <ele>6</ele>
        <time>2026-02-23T06:47:06.000Z</time>
      </trkpt>
      <trkpt lat="43.43302" lon="-1.45771">
        <ele>2</ele>
        <time>2026-02-23T06:47:18.000Z</time>
      </trkpt>
      <trkpt lat="43.43335" lon="-1.45776">
        <ele>2</ele>
        <time>2026-02-23T06:47:24.000Z</time>
      </trkpt>
      <trkpt lat="43.43392" lon="-1.45812">
        <ele>3</ele>
        <time>2026-02-23T06:47:35.000Z</time>
      </trkpt>
      <trkpt lat="43.43412" lon="-1.45827">
        <ele>4</ele>
        <time>2026-02-23T06:47:39.000Z</time>
      </trkpt>
      <trkpt lat="43.43432" lon="-1.45838">
        <ele>5</ele>
        <time>2026-02-23T06:47:43.000Z</time>
      </trkpt>
      <trkpt lat="43.43447" lon="-1.45848">
        <ele>5</ele>
        <time>2026-02-23T06:47:46.000Z</time>
      </trkpt>
      <trkpt lat="43.43463" lon="-1.45862">
        <ele>6</ele>
        <time>2026-02-23T06:47:50.000Z</time>
      </trkpt>
      <trkpt lat="43.43481" lon="-1.45882">
        <ele>6</ele>
        <time>2026-02-23T06:47:54.000Z</time>
      </trkpt>
      <trkpt lat="43.43532" lon="-1.4595">
        <ele>5</ele>
        <time>2026-02-23T06:48:06.000Z</time>
      </trkpt>
      <trkpt lat="43.43532" lon="-1.4595">
        <ele>5</ele>
        <time>2026-02-23T06:48:06.000Z</time>
      </trkpt>
      <trkpt lat="43.43576" lon="-1.4601">
        <ele>4</ele>
        <time>2026-02-23T06:48:17.000Z</time>
      </trkpt>
      <trkpt lat="43.4361" lon="-1.46062">
        <ele>4</ele>
        <time>2026-02-23T06:48:26.000Z</time>
      </trkpt>
      <trkpt lat="43.43681" lon="-1.46182">
        <ele>4</ele>
        <time>2026-02-23T06:48:46.000Z</time>
      </trkpt>
      <trkpt lat="43.43757" lon="-1.46313">
        <ele>7</ele>
        <time>2026-02-23T06:49:08.000Z</time>
      </trkpt>
      <trkpt lat="43.43768" lon="-1.46336">
        <ele>8</ele>
        <time>2026-02-23T06:49:12.000Z</time>
      </trkpt>
      <trkpt lat="43.43775" lon="-1.46361">
        <ele>9</ele>
        <time>2026-02-23T06:49:15.000Z</time>
      </trkpt>
      <trkpt lat="43.43779" lon="-1.46388">
        <ele>9</ele>
        <time>2026-02-23T06:49:19.000Z</time>
      </trkpt>
      <trkpt lat="43.43781" lon="-1.46417">
        <ele>8</ele>
        <time>2026-02-23T06:49:22.000Z</time>
      </trkpt>
      <trkpt lat="43.4378" lon="-1.46443">
        <ele>9</ele>
        <time>2026-02-23T06:49:26.000Z</time>
      </trkpt>
      <trkpt lat="43.43771" lon="-1.46492">
        <ele>9</ele>
        <time>2026-02-23T06:49:32.000Z</time>
      </trkpt>
      <trkpt lat="43.43758" lon="-1.4661">
        <ele>8</ele>
        <time>2026-02-23T06:49:48.000Z</time>
      </trkpt>
      <trkpt lat="43.43754" lon="-1.46732">
        <ele>8</ele>
        <time>2026-02-23T06:50:04.000Z</time>
      </trkpt>
      <trkpt lat="43.43744" lon="-1.46917">
        <ele>5</ele>
        <time>2026-02-23T06:50:28.000Z</time>
      </trkpt>
      <trkpt lat="43.43759" lon="-1.47031">
        <ele>7</ele>
        <time>2026-02-23T06:50:42.000Z</time>
      </trkpt>
      <trkpt lat="43.43763" lon="-1.47137">
        <ele>5</ele>
        <time>2026-02-23T06:50:56.000Z</time>
      </trkpt>
      <trkpt lat="43.43754" lon="-1.47255">
        <ele>4</ele>
        <time>2026-02-23T06:51:12.000Z</time>
      </trkpt>
      <trkpt lat="43.43776" lon="-1.47339">
        <ele>3</ele>
        <time>2026-02-23T06:51:23.000Z</time>
      </trkpt>
      <trkpt lat="43.43791" lon="-1.47387">
        <ele>3</ele>
        <time>2026-02-23T06:51:30.000Z</time>
      </trkpt>
      <trkpt lat="43.43811" lon="-1.47419">
        <ele>3</ele>
        <time>2026-02-23T06:51:35.000Z</time>
      </trkpt>
      <trkpt lat="43.43823" lon="-1.47431">
        <ele>4</ele>
        <time>2026-02-23T06:51:38.000Z</time>
      </trkpt>
      <trkpt lat="43.43843" lon="-1.47449">
        <ele>4</ele>
        <time>2026-02-23T06:51:42.000Z</time>
      </trkpt>
      <trkpt lat="43.43902" lon="-1.47486">
        <ele>3</ele>
        <time>2026-02-23T06:51:54.000Z</time>
      </trkpt>
      <trkpt lat="43.44071" lon="-1.47522">
        <ele>2</ele>
        <time>2026-02-23T06:52:24.000Z</time>
      </trkpt>
      <trkpt lat="43.44159" lon="-1.47534">
        <ele>1</ele>
        <time>2026-02-23T06:52:40.000Z</time>
      </trkpt>
      <trkpt lat="43.44189" lon="-1.4754">
        <ele>1</ele>
        <time>2026-02-23T06:52:45.000Z</time>
      </trkpt>
      <trkpt lat="43.44244" lon="-1.47555">
        <ele>3</ele>
        <time>2026-02-23T06:52:55.000Z</time>
      </trkpt>
      <trkpt lat="43.44242" lon="-1.47568">
        <ele>3</ele>
        <time>2026-02-23T06:52:57.000Z</time>
      </trkpt>
      <trkpt lat="43.44242" lon="-1.47568">
        <ele>3</ele>
        <time>2026-02-23T06:52:57.000Z</time>
      </trkpt>
      <trkpt lat="43.44238" lon="-1.47591">
        <ele>3</ele>
        <time>2026-02-23T06:53:00.000Z</time>
      </trkpt>
      <trkpt lat="43.44228" lon="-1.47627">
        <ele>3</ele>
        <time>2026-02-23T06:53:05.000Z</time>
      </trkpt>
      <trkpt lat="43.4423" lon="-1.47648">
        <ele>3</ele>
        <time>2026-02-23T06:53:08.000Z</time>
      </trkpt>
      <trkpt lat="43.44243" lon="-1.47727">
        <ele>3</ele>
        <time>2026-02-23T06:53:18.000Z</time>
      </trkpt>
      <trkpt lat="43.44251" lon="-1.47778">
        <ele>3</ele>
        <time>2026-02-23T06:53:25.000Z</time>
      </trkpt>
      <trkpt lat="43.44251" lon="-1.47815">
        <ele>2</ele>
        <time>2026-02-23T06:53:30.000Z</time>
      </trkpt>
      <trkpt lat="43.44247" lon="-1.47849">
        <ele>2</ele>
        <time>2026-02-23T06:53:34.000Z</time>
      </trkpt>
      <trkpt lat="43.44235" lon="-1.47886">
        <ele>1</ele>
        <time>2026-02-23T06:53:39.000Z</time>
      </trkpt>
      <trkpt lat="43.4422" lon="-1.47916">
        <ele>1</ele>
        <time>2026-02-23T06:53:44.000Z</time>
      </trkpt>
      <trkpt lat="43.44187" lon="-1.47935">
        <ele>2</ele>
        <time>2026-02-23T06:53:50.000Z</time>
      </trkpt>
      <trkpt lat="43.44132" lon="-1.48077">
        <ele>10</ele>
        <time>2026-02-23T06:54:11.000Z</time>
      </trkpt>
      <trkpt lat="43.44144" lon="-1.48104">
        <ele>14</ele>
        <time>2026-02-23T06:54:15.000Z</time>
      </trkpt>
      <trkpt lat="43.44165" lon="-1.48127">
        <ele>16</ele>
        <time>2026-02-23T06:54:20.000Z</time>
      </trkpt>
      <trkpt lat="43.44204" lon="-1.48157">
        <ele>18</ele>
        <time>2026-02-23T06:54:28.000Z</time>
      </trkpt>
      <trkpt lat="43.4423" lon="-1.48165">
        <ele>18</ele>
        <time>2026-02-23T06:54:33.000Z</time>
      </trkpt>
      <trkpt lat="43.44312" lon="-1.48158">
        <ele>17</ele>
        <time>2026-02-23T06:54:47.000Z</time>
      </trkpt>
      <trkpt lat="43.44333" lon="-1.48154">
        <ele>16</ele>
        <time>2026-02-23T06:54:51.000Z</time>
      </trkpt>
      <trkpt lat="43.4436" lon="-1.48134">
        <ele>14</ele>
        <time>2026-02-23T06:54:57.000Z</time>
      </trkpt>
      <trkpt lat="43.44388" lon="-1.48093">
        <ele>11</ele>
        <time>2026-02-23T06:55:04.000Z</time>
      </trkpt>
      <trkpt lat="43.44426" lon="-1.48046">
        <ele>9</ele>
        <time>2026-02-23T06:55:13.000Z</time>
      </trkpt>
      <trkpt lat="43.44446" lon="-1.48036">
        <ele>8</ele>
        <time>2026-02-23T06:55:17.000Z</time>
      </trkpt>
      <trkpt lat="43.44459" lon="-1.48041">
        <ele>7</ele>
        <time>2026-02-23T06:55:19.000Z</time>
      </trkpt>
      <trkpt lat="43.4448" lon="-1.48062">
        <ele>6</ele>
        <time>2026-02-23T06:55:24.000Z</time>
      </trkpt>
      <trkpt lat="43.44497" lon="-1.48099">
        <ele>7</ele>
        <time>2026-02-23T06:55:29.000Z</time>
      </trkpt>
      <trkpt lat="43.44537" lon="-1.48208">
        <ele>12</ele>
        <time>2026-02-23T06:55:45.000Z</time>
      </trkpt>
      <trkpt lat="43.44597" lon="-1.48321">
        <ele>19</ele>
        <time>2026-02-23T06:56:03.000Z</time>
      </trkpt>
      <trkpt lat="43.44647" lon="-1.48424">
        <ele>16</ele>
        <time>2026-02-23T06:56:19.000Z</time>
      </trkpt>
      <trkpt lat="43.44663" lon="-1.48472">
        <ele>17</ele>
        <time>2026-02-23T06:56:26.000Z</time>
      </trkpt>
      <trkpt lat="43.4467" lon="-1.48509">
        <ele>20</ele>
        <time>2026-02-23T06:56:31.000Z</time>
      </trkpt>
      <trkpt lat="43.44681" lon="-1.48555">
        <ele>22</ele>
        <time>2026-02-23T06:56:37.000Z</time>
      </trkpt>
      <trkpt lat="43.44711" lon="-1.48632">
        <ele>20</ele>
        <time>2026-02-23T06:56:49.000Z</time>
      </trkpt>
      <trkpt lat="43.44721" lon="-1.48673">
        <ele>19</ele>
        <time>2026-02-23T06:56:54.000Z</time>
      </trkpt>
      <trkpt lat="43.44722" lon="-1.4874">
        <ele>19</ele>
        <time>2026-02-23T06:57:03.000Z</time>
      </trkpt>
      <trkpt lat="43.4471" lon="-1.48836">
        <ele>23</ele>
        <time>2026-02-23T06:57:15.000Z</time>
      </trkpt>
      <trkpt lat="43.4471" lon="-1.48856">
        <ele>24</ele>
        <time>2026-02-23T06:57:18.000Z</time>
      </trkpt>
      <trkpt lat="43.44719" lon="-1.48919">
        <ele>22</ele>
        <time>2026-02-23T06:57:26.000Z</time>
      </trkpt>
      <trkpt lat="43.44731" lon="-1.48954">
        <ele>19</ele>
        <time>2026-02-23T06:57:31.000Z</time>
      </trkpt>
      <trkpt lat="43.44963" lon="-1.49121">
        <ele>6</ele>
        <time>2026-02-23T06:58:18.000Z</time>
      </trkpt>
      <trkpt lat="43.44974" lon="-1.49135">
        <ele>7</ele>
        <time>2026-02-23T06:58:21.000Z</time>
      </trkpt>
      <trkpt lat="43.44981" lon="-1.49148">
        <ele>7</ele>
        <time>2026-02-23T06:58:23.000Z</time>
      </trkpt>
      <trkpt lat="43.44992" lon="-1.49204">
        <ele>7</ele>
        <time>2026-02-23T06:58:30.000Z</time>
      </trkpt>
      <trkpt lat="43.4499" lon="-1.49307">
        <ele>4</ele>
        <time>2026-02-23T06:58:43.000Z</time>
      </trkpt>
      <trkpt lat="43.44999" lon="-1.49325">
        <ele>3</ele>
        <time>2026-02-23T06:58:46.000Z</time>
      </trkpt>
      <trkpt lat="43.45005" lon="-1.49327">
        <ele>3</ele>
        <time>2026-02-23T06:58:47.000Z</time>
      </trkpt>
      <trkpt lat="43.4501" lon="-1.4933">
        <ele>3</ele>
        <time>2026-02-23T06:58:48.000Z</time>
      </trkpt>
      <trkpt lat="43.45013" lon="-1.49334">
        <ele>3</ele>
        <time>2026-02-23T06:58:49.000Z</time>
      </trkpt>
      <trkpt lat="43.45015" lon="-1.49343">
        <ele>3</ele>
        <time>2026-02-23T06:58:50.000Z</time>
      </trkpt>
      <trkpt lat="43.45015" lon="-1.49351">
        <ele>3</ele>
        <time>2026-02-23T06:58:51.000Z</time>
      </trkpt>
      <trkpt lat="43.45013" lon="-1.49358">
        <ele>3</ele>
        <time>2026-02-23T06:58:52.000Z</time>
      </trkpt>
      <trkpt lat="43.45009" lon="-1.49364">
        <ele>3</ele>
        <time>2026-02-23T06:58:53.000Z</time>
      </trkpt>
      <trkpt lat="43.45" lon="-1.49368">
        <ele>3</ele>
        <time>2026-02-23T06:58:55.000Z</time>
      </trkpt>
      <trkpt lat="43.45001" lon="-1.49388">
        <ele>2</ele>
        <time>2026-02-23T06:58:58.000Z</time>
      </trkpt>
      <trkpt lat="43.45037" lon="-1.49463">
        <ele>2</ele>
        <time>2026-02-23T06:59:09.000Z</time>
      </trkpt>
      <trkpt lat="43.45058" lon="-1.49495">
        <ele>2</ele>
        <time>2026-02-23T06:59:15.000Z</time>
      </trkpt>
      <trkpt lat="43.45056" lon="-1.49506">
        <ele>3</ele>
        <time>2026-02-23T06:59:16.000Z</time>
      </trkpt>
      <trkpt lat="43.4508" lon="-1.49559">
        <ele>5</ele>
        <time>2026-02-23T06:59:24.000Z</time>
      </trkpt>
      <trkpt lat="43.45082" lon="-1.4957">
        <ele>5</ele>
        <time>2026-02-23T06:59:26.000Z</time>
      </trkpt>
      <trkpt lat="43.45084" lon="-1.49584">
        <ele>6</ele>
        <time>2026-02-23T06:59:28.000Z</time>
      </trkpt>
      <trkpt lat="43.45078" lon="-1.49601">
        <ele>7</ele>
        <time>2026-02-23T06:59:30.000Z</time>
      </trkpt>
      <trkpt lat="43.45058" lon="-1.49637">
        <ele>9</ele>
        <time>2026-02-23T06:59:36.000Z</time>
      </trkpt>
      <trkpt lat="43.45026" lon="-1.49687">
        <ele>11</ele>
        <time>2026-02-23T06:59:45.000Z</time>
      </trkpt>
      <trkpt lat="43.45" lon="-1.49708">
        <ele>12</ele>
        <time>2026-02-23T06:59:50.000Z</time>
      </trkpt>
      <trkpt lat="43.44974" lon="-1.49711">
        <ele>12</ele>
        <time>2026-02-23T06:59:55.000Z</time>
      </trkpt>
      <trkpt lat="43.44939" lon="-1.49692">
        <ele>11</ele>
        <time>2026-02-23T07:00:01.000Z</time>
      </trkpt>
      <trkpt lat="43.44919" lon="-1.49695">
        <ele>11</ele>
        <time>2026-02-23T07:00:05.000Z</time>
      </trkpt>
      <trkpt lat="43.44862" lon="-1.49754">
        <ele>12</ele>
        <time>2026-02-23T07:00:18.000Z</time>
      </trkpt>
      <trkpt lat="43.44841" lon="-1.49764">
        <ele>11</ele>
        <time>2026-02-23T07:00:21.000Z</time>
      </trkpt>
      <trkpt lat="43.44806" lon="-1.49762">
        <ele>8</ele>
        <time>2026-02-23T07:00:28.000Z</time>
      </trkpt>
      <trkpt lat="43.4479" lon="-1.4978">
        <ele>6</ele>
        <time>2026-02-23T07:00:31.000Z</time>
      </trkpt>
      <trkpt lat="43.44789" lon="-1.49803">
        <ele>6</ele>
        <time>2026-02-23T07:00:34.000Z</time>
      </trkpt>
      <trkpt lat="43.44839" lon="-1.49979">
        <ele>7</ele>
        <time>2026-02-23T07:00:59.000Z</time>
      </trkpt>
      <trkpt lat="43.44842" lon="-1.5">
        <ele>7</ele>
        <time>2026-02-23T07:01:02.000Z</time>
      </trkpt>
      <trkpt lat="43.44841" lon="-1.50013">
        <ele>6</ele>
        <time>2026-02-23T07:01:03.000Z</time>
      </trkpt>
      <trkpt lat="43.44836" lon="-1.50031">
        <ele>6</ele>
        <time>2026-02-23T07:01:06.000Z</time>
      </trkpt>
      <trkpt lat="43.44818" lon="-1.5006">
        <ele>6</ele>
        <time>2026-02-23T07:01:11.000Z</time>
      </trkpt>
      <trkpt lat="43.448" lon="-1.50075">
        <ele>6</ele>
        <time>2026-02-23T07:01:14.000Z</time>
      </trkpt>
      <trkpt lat="43.44785" lon="-1.50081">
        <ele>7</ele>
        <time>2026-02-23T07:01:17.000Z</time>
      </trkpt>
      <trkpt lat="43.44769" lon="-1.50083">
        <ele>8</ele>
        <time>2026-02-23T07:01:20.000Z</time>
      </trkpt>
      <trkpt lat="43.44757" lon="-1.50081">
        <ele>9</ele>
        <time>2026-02-23T07:01:22.000Z</time>
      </trkpt>
      <trkpt lat="43.44727" lon="-1.50066">
        <ele>8</ele>
        <time>2026-02-23T07:01:28.000Z</time>
      </trkpt>
      <trkpt lat="43.44712" lon="-1.50068">
        <ele>8</ele>
        <time>2026-02-23T07:01:31.000Z</time>
      </trkpt>
      <trkpt lat="43.44677" lon="-1.50089">
        <ele>10</ele>
        <time>2026-02-23T07:01:37.000Z</time>
      </trkpt>
      <trkpt lat="43.44661" lon="-1.50095">
        <ele>10</ele>
        <time>2026-02-23T07:01:40.000Z</time>
      </trkpt>
      <trkpt lat="43.44621" lon="-1.50103">
        <ele>13</ele>
        <time>2026-02-23T07:01:47.000Z</time>
      </trkpt>
      <trkpt lat="43.44608" lon="-1.5011">
        <ele>14</ele>
        <time>2026-02-23T07:01:50.000Z</time>
      </trkpt>
      <trkpt lat="43.44594" lon="-1.50119">
        <ele>15</ele>
        <time>2026-02-23T07:01:53.000Z</time>
      </trkpt>
      <trkpt lat="43.4458" lon="-1.50124">
        <ele>15</ele>
        <time>2026-02-23T07:01:55.000Z</time>
      </trkpt>
      <trkpt lat="43.44558" lon="-1.50126">
        <ele>14</ele>
        <time>2026-02-23T07:01:59.000Z</time>
      </trkpt>
      <trkpt lat="43.44548" lon="-1.50132">
        <ele>14</ele>
        <time>2026-02-23T07:02:01.000Z</time>
      </trkpt>
      <trkpt lat="43.44533" lon="-1.50148">
        <ele>15</ele>
        <time>2026-02-23T07:02:05.000Z</time>
      </trkpt>
      <trkpt lat="43.44527" lon="-1.5016">
        <ele>16</ele>
        <time>2026-02-23T07:02:06.000Z</time>
      </trkpt>
      <trkpt lat="43.44522" lon="-1.50174">
        <ele>16</ele>
        <time>2026-02-23T07:02:08.000Z</time>
      </trkpt>
      <trkpt lat="43.44519" lon="-1.50192">
        <ele>18</ele>
        <time>2026-02-23T07:02:11.000Z</time>
      </trkpt>
      <trkpt lat="43.44524" lon="-1.50257">
        <ele>24</ele>
        <time>2026-02-23T07:02:19.000Z</time>
      </trkpt>
      <trkpt lat="43.44521" lon="-1.50319">
        <ele>31</ele>
        <time>2026-02-23T07:02:27.000Z</time>
      </trkpt>
      <trkpt lat="43.44536" lon="-1.50445">
        <ele>34</ele>
        <time>2026-02-23T07:02:44.000Z</time>
      </trkpt>
      <trkpt lat="43.44543" lon="-1.50481">
        <ele>34</ele>
        <time>2026-02-23T07:02:49.000Z</time>
      </trkpt>
      <trkpt lat="43.4457" lon="-1.50576">
        <ele>36</ele>
        <time>2026-02-23T07:03:02.000Z</time>
      </trkpt>
      <trkpt lat="43.4458" lon="-1.5062">
        <ele>39</ele>
        <time>2026-02-23T07:03:08.000Z</time>
      </trkpt>
      <trkpt lat="43.4458" lon="-1.50662">
        <ele>41</ele>
        <time>2026-02-23T07:03:13.000Z</time>
      </trkpt>
      <trkpt lat="43.44577" lon="-1.50685">
        <ele>42</ele>
        <time>2026-02-23T07:03:16.000Z</time>
      </trkpt>
      <trkpt lat="43.44569" lon="-1.50704">
        <ele>44</ele>
        <time>2026-02-23T07:03:19.000Z</time>
      </trkpt>
      <trkpt lat="43.44554" lon="-1.50725">
        <ele>46</ele>
        <time>2026-02-23T07:03:23.000Z</time>
      </trkpt>
      <trkpt lat="43.4452" lon="-1.50746">
        <ele>48</ele>
        <time>2026-02-23T07:03:29.000Z</time>
      </trkpt>
      <trkpt lat="43.44512" lon="-1.50755">
        <ele>48</ele>
        <time>2026-02-23T07:03:31.000Z</time>
      </trkpt>
      <trkpt lat="43.4451" lon="-1.50777">
        <ele>49</ele>
        <time>2026-02-23T07:03:34.000Z</time>
      </trkpt>
      <trkpt lat="43.44527" lon="-1.50828">
        <ele>52</ele>
        <time>2026-02-23T07:03:41.000Z</time>
      </trkpt>
      <trkpt lat="43.4458" lon="-1.50905">
        <ele>55</ele>
        <time>2026-02-23T07:03:55.000Z</time>
      </trkpt>
      <trkpt lat="43.44614" lon="-1.50994">
        <ele>52</ele>
        <time>2026-02-23T07:04:08.000Z</time>
      </trkpt>
      <trkpt lat="43.44643" lon="-1.51105">
        <ele>52</ele>
        <time>2026-02-23T07:04:23.000Z</time>
      </trkpt>
      <trkpt lat="43.44667" lon="-1.51262">
        <ele>56</ele>
        <time>2026-02-23T07:04:44.000Z</time>
      </trkpt>
      <trkpt lat="43.44683" lon="-1.51317">
        <ele>58</ele>
        <time>2026-02-23T07:04:52.000Z</time>
      </trkpt>
      <trkpt lat="43.44715" lon="-1.51421">
        <ele>70</ele>
        <time>2026-02-23T07:05:06.000Z</time>
      </trkpt>
      <trkpt lat="43.44761" lon="-1.51537">
        <ele>74</ele>
        <time>2026-02-23T07:05:23.000Z</time>
      </trkpt>
      <trkpt lat="43.44761" lon="-1.51537">
        <ele>74</ele>
        <time>2026-02-23T07:05:23.000Z</time>
      </trkpt>
      <trkpt lat="43.44782" lon="-1.5159">
        <ele>75</ele>
        <time>2026-02-23T07:05:31.000Z</time>
      </trkpt>
      <trkpt lat="43.44809" lon="-1.51682">
        <ele>78</ele>
        <time>2026-02-23T07:05:44.000Z</time>
      </trkpt>
      <trkpt lat="43.4471" lon="-1.51621">
        <ele>75</ele>
        <time>2026-02-23T07:06:03.000Z</time>
      </trkpt>
      <trkpt lat="43.44687" lon="-1.51617">
        <ele>75</ele>
        <time>2026-02-23T07:06:07.000Z</time>
      </trkpt>
      <trkpt lat="43.44647" lon="-1.51623">
        <ele>74</ele>
        <time>2026-02-23T07:06:15.000Z</time>
      </trkpt>
      <trkpt lat="43.4452" lon="-1.51653">
        <ele>72</ele>
        <time>2026-02-23T07:06:38.000Z</time>
      </trkpt>
      <trkpt lat="43.44422" lon="-1.51662">
        <ele>69</ele>
        <time>2026-02-23T07:06:55.000Z</time>
      </trkpt>
      <trkpt lat="43.44395" lon="-1.51668">
        <ele>69</ele>
        <time>2026-02-23T07:07:00.000Z</time>
      </trkpt>
      <trkpt lat="43.44338" lon="-1.51698">
        <ele>69</ele>
        <time>2026-02-23T07:07:11.000Z</time>
      </trkpt>
      <trkpt lat="43.44306" lon="-1.51719">
        <ele>69</ele>
        <time>2026-02-23T07:07:17.000Z</time>
      </trkpt>
      <trkpt lat="43.4419" lon="-1.51755">
        <ele>67</ele>
        <time>2026-02-23T07:07:38.000Z</time>
      </trkpt>
      <trkpt lat="43.44176" lon="-1.51761">
        <ele>66</ele>
        <time>2026-02-23T07:07:41.000Z</time>
      </trkpt>
      <trkpt lat="43.44152" lon="-1.5178">
        <ele>67</ele>
        <time>2026-02-23T07:07:46.000Z</time>
      </trkpt>
      <trkpt lat="43.44082" lon="-1.51859">
        <ele>71</ele>
        <time>2026-02-23T07:08:02.000Z</time>
      </trkpt>
      <trkpt lat="43.44048" lon="-1.51911">
        <ele>67</ele>
        <time>2026-02-23T07:08:11.000Z</time>
      </trkpt>
      <trkpt lat="43.4403" lon="-1.51929">
        <ele>66</ele>
        <time>2026-02-23T07:08:15.000Z</time>
      </trkpt>
      <trkpt lat="43.44005" lon="-1.51947">
        <ele>66</ele>
        <time>2026-02-23T07:08:20.000Z</time>
      </trkpt>
      <trkpt lat="43.43839" lon="-1.52041">
        <ele>61</ele>
        <time>2026-02-23T07:08:52.000Z</time>
      </trkpt>
      <trkpt lat="43.43822" lon="-1.5205">
        <ele>63</ele>
        <time>2026-02-23T07:08:55.000Z</time>
      </trkpt>
      <trkpt lat="43.43806" lon="-1.52051">
        <ele>64</ele>
        <time>2026-02-23T07:08:58.000Z</time>
      </trkpt>
      <trkpt lat="43.43756" lon="-1.5203">
        <ele>68</ele>
        <time>2026-02-23T07:09:07.000Z</time>
      </trkpt>
      <trkpt lat="43.43531" lon="-1.51924">
        <ele>72</ele>
        <time>2026-02-23T07:09:49.000Z</time>
      </trkpt>
      <trkpt lat="43.43526" lon="-1.51938">
        <ele>71</ele>
        <time>2026-02-23T07:09:51.000Z</time>
      </trkpt>
      <trkpt lat="43.43519" lon="-1.51942">
        <ele>70</ele>
        <time>2026-02-23T07:09:53.000Z</time>
      </trkpt>
      <trkpt lat="43.43512" lon="-1.51942">
        <ele>69</ele>
        <time>2026-02-23T07:09:54.000Z</time>
      </trkpt>
      <trkpt lat="43.43504" lon="-1.51936">
        <ele>69</ele>
        <time>2026-02-23T07:09:56.000Z</time>
      </trkpt>
      <trkpt lat="43.43501" lon="-1.51925">
        <ele>70</ele>
        <time>2026-02-23T07:09:57.000Z</time>
      </trkpt>
      <trkpt lat="43.43501" lon="-1.51918">
        <ele>70</ele>
        <time>2026-02-23T07:09:58.000Z</time>
      </trkpt>
      <trkpt lat="43.43503" lon="-1.5191">
        <ele>70</ele>
        <time>2026-02-23T07:09:59.000Z</time>
      </trkpt>
      <trkpt lat="43.4351" lon="-1.51903">
        <ele>71</ele>
        <time>2026-02-23T07:10:01.000Z</time>
      </trkpt>
      <trkpt lat="43.43513" lon="-1.51901">
        <ele>71</ele>
        <time>2026-02-23T07:10:01.000Z</time>
      </trkpt>
      <trkpt lat="43.4346" lon="-1.51674">
        <ele>75</ele>
        <time>2026-02-23T07:10:32.000Z</time>
      </trkpt>
      <trkpt lat="43.43419" lon="-1.51549">
        <ele>74</ele>
        <time>2026-02-23T07:10:50.000Z</time>
      </trkpt>
      <trkpt lat="43.43387" lon="-1.51468">
        <ele>74</ele>
        <time>2026-02-23T07:11:02.000Z</time>
      </trkpt>
      <trkpt lat="43.43373" lon="-1.5144">
        <ele>75</ele>
        <time>2026-02-23T07:11:06.000Z</time>
      </trkpt>
      <trkpt lat="43.43352" lon="-1.51407">
        <ele>74</ele>
        <time>2026-02-23T07:11:12.000Z</time>
      </trkpt>
      <trkpt lat="43.43329" lon="-1.51379">
        <ele>73</ele>
        <time>2026-02-23T07:11:17.000Z</time>
      </trkpt>
      <trkpt lat="43.43298" lon="-1.51353">
        <ele>71</ele>
        <time>2026-02-23T07:11:24.000Z</time>
      </trkpt>
      <trkpt lat="43.43286" lon="-1.51347">
        <ele>71</ele>
        <time>2026-02-23T07:11:26.000Z</time>
      </trkpt>
      <trkpt lat="43.4327" lon="-1.51344">
        <ele>71</ele>
        <time>2026-02-23T07:11:29.000Z</time>
      </trkpt>
      <trkpt lat="43.43256" lon="-1.51345">
        <ele>71</ele>
        <time>2026-02-23T07:11:31.000Z</time>
      </trkpt>
      <trkpt lat="43.43212" lon="-1.51359">
        <ele>71</ele>
        <time>2026-02-23T07:11:39.000Z</time>
      </trkpt>
      <trkpt lat="43.43185" lon="-1.51365">
        <ele>71</ele>
        <time>2026-02-23T07:11:44.000Z</time>
      </trkpt>
      <trkpt lat="43.43145" lon="-1.51362">
        <ele>71</ele>
        <time>2026-02-23T07:11:51.000Z</time>
      </trkpt>
      <trkpt lat="43.43088" lon="-1.5134">
        <ele>72</ele>
        <time>2026-02-23T07:12:02.000Z</time>
      </trkpt>
      <trkpt lat="43.43068" lon="-1.51335">
        <ele>72</ele>
        <time>2026-02-23T07:12:06.000Z</time>
      </trkpt>
      <trkpt lat="43.42994" lon="-1.51328">
        <ele>72</ele>
        <time>2026-02-23T07:12:19.000Z</time>
      </trkpt>
      <trkpt lat="43.42976" lon="-1.51329">
        <ele>72</ele>
        <time>2026-02-23T07:12:22.000Z</time>
      </trkpt>
      <trkpt lat="43.4296" lon="-1.51336">
        <ele>73</ele>
        <time>2026-02-23T07:12:25.000Z</time>
      </trkpt>
      <trkpt lat="43.42943" lon="-1.51351">
        <ele>72</ele>
        <time>2026-02-23T07:12:29.000Z</time>
      </trkpt>
      <trkpt lat="43.4293" lon="-1.51367">
        <ele>71</ele>
        <time>2026-02-23T07:12:32.000Z</time>
      </trkpt>
      <trkpt lat="43.42901" lon="-1.51424">
        <ele>68</ele>
        <time>2026-02-23T07:12:41.000Z</time>
      </trkpt>
      <trkpt lat="43.42889" lon="-1.51436">
        <ele>67</ele>
        <time>2026-02-23T07:12:43.000Z</time>
      </trkpt>
      <trkpt lat="43.42869" lon="-1.51446">
        <ele>68</ele>
        <time>2026-02-23T07:12:47.000Z</time>
      </trkpt>
      <trkpt lat="43.4285" lon="-1.51447">
        <ele>68</ele>
        <time>2026-02-23T07:12:50.000Z</time>
      </trkpt>
      <trkpt lat="43.42825" lon="-1.51444">
        <ele>69</ele>
        <time>2026-02-23T07:12:55.000Z</time>
      </trkpt>
      <trkpt lat="43.42808" lon="-1.51439">
        <ele>69</ele>
        <time>2026-02-23T07:12:58.000Z</time>
      </trkpt>
      <trkpt lat="43.42776" lon="-1.51417">
        <ele>69</ele>
        <time>2026-02-23T07:13:04.000Z</time>
      </trkpt>
      <trkpt lat="43.42748" lon="-1.51391">
        <ele>68</ele>
        <time>2026-02-23T07:13:10.000Z</time>
      </trkpt>
      <trkpt lat="43.42739" lon="-1.51376">
        <ele>68</ele>
        <time>2026-02-23T07:13:13.000Z</time>
      </trkpt>
      <trkpt lat="43.42731" lon="-1.51359">
        <ele>68</ele>
        <time>2026-02-23T07:13:16.000Z</time>
      </trkpt>
      <trkpt lat="43.42724" lon="-1.51336">
        <ele>68</ele>
        <time>2026-02-23T07:13:19.000Z</time>
      </trkpt>
      <trkpt lat="43.42693" lon="-1.51182">
        <ele>61</ele>
        <time>2026-02-23T07:13:39.000Z</time>
      </trkpt>
      <trkpt lat="43.42685" lon="-1.51155">
        <ele>60</ele>
        <time>2026-02-23T07:13:43.000Z</time>
      </trkpt>
      <trkpt lat="43.42677" lon="-1.51144">
        <ele>59</ele>
        <time>2026-02-23T07:13:45.000Z</time>
      </trkpt>
      <trkpt lat="43.42668" lon="-1.51139">
        <ele>59</ele>
        <time>2026-02-23T07:13:47.000Z</time>
      </trkpt>
      <trkpt lat="43.42658" lon="-1.51137">
        <ele>59</ele>
        <time>2026-02-23T07:13:49.000Z</time>
      </trkpt>
      <trkpt lat="43.42647" lon="-1.51139">
        <ele>58</ele>
        <time>2026-02-23T07:13:51.000Z</time>
      </trkpt>
      <trkpt lat="43.42635" lon="-1.51149">
        <ele>58</ele>
        <time>2026-02-23T07:13:53.000Z</time>
      </trkpt>
      <trkpt lat="43.42574" lon="-1.51225">
        <ele>57</ele>
        <time>2026-02-23T07:14:08.000Z</time>
      </trkpt>
      <trkpt lat="43.42564" lon="-1.51233">
        <ele>57</ele>
        <time>2026-02-23T07:14:10.000Z</time>
      </trkpt>
      <trkpt lat="43.42552" lon="-1.51237">
        <ele>57</ele>
        <time>2026-02-23T07:14:12.000Z</time>
      </trkpt>
      <trkpt lat="43.42538" lon="-1.51234">
        <ele>56</ele>
        <time>2026-02-23T07:14:15.000Z</time>
      </trkpt>
      <trkpt lat="43.42526" lon="-1.51228">
        <ele>55</ele>
        <time>2026-02-23T07:14:17.000Z</time>
      </trkpt>
      <trkpt lat="43.42415" lon="-1.51117">
        <ele>55</ele>
        <time>2026-02-23T07:14:41.000Z</time>
      </trkpt>
      <trkpt lat="43.42355" lon="-1.5106">
        <ele>58</ele>
        <time>2026-02-23T07:14:54.000Z</time>
      </trkpt>
      <trkpt lat="43.42313" lon="-1.51038">
        <ele>59</ele>
        <time>2026-02-23T07:15:02.000Z</time>
      </trkpt>
      <trkpt lat="43.42233" lon="-1.51008">
        <ele>61</ele>
        <time>2026-02-23T07:15:17.000Z</time>
      </trkpt>
      <trkpt lat="43.42217" lon="-1.50998">
        <ele>61</ele>
        <time>2026-02-23T07:15:20.000Z</time>
      </trkpt>
      <trkpt lat="43.42167" lon="-1.50946">
        <ele>61</ele>
        <time>2026-02-23T07:15:31.000Z</time>
      </trkpt>
      <trkpt lat="43.42153" lon="-1.50923">
        <ele>61</ele>
        <time>2026-02-23T07:15:35.000Z</time>
      </trkpt>
      <trkpt lat="43.421" lon="-1.50795">
        <ele>61</ele>
        <time>2026-02-23T07:15:54.000Z</time>
      </trkpt>
      <trkpt lat="43.42094" lon="-1.50783">
        <ele>61</ele>
        <time>2026-02-23T07:15:56.000Z</time>
      </trkpt>
      <trkpt lat="43.42087" lon="-1.50774">
        <ele>61</ele>
        <time>2026-02-23T07:15:58.000Z</time>
      </trkpt>
      <trkpt lat="43.42077" lon="-1.50766">
        <ele>61</ele>
        <time>2026-02-23T07:16:00.000Z</time>
      </trkpt>
      <trkpt lat="43.42066" lon="-1.50761">
        <ele>60</ele>
        <time>2026-02-23T07:16:02.000Z</time>
      </trkpt>
      <trkpt lat="43.42055" lon="-1.50761">
        <ele>60</ele>
        <time>2026-02-23T07:16:04.000Z</time>
      </trkpt>
      <trkpt lat="43.4204" lon="-1.50766">
        <ele>61</ele>
        <time>2026-02-23T07:16:07.000Z</time>
      </trkpt>
      <trkpt lat="43.41965" lon="-1.50823">
        <ele>67</ele>
        <time>2026-02-23T07:16:22.000Z</time>
      </trkpt>
      <trkpt lat="43.41952" lon="-1.50827">
        <ele>67</ele>
        <time>2026-02-23T07:16:24.000Z</time>
      </trkpt>
      <trkpt lat="43.41939" lon="-1.50825">
        <ele>67</ele>
        <time>2026-02-23T07:16:27.000Z</time>
      </trkpt>
      <trkpt lat="43.41926" lon="-1.50818">
        <ele>67</ele>
        <time>2026-02-23T07:16:29.000Z</time>
      </trkpt>
      <trkpt lat="43.41843" lon="-1.50702">
        <ele>66</ele>
        <time>2026-02-23T07:16:50.000Z</time>
      </trkpt>
      <trkpt lat="43.41829" lon="-1.50687">
        <ele>67</ele>
        <time>2026-02-23T07:16:53.000Z</time>
      </trkpt>
      <trkpt lat="43.41807" lon="-1.50675">
        <ele>67</ele>
        <time>2026-02-23T07:16:57.000Z</time>
      </trkpt>
      <trkpt lat="43.4175" lon="-1.50649">
        <ele>68</ele>
        <time>2026-02-23T07:17:08.000Z</time>
      </trkpt>
      <trkpt lat="43.41722" lon="-1.50646">
        <ele>67</ele>
        <time>2026-02-23T07:17:13.000Z</time>
      </trkpt>
      <trkpt lat="43.41686" lon="-1.50655">
        <ele>67</ele>
        <time>2026-02-23T07:17:20.000Z</time>
      </trkpt>
      <trkpt lat="43.41676" lon="-1.50655">
        <ele>67</ele>
        <time>2026-02-23T07:17:21.000Z</time>
      </trkpt>
      <trkpt lat="43.41667" lon="-1.5065">
        <ele>66</ele>
        <time>2026-02-23T07:17:23.000Z</time>
      </trkpt>
      <trkpt lat="43.41641" lon="-1.50624">
        <ele>66</ele>
        <time>2026-02-23T07:17:29.000Z</time>
      </trkpt>
      <trkpt lat="43.41629" lon="-1.50618">
        <ele>65</ele>
        <time>2026-02-23T07:17:31.000Z</time>
      </trkpt>
      <trkpt lat="43.41617" lon="-1.50616">
        <ele>66</ele>
        <time>2026-02-23T07:17:33.000Z</time>
      </trkpt>
      <trkpt lat="43.41603" lon="-1.5062">
        <ele>66</ele>
        <time>2026-02-23T07:17:36.000Z</time>
      </trkpt>
      <trkpt lat="43.41562" lon="-1.50642">
        <ele>68</ele>
        <time>2026-02-23T07:17:44.000Z</time>
      </trkpt>
      <trkpt lat="43.41551" lon="-1.50645">
        <ele>68</ele>
        <time>2026-02-23T07:17:46.000Z</time>
      </trkpt>
      <trkpt lat="43.4154" lon="-1.50646">
        <ele>68</ele>
        <time>2026-02-23T07:17:48.000Z</time>
      </trkpt>
      <trkpt lat="43.41518" lon="-1.50641">
        <ele>67</ele>
        <time>2026-02-23T07:17:52.000Z</time>
      </trkpt>
      <trkpt lat="43.41466" lon="-1.50626">
        <ele>67</ele>
        <time>2026-02-23T07:18:01.000Z</time>
      </trkpt>
      <trkpt lat="43.41404" lon="-1.50621">
        <ele>70</ele>
        <time>2026-02-23T07:18:12.000Z</time>
      </trkpt>
      <trkpt lat="43.41387" lon="-1.50617">
        <ele>70</ele>
        <time>2026-02-23T07:18:15.000Z</time>
      </trkpt>
      <trkpt lat="43.41372" lon="-1.50611">
        <ele>70</ele>
        <time>2026-02-23T07:18:18.000Z</time>
      </trkpt>
      <trkpt lat="43.41356" lon="-1.50596">
        <ele>70</ele>
        <time>2026-02-23T07:18:21.000Z</time>
      </trkpt>
      <trkpt lat="43.41331" lon="-1.50568">
        <ele>71</ele>
        <time>2026-02-23T07:18:27.000Z</time>
      </trkpt>
      <trkpt lat="43.41311" lon="-1.5054">
        <ele>71</ele>
        <time>2026-02-23T07:18:32.000Z</time>
      </trkpt>
      <trkpt lat="43.41293" lon="-1.5051">
        <ele>72</ele>
        <time>2026-02-23T07:18:37.000Z</time>
      </trkpt>
      <trkpt lat="43.41251" lon="-1.50453">
        <ele>75</ele>
        <time>2026-02-23T07:18:48.000Z</time>
      </trkpt>
      <trkpt lat="43.4124" lon="-1.50442">
        <ele>75</ele>
        <time>2026-02-23T07:18:50.000Z</time>
      </trkpt>
      <trkpt lat="43.41226" lon="-1.50437">
        <ele>75</ele>
        <time>2026-02-23T07:18:53.000Z</time>
      </trkpt>
      <trkpt lat="43.41214" lon="-1.50438">
        <ele>74</ele>
        <time>2026-02-23T07:18:55.000Z</time>
      </trkpt>
      <trkpt lat="43.41202" lon="-1.50443">
        <ele>74</ele>
        <time>2026-02-23T07:18:57.000Z</time>
      </trkpt>
      <trkpt lat="43.41191" lon="-1.50454">
        <ele>73</ele>
        <time>2026-02-23T07:18:59.000Z</time>
      </trkpt>
      <trkpt lat="43.41181" lon="-1.50474">
        <ele>73</ele>
        <time>2026-02-23T07:19:03.000Z</time>
      </trkpt>
      <trkpt lat="43.4117" lon="-1.50498">
        <ele>72</ele>
        <time>2026-02-23T07:19:06.000Z</time>
      </trkpt>
      <trkpt lat="43.41156" lon="-1.5051">
        <ele>72</ele>
        <time>2026-02-23T07:19:09.000Z</time>
      </trkpt>
      <trkpt lat="43.41116" lon="-1.50523">
        <ele>70</ele>
        <time>2026-02-23T07:19:17.000Z</time>
      </trkpt>
      <trkpt lat="43.41094" lon="-1.50533">
        <ele>70</ele>
        <time>2026-02-23T07:19:21.000Z</time>
      </trkpt>
      <trkpt lat="43.41004" lon="-1.50586">
        <ele>71</ele>
        <time>2026-02-23T07:19:38.000Z</time>
      </trkpt>
      <trkpt lat="43.40989" lon="-1.50598">
        <ele>71</ele>
        <time>2026-02-23T07:19:41.000Z</time>
      </trkpt>
      <trkpt lat="43.40962" lon="-1.5064">
        <ele>73</ele>
        <time>2026-02-23T07:19:48.000Z</time>
      </trkpt>
      <trkpt lat="43.40948" lon="-1.50654">
        <ele>74</ele>
        <time>2026-02-23T07:19:51.000Z</time>
      </trkpt>
      <trkpt lat="43.40931" lon="-1.5066">
        <ele>76</ele>
        <time>2026-02-23T07:19:55.000Z</time>
      </trkpt>
      <trkpt lat="43.40919" lon="-1.5066">
        <ele>76</ele>
        <time>2026-02-23T07:19:57.000Z</time>
      </trkpt>
      <trkpt lat="43.40906" lon="-1.50656">
        <ele>77</ele>
        <time>2026-02-23T07:19:59.000Z</time>
      </trkpt>
      <trkpt lat="43.40893" lon="-1.50642">
        <ele>77</ele>
        <time>2026-02-23T07:20:02.000Z</time>
      </trkpt>
      <trkpt lat="43.40862" lon="-1.5059">
        <ele>77</ele>
        <time>2026-02-23T07:20:11.000Z</time>
      </trkpt>
      <trkpt lat="43.40845" lon="-1.50574">
        <ele>78</ele>
        <time>2026-02-23T07:20:14.000Z</time>
      </trkpt>
      <trkpt lat="43.40827" lon="-1.50564">
        <ele>79</ele>
        <time>2026-02-23T07:20:18.000Z</time>
      </trkpt>
      <trkpt lat="43.40803" lon="-1.50556">
        <ele>80</ele>
        <time>2026-02-23T07:20:22.000Z</time>
      </trkpt>
      <trkpt lat="43.40793" lon="-1.50549">
        <ele>81</ele>
        <time>2026-02-23T07:20:24.000Z</time>
      </trkpt>
      <trkpt lat="43.40786" lon="-1.50538">
        <ele>81</ele>
        <time>2026-02-23T07:20:26.000Z</time>
      </trkpt>
      <trkpt lat="43.40781" lon="-1.50518">
        <ele>82</ele>
        <time>2026-02-23T07:20:29.000Z</time>
      </trkpt>
      <trkpt lat="43.40777" lon="-1.50481">
        <ele>81</ele>
        <time>2026-02-23T07:20:34.000Z</time>
      </trkpt>
      <trkpt lat="43.40771" lon="-1.50464">
        <ele>80</ele>
        <time>2026-02-23T07:20:36.000Z</time>
      </trkpt>
      <trkpt lat="43.40763" lon="-1.5045">
        <ele>80</ele>
        <time>2026-02-23T07:20:38.000Z</time>
      </trkpt>
      <trkpt lat="43.40747" lon="-1.5044">
        <ele>81</ele>
        <time>2026-02-23T07:20:42.000Z</time>
      </trkpt>
      <trkpt lat="43.40666" lon="-1.50399">
        <ele>86</ele>
        <time>2026-02-23T07:20:57.000Z</time>
      </trkpt>
      <trkpt lat="43.40652" lon="-1.50394">
        <ele>87</ele>
        <time>2026-02-23T07:21:00.000Z</time>
      </trkpt>
      <trkpt lat="43.40636" lon="-1.50391">
        <ele>88</ele>
        <time>2026-02-23T07:21:02.000Z</time>
      </trkpt>
      <trkpt lat="43.40568" lon="-1.50403">
        <ele>90</ele>
        <time>2026-02-23T07:21:15.000Z</time>
      </trkpt>
      <trkpt lat="43.40553" lon="-1.50412">
        <ele>91</ele>
        <time>2026-02-23T07:21:18.000Z</time>
      </trkpt>
      <trkpt lat="43.40544" lon="-1.50422">
        <ele>90</ele>
        <time>2026-02-23T07:21:20.000Z</time>
      </trkpt>
      <trkpt lat="43.40516" lon="-1.5047">
        <ele>89</ele>
        <time>2026-02-23T07:21:28.000Z</time>
      </trkpt>
      <trkpt lat="43.40505" lon="-1.50479">
        <ele>89</ele>
        <time>2026-02-23T07:21:30.000Z</time>
      </trkpt>
      <trkpt lat="43.40496" lon="-1.50482">
        <ele>89</ele>
        <time>2026-02-23T07:21:31.000Z</time>
      </trkpt>
      <trkpt lat="43.40485" lon="-1.5048">
        <ele>89</ele>
        <time>2026-02-23T07:21:33.000Z</time>
      </trkpt>
      <trkpt lat="43.40474" lon="-1.50475">
        <ele>89</ele>
        <time>2026-02-23T07:21:35.000Z</time>
      </trkpt>
      <trkpt lat="43.40442" lon="-1.50435">
        <ele>92</ele>
        <time>2026-02-23T07:21:43.000Z</time>
      </trkpt>
      <trkpt lat="43.40431" lon="-1.50425">
        <ele>92</ele>
        <time>2026-02-23T07:21:46.000Z</time>
      </trkpt>
      <trkpt lat="43.4042" lon="-1.50421">
        <ele>93</ele>
        <time>2026-02-23T07:21:48.000Z</time>
      </trkpt>
      <trkpt lat="43.4041" lon="-1.50423">
        <ele>93</ele>
        <time>2026-02-23T07:21:49.000Z</time>
      </trkpt>
      <trkpt lat="43.404" lon="-1.50427">
        <ele>93</ele>
        <time>2026-02-23T07:21:51.000Z</time>
      </trkpt>
      <trkpt lat="43.4036" lon="-1.50463">
        <ele>93</ele>
        <time>2026-02-23T07:22:00.000Z</time>
      </trkpt>
      <trkpt lat="43.40348" lon="-1.50475">
        <ele>93</ele>
        <time>2026-02-23T07:22:02.000Z</time>
      </trkpt>
      <trkpt lat="43.40338" lon="-1.50489">
        <ele>93</ele>
        <time>2026-02-23T07:22:05.000Z</time>
      </trkpt>
      <trkpt lat="43.4033" lon="-1.50505">
        <ele>93</ele>
        <time>2026-02-23T07:22:07.000Z</time>
      </trkpt>
      <trkpt lat="43.4029" lon="-1.5062">
        <ele>87</ele>
        <time>2026-02-23T07:22:24.000Z</time>
      </trkpt>
      <trkpt lat="43.40281" lon="-1.50639">
        <ele>87</ele>
        <time>2026-02-23T07:22:27.000Z</time>
      </trkpt>
      <trkpt lat="43.40269" lon="-1.50655">
        <ele>86</ele>
        <time>2026-02-23T07:22:30.000Z</time>
      </trkpt>
      <trkpt lat="43.40252" lon="-1.50668">
        <ele>87</ele>
        <time>2026-02-23T07:22:33.000Z</time>
      </trkpt>
      <trkpt lat="43.40223" lon="-1.50687">
        <ele>86</ele>
        <time>2026-02-23T07:22:39.000Z</time>
      </trkpt>
      <trkpt lat="43.40165" lon="-1.50737">
        <ele>85</ele>
        <time>2026-02-23T07:22:51.000Z</time>
      </trkpt>
      <trkpt lat="43.40153" lon="-1.50743">
        <ele>84</ele>
        <time>2026-02-23T07:22:53.000Z</time>
      </trkpt>
      <trkpt lat="43.40135" lon="-1.50745">
        <ele>84</ele>
        <time>2026-02-23T07:22:57.000Z</time>
      </trkpt>
      <trkpt lat="43.40125" lon="-1.50742">
        <ele>83</ele>
        <time>2026-02-23T07:22:58.000Z</time>
      </trkpt>
      <trkpt lat="43.40114" lon="-1.50736">
        <ele>83</ele>
        <time>2026-02-23T07:23:01.000Z</time>
      </trkpt>
      <trkpt lat="43.39942" lon="-1.50614">
        <ele>84</ele>
        <time>2026-02-23T07:23:35.000Z</time>
      </trkpt>
      <trkpt lat="43.39924" lon="-1.50605">
        <ele>84</ele>
        <time>2026-02-23T07:23:38.000Z</time>
      </trkpt>
      <trkpt lat="43.39908" lon="-1.50601">
        <ele>85</ele>
        <time>2026-02-23T07:23:41.000Z</time>
      </trkpt>
      <trkpt lat="43.3989" lon="-1.50599">
        <ele>86</ele>
        <time>2026-02-23T07:23:44.000Z</time>
      </trkpt>
      <trkpt lat="43.39877" lon="-1.50602">
        <ele>86</ele>
        <time>2026-02-23T07:23:47.000Z</time>
      </trkpt>
      <trkpt lat="43.39862" lon="-1.50605">
        <ele>86</ele>
        <time>2026-02-23T07:23:50.000Z</time>
      </trkpt>
      <trkpt lat="43.39847" lon="-1.50613">
        <ele>86</ele>
        <time>2026-02-23T07:23:52.000Z</time>
      </trkpt>
      <trkpt lat="43.39829" lon="-1.50627">
        <ele>86</ele>
        <time>2026-02-23T07:23:56.000Z</time>
      </trkpt>
      <trkpt lat="43.39753" lon="-1.50694">
        <ele>89</ele>
        <time>2026-02-23T07:24:12.000Z</time>
      </trkpt>
      <trkpt lat="43.39696" lon="-1.50757">
        <ele>91</ele>
        <time>2026-02-23T07:24:25.000Z</time>
      </trkpt>
      <trkpt lat="43.39673" lon="-1.5078">
        <ele>92</ele>
        <time>2026-02-23T07:24:30.000Z</time>
      </trkpt>
      <trkpt lat="43.39563" lon="-1.50869">
        <ele>93</ele>
        <time>2026-02-23T07:24:53.000Z</time>
      </trkpt>
      <trkpt lat="43.39563" lon="-1.50869">
        <ele>93</ele>
        <time>2026-02-23T07:24:53.000Z</time>
      </trkpt>
      <trkpt lat="43.39544" lon="-1.5088">
        <ele>93</ele>
        <time>2026-02-23T07:24:57.000Z</time>
      </trkpt>
      <trkpt lat="43.39367" lon="-1.50934">
        <ele>97</ele>
        <time>2026-02-23T07:25:29.000Z</time>
      </trkpt>
      <trkpt lat="43.39257" lon="-1.50928">
        <ele>101</ele>
        <time>2026-02-23T07:25:48.000Z</time>
      </trkpt>
      <trkpt lat="43.39143" lon="-1.50927">
        <ele>105</ele>
        <time>2026-02-23T07:26:09.000Z</time>
      </trkpt>
      <trkpt lat="43.39034" lon="-1.5093">
        <ele>104</ele>
        <time>2026-02-23T07:26:28.000Z</time>
      </trkpt>
      <trkpt lat="43.38993" lon="-1.50922">
        <ele>104</ele>
        <time>2026-02-23T07:26:35.000Z</time>
      </trkpt>
      <trkpt lat="43.38913" lon="-1.50897">
        <ele>105</ele>
        <time>2026-02-23T07:26:50.000Z</time>
      </trkpt>
      <trkpt lat="43.38896" lon="-1.50886">
        <ele>105</ele>
        <time>2026-02-23T07:26:53.000Z</time>
      </trkpt>
      <trkpt lat="43.38883" lon="-1.50871">
        <ele>106</ele>
        <time>2026-02-23T07:26:56.000Z</time>
      </trkpt>
      <trkpt lat="43.38779" lon="-1.50691">
        <ele>118</ele>
        <time>2026-02-23T07:27:26.000Z</time>
      </trkpt>
      <trkpt lat="43.38751" lon="-1.50652">
        <ele>119</ele>
        <time>2026-02-23T07:27:33.000Z</time>
      </trkpt>
      <trkpt lat="43.38731" lon="-1.5064">
        <ele>119</ele>
        <time>2026-02-23T07:27:37.000Z</time>
      </trkpt>
      <trkpt lat="43.38673" lon="-1.50618">
        <ele>121</ele>
        <time>2026-02-23T07:27:48.000Z</time>
      </trkpt>
      <trkpt lat="43.38628" lon="-1.50587">
        <ele>121</ele>
        <time>2026-02-23T07:27:57.000Z</time>
      </trkpt>
      <trkpt lat="43.38611" lon="-1.50577">
        <ele>121</ele>
        <time>2026-02-23T07:28:00.000Z</time>
      </trkpt>
      <trkpt lat="43.38597" lon="-1.50576">
        <ele>121</ele>
        <time>2026-02-23T07:28:03.000Z</time>
      </trkpt>
      <trkpt lat="43.38575" lon="-1.50578">
        <ele>123</ele>
        <time>2026-02-23T07:28:06.000Z</time>
      </trkpt>
      <trkpt lat="43.3854" lon="-1.50587">
        <ele>125</ele>
        <time>2026-02-23T07:28:13.000Z</time>
      </trkpt>
      <trkpt lat="43.38525" lon="-1.50587">
        <ele>126</ele>
        <time>2026-02-23T07:28:15.000Z</time>
      </trkpt>
      <trkpt lat="43.38504" lon="-1.5058">
        <ele>126</ele>
        <time>2026-02-23T07:28:19.000Z</time>
      </trkpt>
      <trkpt lat="43.3834" lon="-1.50488">
        <ele>126</ele>
        <time>2026-02-23T07:28:51.000Z</time>
      </trkpt>
      <trkpt lat="43.38306" lon="-1.50472">
        <ele>127</ele>
        <time>2026-02-23T07:28:57.000Z</time>
      </trkpt>
      <trkpt lat="43.3826" lon="-1.50458">
        <ele>127</ele>
        <time>2026-02-23T07:29:06.000Z</time>
      </trkpt>
      <trkpt lat="43.3815" lon="-1.50433">
        <ele>127</ele>
        <time>2026-02-23T07:29:25.000Z</time>
      </trkpt>
      <trkpt lat="43.38125" lon="-1.5043">
        <ele>127</ele>
        <time>2026-02-23T07:29:30.000Z</time>
      </trkpt>
      <trkpt lat="43.38017" lon="-1.50433">
        <ele>128</ele>
        <time>2026-02-23T07:29:49.000Z</time>
      </trkpt>
      <trkpt lat="43.37996" lon="-1.50438">
        <ele>128</ele>
        <time>2026-02-23T07:29:53.000Z</time>
      </trkpt>
      <trkpt lat="43.37963" lon="-1.50452">
        <ele>129</ele>
        <time>2026-02-23T07:29:59.000Z</time>
      </trkpt>
      <trkpt lat="43.37947" lon="-1.50456">
        <ele>129</ele>
        <time>2026-02-23T07:30:02.000Z</time>
      </trkpt>
      <trkpt lat="43.37933" lon="-1.50453">
        <ele>129</ele>
        <time>2026-02-23T07:30:04.000Z</time>
      </trkpt>
      <trkpt lat="43.37906" lon="-1.50439">
        <ele>129</ele>
        <time>2026-02-23T07:30:10.000Z</time>
      </trkpt>
      <trkpt lat="43.3789" lon="-1.50437">
        <ele>128</ele>
        <time>2026-02-23T07:30:12.000Z</time>
      </trkpt>
      <trkpt lat="43.37878" lon="-1.50441">
        <ele>128</ele>
        <time>2026-02-23T07:30:15.000Z</time>
      </trkpt>
      <trkpt lat="43.37871" lon="-1.5045">
        <ele>127</ele>
        <time>2026-02-23T07:30:16.000Z</time>
      </trkpt>
      <trkpt lat="43.37867" lon="-1.50466">
        <ele>127</ele>
        <time>2026-02-23T07:30:19.000Z</time>
      </trkpt>
      <trkpt lat="43.37875" lon="-1.50531">
        <ele>128</ele>
        <time>2026-02-23T07:30:27.000Z</time>
      </trkpt>
      <trkpt lat="43.37871" lon="-1.50596">
        <ele>128</ele>
        <time>2026-02-23T07:30:36.000Z</time>
      </trkpt>
      <trkpt lat="43.37859" lon="-1.50665">
        <ele>129</ele>
        <time>2026-02-23T07:30:45.000Z</time>
      </trkpt>
      <trkpt lat="43.37847" lon="-1.50819">
        <ele>132</ele>
        <time>2026-02-23T07:31:05.000Z</time>
      </trkpt>
      <trkpt lat="43.3784" lon="-1.50843">
        <ele>132</ele>
        <time>2026-02-23T07:31:08.000Z</time>
      </trkpt>
      <trkpt lat="43.37787" lon="-1.5096">
        <ele>134</ele>
        <time>2026-02-23T07:31:26.000Z</time>
      </trkpt>
      <trkpt lat="43.37768" lon="-1.50997">
        <ele>135</ele>
        <time>2026-02-23T07:31:32.000Z</time>
      </trkpt>
      <trkpt lat="43.37737" lon="-1.51026">
        <ele>136</ele>
        <time>2026-02-23T07:31:38.000Z</time>
      </trkpt>
      <trkpt lat="43.37723" lon="-1.51051">
        <ele>137</ele>
        <time>2026-02-23T07:31:43.000Z</time>
      </trkpt>
      <trkpt lat="43.37704" lon="-1.51106">
        <ele>137</ele>
        <time>2026-02-23T07:31:50.000Z</time>
      </trkpt>
      <trkpt lat="43.37693" lon="-1.51128">
        <ele>136</ele>
        <time>2026-02-23T07:31:54.000Z</time>
      </trkpt>
      <trkpt lat="43.3768" lon="-1.51144">
        <ele>136</ele>
        <time>2026-02-23T07:31:57.000Z</time>
      </trkpt>
      <trkpt lat="43.37666" lon="-1.51152">
        <ele>136</ele>
        <time>2026-02-23T07:32:00.000Z</time>
      </trkpt>
      <trkpt lat="43.37641" lon="-1.51154">
        <ele>135</ele>
        <time>2026-02-23T07:32:04.000Z</time>
      </trkpt>
      <trkpt lat="43.37596" lon="-1.51133">
        <ele>136</ele>
        <time>2026-02-23T07:32:13.000Z</time>
      </trkpt>
      <trkpt lat="43.37576" lon="-1.51129">
        <ele>136</ele>
        <time>2026-02-23T07:32:16.000Z</time>
      </trkpt>
      <trkpt lat="43.37543" lon="-1.5113">
        <ele>136</ele>
        <time>2026-02-23T07:32:22.000Z</time>
      </trkpt>
      <trkpt lat="43.37523" lon="-1.51135">
        <ele>136</ele>
        <time>2026-02-23T07:32:26.000Z</time>
      </trkpt>
      <trkpt lat="43.37508" lon="-1.51147">
        <ele>136</ele>
        <time>2026-02-23T07:32:29.000Z</time>
      </trkpt>
      <trkpt lat="43.37498" lon="-1.51158">
        <ele>135</ele>
        <time>2026-02-23T07:32:31.000Z</time>
      </trkpt>
      <trkpt lat="43.37487" lon="-1.51176">
        <ele>134</ele>
        <time>2026-02-23T07:32:34.000Z</time>
      </trkpt>
      <trkpt lat="43.37462" lon="-1.51223">
        <ele>132</ele>
        <time>2026-02-23T07:32:42.000Z</time>
      </trkpt>
      <trkpt lat="43.37454" lon="-1.51254">
        <ele>132</ele>
        <time>2026-02-23T07:32:46.000Z</time>
      </trkpt>
      <trkpt lat="43.37452" lon="-1.51292">
        <ele>132</ele>
        <time>2026-02-23T07:32:51.000Z</time>
      </trkpt>
      <trkpt lat="43.37452" lon="-1.51326">
        <ele>131</ele>
        <time>2026-02-23T07:32:55.000Z</time>
      </trkpt>
      <trkpt lat="43.37448" lon="-1.51363">
        <ele>132</ele>
        <time>2026-02-23T07:33:00.000Z</time>
      </trkpt>
      <trkpt lat="43.37438" lon="-1.51436">
        <ele>133</ele>
        <time>2026-02-23T07:33:10.000Z</time>
      </trkpt>
      <trkpt lat="43.37427" lon="-1.51539">
        <ele>134</ele>
        <time>2026-02-23T07:33:23.000Z</time>
      </trkpt>
      <trkpt lat="43.37423" lon="-1.51565">
        <ele>134</ele>
        <time>2026-02-23T07:33:27.000Z</time>
      </trkpt>
      <trkpt lat="43.37411" lon="-1.51588">
        <ele>135</ele>
        <time>2026-02-23T07:33:30.000Z</time>
      </trkpt>
      <trkpt lat="43.374" lon="-1.51603">
        <ele>134</ele>
        <time>2026-02-23T07:33:33.000Z</time>
      </trkpt>
      <trkpt lat="43.37384" lon="-1.51611">
        <ele>134</ele>
        <time>2026-02-23T07:33:36.000Z</time>
      </trkpt>
      <trkpt lat="43.373" lon="-1.51641">
        <ele>137</ele>
        <time>2026-02-23T07:33:51.000Z</time>
      </trkpt>
      <trkpt lat="43.37279" lon="-1.51656">
        <ele>137</ele>
        <time>2026-02-23T07:33:56.000Z</time>
      </trkpt>
      <trkpt lat="43.37263" lon="-1.51685">
        <ele>138</ele>
        <time>2026-02-23T07:34:00.000Z</time>
      </trkpt>
      <trkpt lat="43.37249" lon="-1.51722">
        <ele>139</ele>
        <time>2026-02-23T07:34:06.000Z</time>
      </trkpt>
      <trkpt lat="43.37229" lon="-1.518">
        <ele>139</ele>
        <time>2026-02-23T07:34:16.000Z</time>
      </trkpt>
      <trkpt lat="43.37228" lon="-1.51845">
        <ele>139</ele>
        <time>2026-02-23T07:34:22.000Z</time>
      </trkpt>
      <trkpt lat="43.37239" lon="-1.51887">
        <ele>140</ele>
        <time>2026-02-23T07:34:28.000Z</time>
      </trkpt>
      <trkpt lat="43.37258" lon="-1.51934">
        <ele>139</ele>
        <time>2026-02-23T07:34:35.000Z</time>
      </trkpt>
      <trkpt lat="43.37275" lon="-1.52001">
        <ele>138</ele>
        <time>2026-02-23T07:34:44.000Z</time>
      </trkpt>
      <trkpt lat="43.37287" lon="-1.52055">
        <ele>138</ele>
        <time>2026-02-23T07:34:51.000Z</time>
      </trkpt>
      <trkpt lat="43.37289" lon="-1.52082">
        <ele>138</ele>
        <time>2026-02-23T07:34:55.000Z</time>
      </trkpt>
      <trkpt lat="43.37283" lon="-1.52118">
        <ele>138</ele>
        <time>2026-02-23T07:35:00.000Z</time>
      </trkpt>
      <trkpt lat="43.37271" lon="-1.52149">
        <ele>139</ele>
        <time>2026-02-23T07:35:04.000Z</time>
      </trkpt>
      <trkpt lat="43.37257" lon="-1.52177">
        <ele>139</ele>
        <time>2026-02-23T07:35:09.000Z</time>
      </trkpt>
      <trkpt lat="43.37235" lon="-1.52208">
        <ele>137</ele>
        <time>2026-02-23T07:35:14.000Z</time>
      </trkpt>
      <trkpt lat="43.37178" lon="-1.52275">
        <ele>134</ele>
        <time>2026-02-23T07:35:28.000Z</time>
      </trkpt>
      <trkpt lat="43.37147" lon="-1.52301">
        <ele>136</ele>
        <time>2026-02-23T07:35:34.000Z</time>
      </trkpt>
      <trkpt lat="43.37124" lon="-1.52316">
        <ele>138</ele>
        <time>2026-02-23T07:35:39.000Z</time>
      </trkpt>
      <trkpt lat="43.37089" lon="-1.52331">
        <ele>142</ele>
        <time>2026-02-23T07:35:45.000Z</time>
      </trkpt>
      <trkpt lat="43.37078" lon="-1.52342">
        <ele>143</ele>
        <time>2026-02-23T07:35:48.000Z</time>
      </trkpt>
      <trkpt lat="43.37071" lon="-1.52361">
        <ele>143</ele>
        <time>2026-02-23T07:35:50.000Z</time>
      </trkpt>
      <trkpt lat="43.37068" lon="-1.52455">
        <ele>141</ele>
        <time>2026-02-23T07:36:02.000Z</time>
      </trkpt>
      <trkpt lat="43.37064" lon="-1.52497">
        <ele>141</ele>
        <time>2026-02-23T07:36:08.000Z</time>
      </trkpt>
      <trkpt lat="43.37057" lon="-1.52524">
        <ele>141</ele>
        <time>2026-02-23T07:36:12.000Z</time>
      </trkpt>
      <trkpt lat="43.37046" lon="-1.52546">
        <ele>141</ele>
        <time>2026-02-23T07:36:15.000Z</time>
      </trkpt>
      <trkpt lat="43.3702" lon="-1.52572">
        <ele>141</ele>
        <time>2026-02-23T07:36:21.000Z</time>
      </trkpt>
      <trkpt lat="43.37005" lon="-1.52582">
        <ele>141</ele>
        <time>2026-02-23T07:36:24.000Z</time>
      </trkpt>
      <trkpt lat="43.36952" lon="-1.52605">
        <ele>142</ele>
        <time>2026-02-23T07:36:34.000Z</time>
      </trkpt>
      <trkpt lat="43.36908" lon="-1.52652">
        <ele>141</ele>
        <time>2026-02-23T07:36:44.000Z</time>
      </trkpt>
      <trkpt lat="43.36882" lon="-1.52658">
        <ele>139</ele>
        <time>2026-02-23T07:36:48.000Z</time>
      </trkpt>
      <trkpt lat="43.36867" lon="-1.52655">
        <ele>139</ele>
        <time>2026-02-23T07:36:51.000Z</time>
      </trkpt>
      <trkpt lat="43.36853" lon="-1.52645">
        <ele>139</ele>
        <time>2026-02-23T07:36:54.000Z</time>
      </trkpt>
      <trkpt lat="43.36841" lon="-1.52631">
        <ele>139</ele>
        <time>2026-02-23T07:36:57.000Z</time>
      </trkpt>
      <trkpt lat="43.36833" lon="-1.52616">
        <ele>139</ele>
        <time>2026-02-23T07:36:59.000Z</time>
      </trkpt>
      <trkpt lat="43.36833" lon="-1.52584">
        <ele>140</ele>
        <time>2026-02-23T07:37:03.000Z</time>
      </trkpt>
      <trkpt lat="43.36841" lon="-1.52544">
        <ele>141</ele>
        <time>2026-02-23T07:37:09.000Z</time>
      </trkpt>
      <trkpt lat="43.36831" lon="-1.52476">
        <ele>140</ele>
        <time>2026-02-23T07:37:17.000Z</time>
      </trkpt>
      <trkpt lat="43.36817" lon="-1.52434">
        <ele>140</ele>
        <time>2026-02-23T07:37:23.000Z</time>
      </trkpt>
      <trkpt lat="43.36799" lon="-1.52394">
        <ele>140</ele>
        <time>2026-02-23T07:37:30.000Z</time>
      </trkpt>
      <trkpt lat="43.36787" lon="-1.5235">
        <ele>142</ele>
        <time>2026-02-23T07:37:36.000Z</time>
      </trkpt>
      <trkpt lat="43.36779" lon="-1.52335">
        <ele>142</ele>
        <time>2026-02-23T07:37:38.000Z</time>
      </trkpt>
      <trkpt lat="43.36773" lon="-1.52329">
        <ele>142</ele>
        <time>2026-02-23T07:37:39.000Z</time>
      </trkpt>
      <trkpt lat="43.36764" lon="-1.52325">
        <ele>141</ele>
        <time>2026-02-23T07:37:41.000Z</time>
      </trkpt>
      <trkpt lat="43.36755" lon="-1.52327">
        <ele>140</ele>
        <time>2026-02-23T07:37:43.000Z</time>
      </trkpt>
      <trkpt lat="43.36717" lon="-1.52356">
        <ele>137</ele>
        <time>2026-02-23T07:37:50.000Z</time>
      </trkpt>
      <trkpt lat="43.36702" lon="-1.52364">
        <ele>137</ele>
        <time>2026-02-23T07:37:53.000Z</time>
      </trkpt>
      <trkpt lat="43.36668" lon="-1.52369">
        <ele>138</ele>
        <time>2026-02-23T07:37:59.000Z</time>
      </trkpt>
      <trkpt lat="43.36655" lon="-1.52375">
        <ele>137</ele>
        <time>2026-02-23T07:38:02.000Z</time>
      </trkpt>
      <trkpt lat="43.36641" lon="-1.52391">
        <ele>135</ele>
        <time>2026-02-23T07:38:05.000Z</time>
      </trkpt>
      <trkpt lat="43.3663" lon="-1.52398">
        <ele>134</ele>
        <time>2026-02-23T07:38:07.000Z</time>
      </trkpt>
      <trkpt lat="43.3662" lon="-1.52401">
        <ele>133</ele>
        <time>2026-02-23T07:38:09.000Z</time>
      </trkpt>
      <trkpt lat="43.36609" lon="-1.52398">
        <ele>132</ele>
        <time>2026-02-23T07:38:11.000Z</time>
      </trkpt>
      <trkpt lat="43.36599" lon="-1.52391">
        <ele>132</ele>
        <time>2026-02-23T07:38:13.000Z</time>
      </trkpt>
      <trkpt lat="43.36591" lon="-1.52379">
        <ele>132</ele>
        <time>2026-02-23T07:38:15.000Z</time>
      </trkpt>
      <trkpt lat="43.36555" lon="-1.52297">
        <ele>134</ele>
        <time>2026-02-23T07:38:27.000Z</time>
      </trkpt>
      <trkpt lat="43.36545" lon="-1.52284">
        <ele>134</ele>
        <time>2026-02-23T07:38:30.000Z</time>
      </trkpt>
      <trkpt lat="43.36534" lon="-1.52277">
        <ele>133</ele>
        <time>2026-02-23T07:38:32.000Z</time>
      </trkpt>
      <trkpt lat="43.36523" lon="-1.52274">
        <ele>133</ele>
        <time>2026-02-23T07:38:34.000Z</time>
      </trkpt>
      <trkpt lat="43.36506" lon="-1.52278">
        <ele>131</ele>
        <time>2026-02-23T07:38:37.000Z</time>
      </trkpt>
      <trkpt lat="43.36473" lon="-1.5229">
        <ele>130</ele>
        <time>2026-02-23T07:38:43.000Z</time>
      </trkpt>
      <trkpt lat="43.36446" lon="-1.52304">
        <ele>130</ele>
        <time>2026-02-23T07:38:48.000Z</time>
      </trkpt>
      <trkpt lat="43.36417" lon="-1.52323">
        <ele>131</ele>
        <time>2026-02-23T07:38:54.000Z</time>
      </trkpt>
      <trkpt lat="43.3638" lon="-1.52351">
        <ele>132</ele>
        <time>2026-02-23T07:39:02.000Z</time>
      </trkpt>
      <trkpt lat="43.36356" lon="-1.52376">
        <ele>132</ele>
        <time>2026-02-23T07:39:07.000Z</time>
      </trkpt>
      <trkpt lat="43.36342" lon="-1.52397">
        <ele>132</ele>
        <time>2026-02-23T07:39:11.000Z</time>
      </trkpt>
      <trkpt lat="43.36335" lon="-1.52415">
        <ele>132</ele>
        <time>2026-02-23T07:39:13.000Z</time>
      </trkpt>
      <trkpt lat="43.36298" lon="-1.52625">
        <ele>125</ele>
        <time>2026-02-23T07:39:41.000Z</time>
      </trkpt>
      <trkpt lat="43.36299" lon="-1.52656">
        <ele>123</ele>
        <time>2026-02-23T07:39:45.000Z</time>
      </trkpt>
      <trkpt lat="43.36305" lon="-1.5269">
        <ele>120</ele>
        <time>2026-02-23T07:39:50.000Z</time>
      </trkpt>
      <trkpt lat="43.36322" lon="-1.52743">
        <ele>118</ele>
        <time>2026-02-23T07:39:57.000Z</time>
      </trkpt>
      <trkpt lat="43.36341" lon="-1.52783">
        <ele>117</ele>
        <time>2026-02-23T07:40:03.000Z</time>
      </trkpt>
      <trkpt lat="43.3639" lon="-1.52871">
        <ele>114</ele>
        <time>2026-02-23T07:40:18.000Z</time>
      </trkpt>
      <trkpt lat="43.36402" lon="-1.52897">
        <ele>114</ele>
        <time>2026-02-23T07:40:22.000Z</time>
      </trkpt>
      <trkpt lat="43.3641" lon="-1.52925">
        <ele>115</ele>
        <time>2026-02-23T07:40:26.000Z</time>
      </trkpt>
      <trkpt lat="43.36424" lon="-1.53">
        <ele>110</ele>
        <time>2026-02-23T07:40:36.000Z</time>
      </trkpt>
      <trkpt lat="43.36463" lon="-1.53252">
        <ele>108</ele>
        <time>2026-02-23T07:41:09.000Z</time>
      </trkpt>
      <trkpt lat="43.36496" lon="-1.53439">
        <ele>104</ele>
        <time>2026-02-23T07:41:34.000Z</time>
      </trkpt>
      <trkpt lat="43.36507" lon="-1.53566">
        <ele>97</ele>
        <time>2026-02-23T07:41:50.000Z</time>
      </trkpt>
      <trkpt lat="43.36504" lon="-1.53627">
        <ele>97</ele>
        <time>2026-02-23T07:41:58.000Z</time>
      </trkpt>
      <trkpt lat="43.36486" lon="-1.53691">
        <ele>98</ele>
        <time>2026-02-23T07:42:07.000Z</time>
      </trkpt>
      <trkpt lat="43.36458" lon="-1.5377">
        <ele>99</ele>
        <time>2026-02-23T07:42:19.000Z</time>
      </trkpt>
      <trkpt lat="43.36453" lon="-1.53796">
        <ele>99</ele>
        <time>2026-02-23T07:42:22.000Z</time>
      </trkpt>
      <trkpt lat="43.36451" lon="-1.53875">
        <ele>99</ele>
        <time>2026-02-23T07:42:32.000Z</time>
      </trkpt>
      <trkpt lat="43.3644" lon="-1.53976">
        <ele>96</ele>
        <time>2026-02-23T07:42:45.000Z</time>
      </trkpt>
      <trkpt lat="43.36438" lon="-1.54039">
        <ele>95</ele>
        <time>2026-02-23T07:42:54.000Z</time>
      </trkpt>
      <trkpt lat="43.36416" lon="-1.54232">
        <ele>99</ele>
        <time>2026-02-23T07:43:19.000Z</time>
      </trkpt>
      <trkpt lat="43.36416" lon="-1.54258">
        <ele>100</ele>
        <time>2026-02-23T07:43:22.000Z</time>
      </trkpt>
      <trkpt lat="43.36422" lon="-1.54276">
        <ele>101</ele>
        <time>2026-02-23T07:43:25.000Z</time>
      </trkpt>
      <trkpt lat="43.36434" lon="-1.54296">
        <ele>100</ele>
        <time>2026-02-23T07:43:28.000Z</time>
      </trkpt>
      <trkpt lat="43.36454" lon="-1.5431">
        <ele>99</ele>
        <time>2026-02-23T07:43:32.000Z</time>
      </trkpt>
      <trkpt lat="43.36468" lon="-1.54315">
        <ele>97</ele>
        <time>2026-02-23T07:43:35.000Z</time>
      </trkpt>
      <trkpt lat="43.36492" lon="-1.54318">
        <ele>95</ele>
        <time>2026-02-23T07:43:39.000Z</time>
      </trkpt>
      <trkpt lat="43.36522" lon="-1.54318">
        <ele>91</ele>
        <time>2026-02-23T07:43:44.000Z</time>
      </trkpt>
      <trkpt lat="43.36535" lon="-1.54327">
        <ele>90</ele>
        <time>2026-02-23T07:43:47.000Z</time>
      </trkpt>
      <trkpt lat="43.36539" lon="-1.54346">
        <ele>90</ele>
        <time>2026-02-23T07:43:50.000Z</time>
      </trkpt>
      <trkpt lat="43.36529" lon="-1.54476">
        <ele>90</ele>
        <time>2026-02-23T07:44:06.000Z</time>
      </trkpt>
      <trkpt lat="43.36384" lon="-1.54515">
        <ele>85</ele>
        <time>2026-02-23T07:44:33.000Z</time>
      </trkpt>
      <trkpt lat="43.3637" lon="-1.54515">
        <ele>84</ele>
        <time>2026-02-23T07:44:35.000Z</time>
      </trkpt>
      <trkpt lat="43.36347" lon="-1.54511">
        <ele>83</ele>
        <time>2026-02-23T07:44:39.000Z</time>
      </trkpt>
      <trkpt lat="43.36338" lon="-1.54516">
        <ele>82</ele>
        <time>2026-02-23T07:44:41.000Z</time>
      </trkpt>
      <trkpt lat="43.3632" lon="-1.54556">
        <ele>76</ele>
        <time>2026-02-23T07:44:47.000Z</time>
      </trkpt>
      <trkpt lat="43.36304" lon="-1.54576">
        <ele>72</ele>
        <time>2026-02-23T07:44:51.000Z</time>
      </trkpt>
      <trkpt lat="43.3629" lon="-1.54587">
        <ele>70</ele>
        <time>2026-02-23T07:44:54.000Z</time>
      </trkpt>
      <trkpt lat="43.36274" lon="-1.54596">
        <ele>69</ele>
        <time>2026-02-23T07:44:57.000Z</time>
      </trkpt>
      <trkpt lat="43.36233" lon="-1.54606">
        <ele>67</ele>
        <time>2026-02-23T07:45:04.000Z</time>
      </trkpt>
      <trkpt lat="43.36199" lon="-1.54619">
        <ele>67</ele>
        <time>2026-02-23T07:45:11.000Z</time>
      </trkpt>
      <trkpt lat="43.36068" lon="-1.54671">
        <ele>58</ele>
        <time>2026-02-23T07:45:35.000Z</time>
      </trkpt>
      <trkpt lat="43.36026" lon="-1.54699">
        <ele>55</ele>
        <time>2026-02-23T07:45:43.000Z</time>
      </trkpt>
      <trkpt lat="43.3601" lon="-1.54708">
        <ele>53</ele>
        <time>2026-02-23T07:45:46.000Z</time>
      </trkpt>
      <trkpt lat="43.35883" lon="-1.5476">
        <ele>39</ele>
        <time>2026-02-23T07:46:10.000Z</time>
      </trkpt>
      <trkpt lat="43.35865" lon="-1.54771">
        <ele>37</ele>
        <time>2026-02-23T07:46:13.000Z</time>
      </trkpt>
      <trkpt lat="43.35856" lon="-1.54778">
        <ele>36</ele>
        <time>2026-02-23T07:46:15.000Z</time>
      </trkpt>
      <trkpt lat="43.35848" lon="-1.54788">
        <ele>35</ele>
        <time>2026-02-23T07:46:17.000Z</time>
      </trkpt>
      <trkpt lat="43.35784" lon="-1.54901">
        <ele>30</ele>
        <time>2026-02-23T07:46:36.000Z</time>
      </trkpt>
      <trkpt lat="43.35759" lon="-1.54932">
        <ele>28</ele>
        <time>2026-02-23T07:46:42.000Z</time>
      </trkpt>
      <trkpt lat="43.35639" lon="-1.55061">
        <ele>22</ele>
        <time>2026-02-23T07:47:09.000Z</time>
      </trkpt>
      <trkpt lat="43.35695" lon="-1.55166">
        <ele>22</ele>
        <time>2026-02-23T07:47:26.000Z</time>
      </trkpt>
      <trkpt lat="43.3574" lon="-1.55234">
        <ele>22</ele>
        <time>2026-02-23T07:47:37.000Z</time>
      </trkpt>
      <trkpt lat="43.35763" lon="-1.55276">
        <ele>22</ele>
        <time>2026-02-23T07:47:44.000Z</time>
      </trkpt>
      <trkpt lat="43.35769" lon="-1.55301">
        <ele>22</ele>
        <time>2026-02-23T07:47:48.000Z</time>
      </trkpt>
      <trkpt lat="43.35798" lon="-1.55504">
        <ele>25</ele>
        <time>2026-02-23T07:48:14.000Z</time>
      </trkpt>
      <trkpt lat="43.35797" lon="-1.55542">
        <ele>25</ele>
        <time>2026-02-23T07:48:19.000Z</time>
      </trkpt>
      <trkpt lat="43.35793" lon="-1.55578">
        <ele>24</ele>
        <time>2026-02-23T07:48:24.000Z</time>
      </trkpt>
      <trkpt lat="43.35784" lon="-1.55615">
        <ele>23</ele>
        <time>2026-02-23T07:48:29.000Z</time>
      </trkpt>
      <trkpt lat="43.35781" lon="-1.55641">
        <ele>23</ele>
        <time>2026-02-23T07:48:33.000Z</time>
      </trkpt>
      <trkpt lat="43.3578" lon="-1.55666">
        <ele>23</ele>
        <time>2026-02-23T07:48:36.000Z</time>
      </trkpt>
      <trkpt lat="43.35787" lon="-1.55899">
        <ele>20</ele>
        <time>2026-02-23T07:49:06.000Z</time>
      </trkpt>
      <trkpt lat="43.35785" lon="-1.5592">
        <ele>18</ele>
        <time>2026-02-23T07:49:09.000Z</time>
      </trkpt>
      <trkpt lat="43.35781" lon="-1.55941">
        <ele>18</ele>
        <time>2026-02-23T07:49:12.000Z</time>
      </trkpt>
      <trkpt lat="43.35774" lon="-1.55958">
        <ele>18</ele>
        <time>2026-02-23T07:49:14.000Z</time>
      </trkpt>
      <trkpt lat="43.35766" lon="-1.55989">
        <ele>18</ele>
        <time>2026-02-23T07:49:18.000Z</time>
      </trkpt>
      <trkpt lat="43.35767" lon="-1.55997">
        <ele>18</ele>
        <time>2026-02-23T07:49:19.000Z</time>
      </trkpt>
      <trkpt lat="43.35765" lon="-1.56008">
        <ele>19</ele>
        <time>2026-02-23T07:49:21.000Z</time>
      </trkpt>
      <trkpt lat="43.35761" lon="-1.56013">
        <ele>19</ele>
        <time>2026-02-23T07:49:22.000Z</time>
      </trkpt>
      <trkpt lat="43.35757" lon="-1.56017">
        <ele>19</ele>
        <time>2026-02-23T07:49:23.000Z</time>
      </trkpt>
      <trkpt lat="43.35747" lon="-1.56016">
        <ele>19</ele>
        <time>2026-02-23T07:49:24.000Z</time>
      </trkpt>
      <trkpt lat="43.35721" lon="-1.56041">
        <ele>19</ele>
        <time>2026-02-23T07:49:30.000Z</time>
      </trkpt>
      <trkpt lat="43.35652" lon="-1.56086">
        <ele>18</ele>
        <time>2026-02-23T07:49:44.000Z</time>
      </trkpt>
      <trkpt lat="43.35635" lon="-1.56106">
        <ele>18</ele>
        <time>2026-02-23T07:49:48.000Z</time>
      </trkpt>
      <trkpt lat="43.35625" lon="-1.56126">
        <ele>18</ele>
        <time>2026-02-23T07:49:51.000Z</time>
      </trkpt>
      <trkpt lat="43.35623" lon="-1.56133">
        <ele>18</ele>
        <time>2026-02-23T07:49:52.000Z</time>
      </trkpt>
      <trkpt lat="43.35617" lon="-1.5617">
        <ele>19</ele>
        <time>2026-02-23T07:49:57.000Z</time>
      </trkpt>
      <trkpt lat="43.35615" lon="-1.56214">
        <ele>19</ele>
        <time>2026-02-23T07:50:02.000Z</time>
      </trkpt>
      <trkpt lat="43.35623" lon="-1.56587">
        <ele>19</ele>
        <time>2026-02-23T07:50:51.000Z</time>
      </trkpt>
      <trkpt lat="43.35625" lon="-1.56587">
        <ele>19</ele>
        <time>2026-02-23T07:50:51.000Z</time>
      </trkpt>
      <trkpt lat="43.35629" lon="-1.56591">
        <ele>19</ele>
        <time>2026-02-23T07:50:52.000Z</time>
      </trkpt>
      <trkpt lat="43.3563" lon="-1.56595">
        <ele>19</ele>
        <time>2026-02-23T07:50:52.000Z</time>
      </trkpt>
      <trkpt lat="43.3563" lon="-1.56598">
        <ele>19</ele>
        <time>2026-02-23T07:50:53.000Z</time>
      </trkpt>
      <trkpt lat="43.35626" lon="-1.56604">
        <ele>19</ele>
        <time>2026-02-23T07:50:54.000Z</time>
      </trkpt>
      <trkpt lat="43.35622" lon="-1.56604">
        <ele>19</ele>
        <time>2026-02-23T07:50:55.000Z</time>
      </trkpt>
      <trkpt lat="43.35622" lon="-1.56658">
        <ele>19</ele>
        <time>2026-02-23T07:51:02.000Z</time>
      </trkpt>
      <trkpt lat="43.35617" lon="-1.56692">
        <ele>19</ele>
        <time>2026-02-23T07:51:06.000Z</time>
      </trkpt>
      <trkpt lat="43.3559" lon="-1.56791">
        <ele>17</ele>
        <time>2026-02-23T07:51:20.000Z</time>
      </trkpt>
      <trkpt lat="43.35585" lon="-1.56811">
        <ele>17</ele>
        <time>2026-02-23T07:51:22.000Z</time>
      </trkpt>
      <trkpt lat="43.35585" lon="-1.56824">
        <ele>17</ele>
        <time>2026-02-23T07:51:24.000Z</time>
      </trkpt>
      <trkpt lat="43.35589" lon="-1.56852">
        <ele>17</ele>
        <time>2026-02-23T07:51:28.000Z</time>
      </trkpt>
      <trkpt lat="43.35608" lon="-1.56895">
        <ele>17</ele>
        <time>2026-02-23T07:51:34.000Z</time>
      </trkpt>
      <trkpt lat="43.35625" lon="-1.56922">
        <ele>17</ele>
        <time>2026-02-23T07:51:39.000Z</time>
      </trkpt>
      <trkpt lat="43.35723" lon="-1.5713">
        <ele>15</ele>
        <time>2026-02-23T07:52:11.000Z</time>
      </trkpt>
      <trkpt lat="43.35733" lon="-1.5716">
        <ele>15</ele>
        <time>2026-02-23T07:52:15.000Z</time>
      </trkpt>
      <trkpt lat="43.3574" lon="-1.57189">
        <ele>15</ele>
        <time>2026-02-23T07:52:19.000Z</time>
      </trkpt>
      <trkpt lat="43.35745" lon="-1.57225">
        <ele>14</ele>
        <time>2026-02-23T07:52:24.000Z</time>
      </trkpt>
      <trkpt lat="43.35763" lon="-1.57418">
        <ele>13</ele>
        <time>2026-02-23T07:52:49.000Z</time>
      </trkpt>
      <trkpt lat="43.35767" lon="-1.57433">
        <ele>13</ele>
        <time>2026-02-23T07:52:51.000Z</time>
      </trkpt>
      <trkpt lat="43.35781" lon="-1.57454">
        <ele>13</ele>
        <time>2026-02-23T07:52:55.000Z</time>
      </trkpt>
      <trkpt lat="43.35786" lon="-1.57459">
        <ele>13</ele>
        <time>2026-02-23T07:52:56.000Z</time>
      </trkpt>
      <trkpt lat="43.35789" lon="-1.57468">
        <ele>13</ele>
        <time>2026-02-23T07:52:57.000Z</time>
      </trkpt>
      <trkpt lat="43.35787" lon="-1.57474">
        <ele>13</ele>
        <time>2026-02-23T07:52:58.000Z</time>
      </trkpt>
      <trkpt lat="43.35784" lon="-1.57479">
        <ele>13</ele>
        <time>2026-02-23T07:52:59.000Z</time>
      </trkpt>
      <trkpt lat="43.35779" lon="-1.57525">
        <ele>13</ele>
        <time>2026-02-23T07:53:05.000Z</time>
      </trkpt>
      <trkpt lat="43.35782" lon="-1.57586">
        <ele>13</ele>
        <time>2026-02-23T07:53:13.000Z</time>
      </trkpt>
      <trkpt lat="43.35807" lon="-1.5772">
        <ele>12</ele>
        <time>2026-02-23T07:53:31.000Z</time>
      </trkpt>
      <trkpt lat="43.35838" lon="-1.57872">
        <ele>12</ele>
        <time>2026-02-23T07:53:51.000Z</time>
      </trkpt>
      <trkpt lat="43.35861" lon="-1.57931">
        <ele>12</ele>
        <time>2026-02-23T07:54:00.000Z</time>
      </trkpt>
      <trkpt lat="43.35894" lon="-1.57993">
        <ele>11</ele>
        <time>2026-02-23T07:54:10.000Z</time>
      </trkpt>
      <trkpt lat="43.36109" lon="-1.58303">
        <ele>12</ele>
        <time>2026-02-23T07:55:05.000Z</time>
      </trkpt>
      <trkpt lat="43.36129" lon="-1.58341">
        <ele>12</ele>
        <time>2026-02-23T07:55:11.000Z</time>
      </trkpt>
      <trkpt lat="43.36139" lon="-1.58363">
        <ele>12</ele>
        <time>2026-02-23T07:55:15.000Z</time>
      </trkpt>
      <trkpt lat="43.36164" lon="-1.58429">
        <ele>12</ele>
        <time>2026-02-23T07:55:24.000Z</time>
      </trkpt>
      <trkpt lat="43.36257" lon="-1.58723">
        <ele>14</ele>
        <time>2026-02-23T07:56:06.000Z</time>
      </trkpt>
      <trkpt lat="43.3628" lon="-1.58766">
        <ele>18</ele>
        <time>2026-02-23T07:56:13.000Z</time>
      </trkpt>
      <trkpt lat="43.36308" lon="-1.58801">
        <ele>19</ele>
        <time>2026-02-23T07:56:19.000Z</time>
      </trkpt>
      <trkpt lat="43.36402" lon="-1.58885">
        <ele>17</ele>
        <time>2026-02-23T07:56:39.000Z</time>
      </trkpt>
      <trkpt lat="43.36427" lon="-1.58913">
        <ele>13</ele>
        <time>2026-02-23T07:56:45.000Z</time>
      </trkpt>
      <trkpt lat="43.36444" lon="-1.58941">
        <ele>12</ele>
        <time>2026-02-23T07:56:50.000Z</time>
      </trkpt>
      <trkpt lat="43.3646" lon="-1.58976">
        <ele>11</ele>
        <time>2026-02-23T07:56:55.000Z</time>
      </trkpt>
      <trkpt lat="43.36482" lon="-1.59044">
        <ele>9</ele>
        <time>2026-02-23T07:57:05.000Z</time>
      </trkpt>
      <trkpt lat="43.36581" lon="-1.59376">
        <ele>9</ele>
        <time>2026-02-23T07:57:51.000Z</time>
      </trkpt>
      <trkpt lat="43.36589" lon="-1.5943">
        <ele>9</ele>
        <time>2026-02-23T07:57:58.000Z</time>
      </trkpt>
      <trkpt lat="43.36592" lon="-1.59482">
        <ele>9</ele>
        <time>2026-02-23T07:58:05.000Z</time>
      </trkpt>
      <trkpt lat="43.3659" lon="-1.59507">
        <ele>10</ele>
        <time>2026-02-23T07:58:08.000Z</time>
      </trkpt>
      <trkpt lat="43.3659" lon="-1.59507">
        <ele>10</ele>
        <time>2026-02-23T07:58:08.000Z</time>
      </trkpt>
      <trkpt lat="43.36567" lon="-1.59809">
        <ele>18</ele>
        <time>2026-02-23T07:58:48.000Z</time>
      </trkpt>
      <trkpt lat="43.36562" lon="-1.59843">
        <ele>18</ele>
        <time>2026-02-23T07:58:52.000Z</time>
      </trkpt>
      <trkpt lat="43.36549" lon="-1.59873">
        <ele>17</ele>
        <time>2026-02-23T07:58:57.000Z</time>
      </trkpt>
      <trkpt lat="43.36533" lon="-1.59897">
        <ele>16</ele>
        <time>2026-02-23T07:59:01.000Z</time>
      </trkpt>
      <trkpt lat="43.3648" lon="-1.59937">
        <ele>14</ele>
        <time>2026-02-23T07:59:12.000Z</time>
      </trkpt>
      <trkpt lat="43.3648" lon="-1.59937">
        <ele>14</ele>
        <time>2026-02-23T07:59:12.000Z</time>
      </trkpt>
      <trkpt lat="43.36426" lon="-1.59985">
        <ele>13</ele>
        <time>2026-02-23T07:59:23.000Z</time>
      </trkpt>
      <trkpt lat="43.36392" lon="-1.60032">
        <ele>14</ele>
        <time>2026-02-23T07:59:32.000Z</time>
      </trkpt>
      <trkpt lat="43.36369" lon="-1.60073">
        <ele>15</ele>
        <time>2026-02-23T07:59:38.000Z</time>
      </trkpt>
      <trkpt lat="43.36345" lon="-1.6014">
        <ele>16</ele>
        <time>2026-02-23T07:59:48.000Z</time>
      </trkpt>
      <trkpt lat="43.36326" lon="-1.60185">
        <ele>18</ele>
        <time>2026-02-23T07:59:55.000Z</time>
      </trkpt>
      <trkpt lat="43.36299" lon="-1.60225">
        <ele>21</ele>
        <time>2026-02-23T08:00:02.000Z</time>
      </trkpt>
      <trkpt lat="43.36265" lon="-1.60257">
        <ele>19</ele>
        <time>2026-02-23T08:00:09.000Z</time>
      </trkpt>
      <trkpt lat="43.36203" lon="-1.60308">
        <ele>15</ele>
        <time>2026-02-23T08:00:22.000Z</time>
      </trkpt>
      <trkpt lat="43.36173" lon="-1.60338">
        <ele>13</ele>
        <time>2026-02-23T08:00:29.000Z</time>
      </trkpt>
      <trkpt lat="43.36152" lon="-1.60365">
        <ele>14</ele>
        <time>2026-02-23T08:00:34.000Z</time>
      </trkpt>
      <trkpt lat="43.36125" lon="-1.6041">
        <ele>15</ele>
        <time>2026-02-23T08:00:41.000Z</time>
      </trkpt>
      <trkpt lat="43.36109" lon="-1.60457">
        <ele>16</ele>
        <time>2026-02-23T08:00:48.000Z</time>
      </trkpt>
      <trkpt lat="43.36102" lon="-1.60521">
        <ele>17</ele>
        <time>2026-02-23T08:00:56.000Z</time>
      </trkpt>
      <trkpt lat="43.36104" lon="-1.60586">
        <ele>18</ele>
        <time>2026-02-23T08:01:05.000Z</time>
      </trkpt>
      <trkpt lat="43.36118" lon="-1.607">
        <ele>18</ele>
        <time>2026-02-23T08:01:20.000Z</time>
      </trkpt>
      <trkpt lat="43.36119" lon="-1.6075">
        <ele>18</ele>
        <time>2026-02-23T08:01:26.000Z</time>
      </trkpt>
      <trkpt lat="43.36112" lon="-1.6083">
        <ele>16</ele>
        <time>2026-02-23T08:01:37.000Z</time>
      </trkpt>
      <trkpt lat="43.36113" lon="-1.60838">
        <ele>16</ele>
        <time>2026-02-23T08:01:38.000Z</time>
      </trkpt>
      <trkpt lat="43.36105" lon="-1.61018">
        <ele>17</ele>
        <time>2026-02-23T08:02:01.000Z</time>
      </trkpt>
      <trkpt lat="43.361" lon="-1.61078">
        <ele>15</ele>
        <time>2026-02-23T08:02:09.000Z</time>
      </trkpt>
      <trkpt lat="43.36091" lon="-1.61139">
        <ele>13</ele>
        <time>2026-02-23T08:02:17.000Z</time>
      </trkpt>
      <trkpt lat="43.36075" lon="-1.61188">
        <ele>12</ele>
        <time>2026-02-23T08:02:24.000Z</time>
      </trkpt>
      <trkpt lat="43.36058" lon="-1.61224">
        <ele>11</ele>
        <time>2026-02-23T08:02:29.000Z</time>
      </trkpt>
      <trkpt lat="43.36042" lon="-1.61253">
        <ele>11</ele>
        <time>2026-02-23T08:02:34.000Z</time>
      </trkpt>
      <trkpt lat="43.36026" lon="-1.61276">
        <ele>11</ele>
        <time>2026-02-23T08:02:38.000Z</time>
      </trkpt>
      <trkpt lat="43.35934" lon="-1.61396">
        <ele>16</ele>
        <time>2026-02-23T08:03:01.000Z</time>
      </trkpt>
      <trkpt lat="43.35913" lon="-1.61419">
        <ele>16</ele>
        <time>2026-02-23T08:03:05.000Z</time>
      </trkpt>
      <trkpt lat="43.35815" lon="-1.61503">
        <ele>12</ele>
        <time>2026-02-23T08:03:26.000Z</time>
      </trkpt>
      <trkpt lat="43.35787" lon="-1.61535">
        <ele>14</ele>
        <time>2026-02-23T08:03:33.000Z</time>
      </trkpt>
      <trkpt lat="43.35515" lon="-1.61963">
        <ele>18</ele>
        <time>2026-02-23T08:04:46.000Z</time>
      </trkpt>
      <trkpt lat="43.35486" lon="-1.62001">
        <ele>18</ele>
        <time>2026-02-23T08:04:53.000Z</time>
      </trkpt>
      <trkpt lat="43.35449" lon="-1.62032">
        <ele>20</ele>
        <time>2026-02-23T08:05:01.000Z</time>
      </trkpt>
      <trkpt lat="43.35406" lon="-1.62059">
        <ele>21</ele>
        <time>2026-02-23T08:05:09.000Z</time>
      </trkpt>
      <trkpt lat="43.35384" lon="-1.6207">
        <ele>21</ele>
        <time>2026-02-23T08:05:13.000Z</time>
      </trkpt>
      <trkpt lat="43.35298" lon="-1.62102">
        <ele>17</ele>
        <time>2026-02-23T08:05:29.000Z</time>
      </trkpt>
      <trkpt lat="43.3523" lon="-1.62131">
        <ele>13</ele>
        <time>2026-02-23T08:05:42.000Z</time>
      </trkpt>
      <trkpt lat="43.35201" lon="-1.62156">
        <ele>12</ele>
        <time>2026-02-23T08:05:48.000Z</time>
      </trkpt>
      <trkpt lat="43.35181" lon="-1.62184">
        <ele>11</ele>
        <time>2026-02-23T08:05:53.000Z</time>
      </trkpt>
      <trkpt lat="43.35127" lon="-1.62289">
        <ele>11</ele>
        <time>2026-02-23T08:06:10.000Z</time>
      </trkpt>
      <trkpt lat="43.35116" lon="-1.62311">
        <ele>11</ele>
        <time>2026-02-23T08:06:13.000Z</time>
      </trkpt>
      <trkpt lat="43.35111" lon="-1.62332">
        <ele>11</ele>
        <time>2026-02-23T08:06:16.000Z</time>
      </trkpt>
      <trkpt lat="43.35104" lon="-1.62406">
        <ele>11</ele>
        <time>2026-02-23T08:06:26.000Z</time>
      </trkpt>
      <trkpt lat="43.35104" lon="-1.62447">
        <ele>11</ele>
        <time>2026-02-23T08:06:31.000Z</time>
      </trkpt>
      <trkpt lat="43.3511" lon="-1.62496">
        <ele>11</ele>
        <time>2026-02-23T08:06:38.000Z</time>
      </trkpt>
      <trkpt lat="43.35115" lon="-1.62529">
        <ele>11</ele>
        <time>2026-02-23T08:06:42.000Z</time>
      </trkpt>
      <trkpt lat="43.35207" lon="-1.62759">
        <ele>8</ele>
        <time>2026-02-23T08:07:16.000Z</time>
      </trkpt>
      <trkpt lat="43.35258" lon="-1.62906">
        <ele>6</ele>
        <time>2026-02-23T08:07:37.000Z</time>
      </trkpt>
      <trkpt lat="43.35279" lon="-1.62957">
        <ele>6</ele>
        <time>2026-02-23T08:07:44.000Z</time>
      </trkpt>
      <trkpt lat="43.35291" lon="-1.62977">
        <ele>6</ele>
        <time>2026-02-23T08:07:48.000Z</time>
      </trkpt>
      <trkpt lat="43.35332" lon="-1.63028">
        <ele>7</ele>
        <time>2026-02-23T08:07:58.000Z</time>
      </trkpt>
      <trkpt lat="43.35365" lon="-1.63059">
        <ele>7</ele>
        <time>2026-02-23T08:08:05.000Z</time>
      </trkpt>
      <trkpt lat="43.35403" lon="-1.63082">
        <ele>7</ele>
        <time>2026-02-23T08:08:12.000Z</time>
      </trkpt>
      <trkpt lat="43.35441" lon="-1.63095">
        <ele>6</ele>
        <time>2026-02-23T08:08:19.000Z</time>
      </trkpt>
      <trkpt lat="43.35615" lon="-1.63147">
        <ele>5</ele>
        <time>2026-02-23T08:08:51.000Z</time>
      </trkpt>
      <trkpt lat="43.35639" lon="-1.63145">
        <ele>6</ele>
        <time>2026-02-23T08:08:55.000Z</time>
      </trkpt>
      <trkpt lat="43.35647" lon="-1.63139">
        <ele>6</ele>
        <time>2026-02-23T08:08:57.000Z</time>
      </trkpt>
      <trkpt lat="43.35653" lon="-1.63131">
        <ele>7</ele>
        <time>2026-02-23T08:08:58.000Z</time>
      </trkpt>
      <trkpt lat="43.35661" lon="-1.63129">
        <ele>7</ele>
        <time>2026-02-23T08:09:00.000Z</time>
      </trkpt>
      <trkpt lat="43.35668" lon="-1.63133">
        <ele>7</ele>
        <time>2026-02-23T08:09:01.000Z</time>
      </trkpt>
      <trkpt lat="43.3567" lon="-1.63137">
        <ele>7</ele>
        <time>2026-02-23T08:09:02.000Z</time>
      </trkpt>
      <trkpt lat="43.35673" lon="-1.63149">
        <ele>7</ele>
        <time>2026-02-23T08:09:03.000Z</time>
      </trkpt>
      <trkpt lat="43.35676" lon="-1.63154">
        <ele>7</ele>
        <time>2026-02-23T08:09:04.000Z</time>
      </trkpt>
      <trkpt lat="43.35699" lon="-1.63173">
        <ele>6</ele>
        <time>2026-02-23T08:09:09.000Z</time>
      </trkpt>
      <trkpt lat="43.35749" lon="-1.63192">
        <ele>7</ele>
        <time>2026-02-23T08:09:18.000Z</time>
      </trkpt>
      <trkpt lat="43.35789" lon="-1.63219">
        <ele>9</ele>
        <time>2026-02-23T08:09:26.000Z</time>
      </trkpt>
      <trkpt lat="43.35827" lon="-1.63249">
        <ele>8</ele>
        <time>2026-02-23T08:09:34.000Z</time>
      </trkpt>
      <trkpt lat="43.35932" lon="-1.63351">
        <ele>9</ele>
        <time>2026-02-23T08:09:57.000Z</time>
      </trkpt>
      <trkpt lat="43.35991" lon="-1.63443">
        <ele>8</ele>
        <time>2026-02-23T08:10:13.000Z</time>
      </trkpt>
      <trkpt lat="43.36011" lon="-1.63495">
        <ele>6</ele>
        <time>2026-02-23T08:10:20.000Z</time>
      </trkpt>
      <trkpt lat="43.36029" lon="-1.63532">
        <ele>6</ele>
        <time>2026-02-23T08:10:26.000Z</time>
      </trkpt>
      <trkpt lat="43.36042" lon="-1.63555">
        <ele>6</ele>
        <time>2026-02-23T08:10:30.000Z</time>
      </trkpt>
      <trkpt lat="43.36061" lon="-1.63577">
        <ele>5</ele>
        <time>2026-02-23T08:10:34.000Z</time>
      </trkpt>
      <trkpt lat="43.36075" lon="-1.63589">
        <ele>5</ele>
        <time>2026-02-23T08:10:37.000Z</time>
      </trkpt>
      <trkpt lat="43.36111" lon="-1.63609">
        <ele>5</ele>
        <time>2026-02-23T08:10:44.000Z</time>
      </trkpt>
      <trkpt lat="43.36233" lon="-1.63654">
        <ele>6</ele>
        <time>2026-02-23T08:11:06.000Z</time>
      </trkpt>
      <trkpt lat="43.36273" lon="-1.63671">
        <ele>6</ele>
        <time>2026-02-23T08:11:14.000Z</time>
      </trkpt>
      <trkpt lat="43.36317" lon="-1.63673">
        <ele>7</ele>
        <time>2026-02-23T08:11:22.000Z</time>
      </trkpt>
      <trkpt lat="43.36639" lon="-1.63578">
        <ele>7</ele>
        <time>2026-02-23T08:12:20.000Z</time>
      </trkpt>
      <trkpt lat="43.36679" lon="-1.63572">
        <ele>8</ele>
        <time>2026-02-23T08:12:27.000Z</time>
      </trkpt>
      <trkpt lat="43.36707" lon="-1.63575">
        <ele>8</ele>
        <time>2026-02-23T08:12:32.000Z</time>
      </trkpt>
      <trkpt lat="43.36745" lon="-1.63592">
        <ele>7</ele>
        <time>2026-02-23T08:12:40.000Z</time>
      </trkpt>
      <trkpt lat="43.37063" lon="-1.63793">
        <ele>6</ele>
        <time>2026-02-23T08:13:42.000Z</time>
      </trkpt>
      <trkpt lat="43.37085" lon="-1.63801">
        <ele>6</ele>
        <time>2026-02-23T08:13:46.000Z</time>
      </trkpt>
      <trkpt lat="43.37111" lon="-1.63806">
        <ele>5</ele>
        <time>2026-02-23T08:13:51.000Z</time>
      </trkpt>
      <trkpt lat="43.37409" lon="-1.63788">
        <ele>4</ele>
        <time>2026-02-23T08:14:44.000Z</time>
      </trkpt>
      <trkpt lat="43.37444" lon="-1.63779">
        <ele>4</ele>
        <time>2026-02-23T08:14:50.000Z</time>
      </trkpt>
      <trkpt lat="43.37508" lon="-1.63777">
        <ele>4</ele>
        <time>2026-02-23T08:15:01.000Z</time>
      </trkpt>
      <trkpt lat="43.37526" lon="-1.63781">
        <ele>5</ele>
        <time>2026-02-23T08:15:05.000Z</time>
      </trkpt>
      <trkpt lat="43.37541" lon="-1.63773">
        <ele>5</ele>
        <time>2026-02-23T08:15:07.000Z</time>
      </trkpt>
      <trkpt lat="43.37607" lon="-1.63771">
        <ele>6</ele>
        <time>2026-02-23T08:15:19.000Z</time>
      </trkpt>
      <trkpt lat="43.37642" lon="-1.63776">
        <ele>6</ele>
        <time>2026-02-23T08:15:26.000Z</time>
      </trkpt>
      <trkpt lat="43.37738" lon="-1.63772">
        <ele>8</ele>
        <time>2026-02-23T08:15:43.000Z</time>
      </trkpt>
      <trkpt lat="43.37759" lon="-1.63774">
        <ele>8</ele>
        <time>2026-02-23T08:15:46.000Z</time>
      </trkpt>
      <trkpt lat="43.37776" lon="-1.63786">
        <ele>8</ele>
        <time>2026-02-23T08:15:50.000Z</time>
      </trkpt>
      <trkpt lat="43.37906" lon="-1.63917">
        <ele>6</ele>
        <time>2026-02-23T08:16:18.000Z</time>
      </trkpt>
      <trkpt lat="43.38056" lon="-1.64058">
        <ele>9</ele>
        <time>2026-02-23T08:16:51.000Z</time>
      </trkpt>
      <trkpt lat="43.3812" lon="-1.64193">
        <ele>6</ele>
        <time>2026-02-23T08:17:12.000Z</time>
      </trkpt>
      <trkpt lat="43.38155" lon="-1.6423">
        <ele>6</ele>
        <time>2026-02-23T08:17:19.000Z</time>
      </trkpt>
      <trkpt lat="43.38212" lon="-1.64283">
        <ele>5</ele>
        <time>2026-02-23T08:17:32.000Z</time>
      </trkpt>
      <trkpt lat="43.38232" lon="-1.64309">
        <ele>5</ele>
        <time>2026-02-23T08:17:37.000Z</time>
      </trkpt>
      <trkpt lat="43.3825" lon="-1.64341">
        <ele>5</ele>
        <time>2026-02-23T08:17:42.000Z</time>
      </trkpt>
      <trkpt lat="43.38264" lon="-1.64383">
        <ele>7</ele>
        <time>2026-02-23T08:17:48.000Z</time>
      </trkpt>
      <trkpt lat="43.38272" lon="-1.64424">
        <ele>8</ele>
        <time>2026-02-23T08:17:53.000Z</time>
      </trkpt>
      <trkpt lat="43.38278" lon="-1.64507">
        <ele>10</ele>
        <time>2026-02-23T08:18:04.000Z</time>
      </trkpt>
      <trkpt lat="43.38279" lon="-1.6461">
        <ele>7</ele>
        <time>2026-02-23T08:18:17.000Z</time>
      </trkpt>
      <trkpt lat="43.38253" lon="-1.64877">
        <ele>9</ele>
        <time>2026-02-23T08:18:52.000Z</time>
      </trkpt>
      <trkpt lat="43.3825" lon="-1.64928">
        <ele>8</ele>
        <time>2026-02-23T08:18:59.000Z</time>
      </trkpt>
      <trkpt lat="43.38258" lon="-1.64969">
        <ele>8</ele>
        <time>2026-02-23T08:19:04.000Z</time>
      </trkpt>
      <trkpt lat="43.38289" lon="-1.65058">
        <ele>10</ele>
        <time>2026-02-23T08:19:17.000Z</time>
      </trkpt>
      <trkpt lat="43.38289" lon="-1.65058">
        <ele>10</ele>
        <time>2026-02-23T08:19:17.000Z</time>
      </trkpt>
      <trkpt lat="43.38344" lon="-1.65206">
        <ele>12</ele>
        <time>2026-02-23T08:19:39.000Z</time>
      </trkpt>
      <trkpt lat="43.38356" lon="-1.65227">
        <ele>13</ele>
        <time>2026-02-23T08:19:42.000Z</time>
      </trkpt>
      <trkpt lat="43.38379" lon="-1.65254">
        <ele>14</ele>
        <time>2026-02-23T08:19:47.000Z</time>
      </trkpt>
      <trkpt lat="43.384" lon="-1.6527">
        <ele>14</ele>
        <time>2026-02-23T08:19:52.000Z</time>
      </trkpt>
      <trkpt lat="43.38412" lon="-1.65283">
        <ele>13</ele>
        <time>2026-02-23T08:19:54.000Z</time>
      </trkpt>
      <trkpt lat="43.38412" lon="-1.65302">
        <ele>10</ele>
        <time>2026-02-23T08:19:57.000Z</time>
      </trkpt>
      <trkpt lat="43.38409" lon="-1.65317">
        <ele>8</ele>
        <time>2026-02-23T08:19:59.000Z</time>
      </trkpt>
      <trkpt lat="43.38403" lon="-1.65325">
        <ele>7</ele>
        <time>2026-02-23T08:20:00.000Z</time>
      </trkpt>
      <trkpt lat="43.38339" lon="-1.65457">
        <ele>4</ele>
        <time>2026-02-23T08:20:21.000Z</time>
      </trkpt>
      <trkpt lat="43.38363" lon="-1.65494">
        <ele>4</ele>
        <time>2026-02-23T08:20:27.000Z</time>
      </trkpt>
      <trkpt lat="43.38362" lon="-1.65503">
        <ele>4</ele>
        <time>2026-02-23T08:20:28.000Z</time>
      </trkpt>
      <trkpt lat="43.38236" lon="-1.65679">
        <ele>4</ele>
        <time>2026-02-23T08:21:00.000Z</time>
      </trkpt>
      <trkpt lat="43.38233" lon="-1.65699">
        <ele>4</ele>
        <time>2026-02-23T08:21:03.000Z</time>
      </trkpt>
      <trkpt lat="43.38298" lon="-1.65877">
        <ele>4</ele>
        <time>2026-02-23T08:21:29.000Z</time>
      </trkpt>
      <trkpt lat="43.38313" lon="-1.6591">
        <ele>5</ele>
        <time>2026-02-23T08:21:34.000Z</time>
      </trkpt>
      <trkpt lat="43.38335" lon="-1.65933">
        <ele>6</ele>
        <time>2026-02-23T08:21:39.000Z</time>
      </trkpt>
      <trkpt lat="43.38347" lon="-1.65961">
        <ele>6</ele>
        <time>2026-02-23T08:21:43.000Z</time>
      </trkpt>
      <trkpt lat="43.38445" lon="-1.66095">
        <ele>5</ele>
        <time>2026-02-23T08:22:08.000Z</time>
      </trkpt>
      <trkpt lat="43.38462" lon="-1.66121">
        <ele>5</ele>
        <time>2026-02-23T08:22:12.000Z</time>
      </trkpt>
      <trkpt lat="43.38479" lon="-1.66155">
        <ele>5</ele>
        <time>2026-02-23T08:22:17.000Z</time>
      </trkpt>
      <trkpt lat="43.38485" lon="-1.66152">
        <ele>5</ele>
        <time>2026-02-23T08:22:19.000Z</time>
      </trkpt>
      <trkpt lat="43.38491" lon="-1.66155">
        <ele>5</ele>
        <time>2026-02-23T08:22:20.000Z</time>
      </trkpt>
      <trkpt lat="43.38493" lon="-1.6616">
        <ele>5</ele>
        <time>2026-02-23T08:22:20.000Z</time>
      </trkpt>
      <trkpt lat="43.38493" lon="-1.66166">
        <ele>5</ele>
        <time>2026-02-23T08:22:21.000Z</time>
      </trkpt>
      <trkpt lat="43.38491" lon="-1.66171">
        <ele>5</ele>
        <time>2026-02-23T08:22:22.000Z</time>
      </trkpt>
      <trkpt lat="43.38487" lon="-1.66173">
        <ele>5</ele>
        <time>2026-02-23T08:22:23.000Z</time>
      </trkpt>
      <trkpt lat="43.38493" lon="-1.66191">
        <ele>5</ele>
        <time>2026-02-23T08:22:25.000Z</time>
      </trkpt>
      <trkpt lat="43.38503" lon="-1.66208">
        <ele>4</ele>
        <time>2026-02-23T08:22:28.000Z</time>
      </trkpt>
      <trkpt lat="43.38616" lon="-1.66309">
        <ele>1</ele>
        <time>2026-02-23T08:22:52.000Z</time>
      </trkpt>
      <trkpt lat="43.38627" lon="-1.66314">
        <ele>3.7</ele>
        <time>2026-02-23T08:22:54.000Z</time>
      </trkpt>
    </trkseg>
  </trk>
</gpx>